[[{"header":{"parameterUnit":"m.s-1","parameterCategory":1,"la1":31.0,"la2":29.5877,"lo1":-88.7671,"lo2":-86.6584,"dy":0.0162,"dx":0.0185,"nx":115,"ny":88,"refTime":"2024-07-19T00:00:00:Z","depth":0,"parameterNumber":2,"parameterNumberName":"U-component_of_WINDS"},"data":[0.0,0.0,0.0,0.0,0.0,0.0,0.0,0.0,0.0,0.0,0.0,0.0,0.0,0.0,0.0,0.0,0.0,0.0,0.0,0.0,0.0,0.0,0.0,0.0,0.0,0.0,0.0,0.0,0.0,0.0,0.0,0.0,0.0,0.0,0.0,0.0,0.0,0.0,0.0,0.0,0.0,0.0,0.0,0.0,0.0,0.0,0.0,0.0,0.0,0.0,0.0,0.0,0.0,0.0,0.0,0.0,0.0,0.0,0.0,0.0,0.0,0.0,0.0,0.0,0.0,0.0,0.0,0.0,0.0,0.0,0.0,0.0,0.0,0.0,0.0,0.0,0.0,0.0,0.0,0.0,0.0,0.0,0.0,0.0,0.0,0.0,0.0,0.0,0.0,0.0,0.0,0.0,0.0,0.0,0.0,0.0,0.0,0.0,0.0,0.0,0.0,0.0,0.0,0.0,0.0,0.0,0.0,0.0,0.0,0.0,0.0,0.0,0.0,0.0,0.0,0.0,0.0,0.0,0.0,0.0,0.0,0.0,0.0,0.0,0.0,0.0,0.0,0.0,0.0,0.0,0.0,0.0,0.0,0.0,0.0,0.0,0.0,0.0,0.0,0.0,0.0,0.0,0.0,0.0,0.0,0.0,0.0,0.0,0.0,0.0,0.0,0.0,0.0,0.0,0.0,0.0,0.0,0.0,0.0,0.0,0.0,0.0,0.0,0.0,0.0,0.0,0.0,0.0,0.0,0.0,0.0,0.0,0.0,0.0,0.0,0.0,0.0,0.0,0.0,0.0,0.0,0.0,0.0,0.0,0.0,0.0,0.0,0.0,0.0,0.0,0.0,0.0,0.0,0.0,0.0,0.0,0.0,0.0,0.0,0.0,0.0,0.0,0.0,0.0,0.0,0.0,0.0,0.0,0.0,0.0,0.0,0.0,0.0,0.0,0.0,0.0,0.0,0.0,0.0,0.0,0.0,0.0,0.0,0.0,0.0,0.0,0.0,0.0,0.0,0.0,0.0,0.0,0.0,0.0,0.0,0.0,0.0,0.0,0.0,0.0,0.0,0.0,0.0,0.0,0.0,0.0,0.0,0.0,0.0,0.0,0.0,0.0,0.0,0.0,0.0,0.0,0.0,0.0,0.0,0.0,0.0,0.0,0.0,0.0,0.0,0.0,0.0,0.0,0.0,0.0,0.0,0.0,0.0,0.0,0.0,0.0,0.0,0.0,0.0,0.0,0.0,0.0,0.0,0.0,0.0,0.0,0.0,0.0,0.0,0.0,0.0,0.0,0.0,0.0,0.0,0.0,0.0,0.0,0.0,0.0,0.0,0.0,0.0,0.0,0.0,0.0,0.0,0.0,0.0,0.0,0.0,0.0,0.0,0.0,0.0,0.0,0.0,0.0,0.0,0.0,0.0,0.0,0.0,0.0,0.0,0.0,0.0,0.0,0.0,0.0,0.0,0.0,0.0,0.0,0.0,0.0,0.0,0.0,0.0,0.0,0.0,0.0,0.0,0.0,0.0,0.0,0.0,0.0,0.0,0.0,0.0,0.0,0.0,0.0,0.0,0.0,0.0,0.0,0.0,0.0,0.0,0.0,0.0,0.0,0.0,0.0,0.0,0.0,0.0,0.0,0.0,0.0,0.0,0.0,0.0,0.0,0.0,0.0,0.0,0.0,0.0,0.0,0.0,0.0,0.0,0.0,0.0,0.0,0.0,0.0,0.0,0.0,0.0,0.0,0.0,0.0,0.0,0.0,0.0,0.0,0.0,0.0,0.0,0.0,0.0,0.0,0.0,0.0,0.0,0.0,0.0,0.0,0.0,0.0,0.0,0.0,0.0,0.0,0.0,0.0,0.0,0.0,0.0,0.0,0.0,0.0,0.0,0.0,0.0,0.0,0.0,0.0,0.0,0.0,0.0,0.0,0.0,0.0,0.0,0.0,0.0,0.0,0.0,0.0,0.0,0.0,0.0,0.0,0.0,0.0,0.0,0.0,0.0,0.0,0.0,0.0,0.0,0.0,0.0,0.0,0.0,0.0,0.0,0.0,0.0,0.0,0.0,0.0,0.0,0.0,0.0,0.0,0.0,0.0,0.0,0.0,0.0,0.0,0.0,0.0,0.0,0.0,0.0,0.0,0.0,0.0,0.0,0.0,0.0,0.0,0.0,0.0,0.0,0.0,0.0,0.0,0.0,0.0,0.0,0.0,0.0,0.0,0.0,0.0,0.0,0.0,0.0,0.0,0.0,0.0,0.0,0.0,0.0,0.0,0.0,0.0,0.0,0.0,0.0,0.0,0.0,0.0,0.0,0.0,0.0,0.0,0.0,0.0,0.0,0.0,0.0,0.0,0.0,0.0,0.0,0.0,0.0,0.0,0.0,0.0,0.0,0.0,0.0,0.0,0.0,0.0,0.0,0.0,0.0,0.0,0.0,0.0,0.0,0.0,0.0,0.0,0.0,0.0,0.0,0.0,0.0,0.0,0.0,0.0,0.0,0.0,0.0,0.0,0.0,0.0,0.0,0.0,0.0,0.0,0.0,0.0,0.0,0.0,0.0,0.0,0.0,0.0,0.0,0.0,0.0,0.0,0.0,0.0,0.0,0.0,0.0,0.0,0.0,0.0,0.0,0.0,0.0,0.0,0.0,0.0,0.0,0.0,0.0,0.0,0.0,0.0,0.0,0.0,0.0,0.0,0.0,0.0,0.0,0.0,0.0,0.0,0.0,0.0,0.0,0.0,0.0,0.0,0.0,0.0,0.0,0.0,0.0,0.0,0.0,0.0,0.0,0.0,0.0,0.0,0.0,0.0,0.0,0.0,0.0,0.0,0.0,0.0,0.0,0.0,0.0,0.0,0.0,0.0,0.0,0.0,0.0,0.0,0.0,0.0,0.0,0.0,0.0,0.0,0.0,0.0,0.0,0.0,0.0,0.0,0.0,0.0,0.0,0.0,0.0,0.0,0.0,0.0,0.0,0.0,0.0,0.0,0.0,0.0,0.0,0.0,0.0,0.0,0.0,0.0,0.0,0.0,0.0,0.0,0.0,0.0,0.0,0.0,0.0,0.0,0.0,0.0,0.0,0.0,0.0,0.0,0.0,0.0,0.0,0.0,0.0,0.0,0.0,0.0,0.0,0.0,0.0,0.0,0.0,0.0,0.0,0.0,0.0,0.0,0.0,0.0,0.0,0.0,0.0,0.0,0.0,0.0,0.0,0.0,0.0,0.0,0.0,0.0,0.0,0.0,0.0,0.0,0.0,0.0,0.0,0.0,0.0,0.0,0.0,0.0,0.0,0.0,0.0,0.0,0.0,0.0,0.0,0.0,0.0,0.0,0.0,0.0,0.0,0.0,0.0,0.0,0.0,0.0,0.0,0.0,0.0,0.0,0.0,0.0,0.0,0.0,0.0,0.0,0.0,0.0,0.0,0.0,0.0,0.0,0.0,0.0,0.0,0.0,0.0,0.0,0.0,0.0,0.0,0.0,0.0,0.0,0.0,0.0,0.0,0.0,0.0,0.0,0.0,0.0,0.0,0.0,0.0,0.0,0.0,0.0,0.0,0.0,0.0,0.0,0.0,0.0,0.0,0.0,0.0,0.0,0.0,0.0,0.0,0.0,0.0,0.0,0.0,0.0,0.0,0.0,0.0,0.0,0.0,0.0,0.0,0.0,0.0,0.0,0.0,0.0,0.0,0.0,0.0,0.0,0.0,0.0,0.0,0.0,0.0,0.0,0.0,0.0,0.0,0.0,0.0,0.0,0.0,0.0,0.0,0.0,0.0,0.0,0.0,0.0,0.0,0.0,0.0,0.0,0.0,0.0,0.0,0.0,0.0,0.0,0.0,0.0,0.0,0.0,0.0,0.0,0.0,0.0,0.0,0.0,0.0,0.0,0.0,0.0,0.0,0.0,0.0,0.0,0.0,0.0,0.0,0.0,0.0,0.0,0.0,0.0,0.0,0.0,0.0,0.0,0.0,0.0,0.0,0.0,0.0,0.0,0.0,0.0,0.0,0.0,0.0,0.0,0.0,0.0,0.0,0.0,0.0,0.0,0.0,0.0,0.0,0.0,0.0,0.0,0.0,0.0,0.0,0.0,0.0,0.0,0.0,0.0,0.0,0.0,0.0,0.0,0.0,0.0,0.0,0.0,0.0,0.0,0.0,0.0,0.0,0.0,0.0,0.0,0.0,0.0,0.0,0.0,0.0,0.0,0.0,0.0,0.0,0.0,0.0,0.0,0.0,0.0,0.0,0.0,0.0,0.0,0.0,0.0,-0.1342,0.0,0.0,0.0,0.0,0.0,0.0,0.0,0.0,0.0,0.0,0.0,0.0,0.0,0.0,0.0,0.0,0.0,0.0,0.0,0.0,0.0,0.0,0.0,0.0,0.0,0.0,0.0,0.0,0.0,0.0,0.0,0.0,0.0,0.0,0.0,0.0,0.0,0.0,0.0,0.0,0.0,0.0,0.0,0.0,0.0,0.0,0.0,0.0,0.0,0.0,0.0,0.0,0.0,0.0,0.0,0.0,0.0,0.0,0.0,0.0,0.0,0.0,0.0,0.0,0.0,0.0,0.0,0.0,0.0,0.0,0.0,0.0,0.0,0.0,0.0,0.0,0.0,0.0,0.0,0.0,0.0,0.0,0.0,0.0,0.0,0.0,0.0,0.0,0.0,0.0,0.0,0.0,0.0,0.0,0.0,0.0,0.0,0.0,0.0,0.0,0.0,0.0,0.0,0.0,0.0,0.0,0.0,0.0,0.0,0.0,-0.0564,-0.1516,-0.109,-0.078,-0.0729,0.0,0.0,0.0,0.0,0.0,0.0,0.0,0.0,0.0,0.0,0.0,0.0,0.0,0.0,0.0,0.0,0.0,0.0,0.0,0.0,0.0,0.0,0.0,0.0,0.0,0.0,0.0,0.0,0.0,0.0,0.0,0.0,0.0,0.0,0.0,0.0,0.0,0.0,0.0,0.0,0.0,0.0,0.0,0.0,0.0,0.0,0.0,0.0,0.0,0.0,0.0,0.0,0.0,0.0,0.0,0.0,0.0,0.0,0.0,0.0,0.0,0.0,0.0,0.0,0.0,0.0,0.0,0.0,0.0,0.0,0.0,0.0,0.0,0.0,0.0,0.0,0.0,0.0,0.0,0.0,0.0,0.0,0.0,0.0,0.0,0.0,0.0,0.0,0.0,0.0,0.0,0.0,0.0,0.0,0.0,0.0,0.0,0.0,0.0,0.0,0.0,0.0,0.0,0.0,0.0,0.0,0.0,0.0,0.0,0.0,0.0,0.0,-0.0683,-0.0505,-0.0231,0.0,0.0,0.0,0.0,0.0,0.0,0.0,0.0,0.0,0.0,0.0,0.0,0.0,0.0,0.0,0.0,0.0,0.0,0.0,0.0,0.0,0.0,0.0,0.0,0.0,0.0,0.0,0.0,0.0,0.0,0.0,0.0,0.0,0.0,0.0,0.0,0.0,0.0,0.0,0.0,0.0,0.0,0.0,0.0,0.0,0.0,0.0,0.0,0.0,0.0,0.0,0.0,0.0,0.0,0.0,0.0,0.0,0.0,0.0,0.0,0.0,0.0,0.0,0.0,0.0,0.0,0.0,0.0,0.0,0.0,0.0,0.0,0.0,0.0,0.0,0.0,0.0,0.0,0.0,0.0,0.0,0.0,0.0,0.0,0.0,0.0,0.0,0.0,0.0,0.0,0.0,0.0,0.0,0.0,0.0,0.0,0.0,0.0,0.0,0.0,0.0,0.0,0.0,0.0,0.0,0.0,0.0,0.0,0.0,0.0,0.1386,0.1732,0.0331,0.0,-0.0019,0.0,0.0,0.0,0.0,0.0,0.0,0.0,0.0,0.0,0.0,0.0,0.0,0.0,0.0,0.0,0.0,0.0,0.0,0.0,0.0,0.0,0.0,0.0,0.0,0.0,0.0,0.0,0.0,0.0,0.0,0.0,0.0,0.0,0.0,0.0,0.0,0.0,0.0,0.0,0.0,0.0,0.0,0.0,0.0,0.0,0.0,0.0,0.0,0.0,0.0,0.0,0.0,0.0,0.0,0.0,0.0,0.0,0.0,0.0,0.0,0.0,0.0,0.0,0.0,0.0,0.0,0.0,0.0,0.0,0.0,0.0,0.0,0.0,0.0,0.0,0.0,0.0,0.0,0.0,0.0,0.0,0.0,0.0,0.0,0.0,0.0,0.0,0.0,0.0,0.0,0.0,0.0,0.0,0.0,0.0,0.0,0.0,0.0,0.0,0.0,0.0,0.0,0.0,0.0,0.0,0.0,0.0,0.0,0.0,0.0,0.0,0.0796,-0.0145,-0.0519,0.0,0.0,0.0,0.0,0.0,0.0,0.0,0.0,0.0,0.0,0.0,0.0,0.0,0.0,0.0,0.0,0.0,0.0,0.0,0.0,0.0,0.0,0.0,0.0,0.0,0.0,0.0,0.0,0.0,0.0,0.0,0.0,0.0,0.0,0.0,0.0,0.0,0.0,0.0,0.0,0.0,0.0,0.0,0.0,0.0,0.0,0.0,0.0,0.0,0.0,0.0,0.0,0.0,0.0,0.0,0.0,0.0,0.0,0.0,0.0,0.0,0.0,0.0,0.0,0.0,0.0,0.0,0.0,0.0,0.0,0.0,0.0,0.0,0.0,0.0,0.0,0.0,0.0,0.0,0.0,0.0,0.0,0.0,0.0,0.0,0.0,0.0,0.0,0.0,0.0,0.0,0.0,0.0,0.0,0.0,0.0,0.0,0.0,0.0,0.0,0.0,0.0,0.0,0.0,0.0,0.0,0.0,0.0,0.0,0.0,0.1345,0.0,-0.0399,-0.0705,-0.0786,-0.0671,0.0,0.0,0.0,0.0,0.0,0.0,0.0,0.0,0.0,0.0,0.0,0.0,0.0,0.0,0.0,0.0,0.0,0.0,0.0,0.0,0.0,0.0,0.0,0.0,0.0,0.0,0.0,0.0,0.0,0.0,0.0,0.0,0.0,0.0,0.0,0.0,0.0,0.0,0.0,0.0,0.0,0.0,0.0,0.0,0.0,0.0,0.0,0.0,0.0,0.0,0.0,0.0,0.0,0.0,0.0,0.0,0.0,0.0,0.0,0.0,0.0,0.0,0.0,0.0,0.0,0.0,0.0,0.0,0.0,0.0,0.0,0.0,0.0,0.0,0.0,0.0,0.0,0.0,0.0,0.0,0.0,0.0,0.0,0.0,0.0,0.0,0.0,0.0,0.0,0.0,0.0,0.0,0.0,0.0,0.0,0.0,0.0,0.0,0.0,0.0,0.0,0.0,0.0,0.0,0.0,0.0,0.0,0.0,0.0,0.1316,0.0,-0.1235,-0.1047,-0.095,0.0,0.0,0.0,0.0,0.0,0.0,0.0,0.0,0.0,0.0,0.0,0.0,0.0,0.0,0.0,0.0,0.0,0.0,0.0,0.0,0.0,0.0,0.0,0.0,0.0,0.0,0.0,0.0,0.0,0.0,0.0,0.0,0.0,0.0,0.0,0.0,0.0,0.0,0.0,0.0,0.0,0.0,0.0,0.0,0.0,0.0,0.0,0.0,0.0,0.0,0.0,0.0,0.0,0.0,0.0,0.0,0.0,0.0,0.0,0.0,0.0,0.0,0.0,0.0,0.0,0.0,0.0,0.0,0.0,0.0,0.0,0.0,0.0,0.0,0.0,0.0,0.0,0.0,0.0,0.0,0.0,0.0,0.0,0.0,0.0,0.0,0.0,0.0,0.0,0.0,0.0,0.0,0.0,0.0,0.0,0.0,0.0,0.0,0.0,0.0,0.0,0.0,0.0,0.0,0.0,0.0,0.0,0.0,0.0,0.2018,0.0846,-0.0061,-0.0599,-0.0739,-0.0786,0.0,0.0,0.0,0.0,0.0,0.0,0.0,0.0,0.0,0.0,0.0,0.0,0.0,0.0,0.0,0.0,0.0,0.0,0.0,0.0,0.0,0.0,0.0,0.0,0.0,0.0,0.0,0.0,0.0,0.0,0.0,0.0,0.0,0.0,0.0,0.0,0.0,0.0,0.0,0.0,0.0,0.0,0.0,0.0,0.0,0.0,0.0,0.0,0.0,0.0,0.0,0.0,0.0,0.0,0.0,0.0,0.0,0.0,0.0,0.0,0.0,0.0,0.0,0.0,0.0,0.0,0.0,0.0,0.0,0.0,0.0,0.0,0.0,0.0,0.0,0.0,0.0,0.0,0.0,0.0,0.0,0.0,0.0,0.0,0.0,0.0,0.0,0.0,0.0,0.0,0.0,0.0,0.0,0.0,0.0,0.0,0.0,0.0,0.0,0.0,0.0,0.0,0.0,0.0,0.0,0.0,0.0,0.0,0.0,0.1221,0.0,0.0,0.0,-0.0516,-0.0677,0.0,0.0,0.0,0.0,0.0,0.0,0.0,0.0,0.0,0.0,0.0,0.0,0.0,0.0,0.0,0.0,0.0,0.0,0.0,0.0,0.0,0.0,0.0,0.0,0.0,0.0,0.0,0.0,0.0,0.0,0.0,0.0,0.0,0.0,0.0,0.0,0.0,0.0,0.0,0.0,0.0,0.0,0.0,0.0,0.0,0.0,0.0,0.0,0.0,0.0,0.0,0.0,0.0,0.0,0.0,0.0,0.0,0.0,0.0,0.0,0.0,0.0,0.0,0.0,0.0,0.0,0.0,0.0,0.0,0.0,0.0,0.0,0.0,0.0,0.0,0.0,0.0,0.0,0.0,0.0,0.0,0.0,0.0,0.0,0.0,0.0,0.0,0.0,0.0,0.0,0.0,0.0,0.0,0.0,0.0,0.0,0.0,0.0,0.0,0.0,0.0,0.0,0.0,0.0,0.0,0.0,0.0,0.0,0.1514,0.0264,0.0257,-0.0027,-0.0405,-0.0539,-0.0694,0.0,0.0,0.0,0.0,0.0,0.0,0.0,0.0,0.0,0.0,0.0,0.0,0.0,0.0,0.0,0.0,0.0,0.0,0.0,0.0,0.0,0.0,0.0,0.0,0.0,0.0,0.0,0.0,0.0,0.0,0.0,0.0,0.0,0.0,0.0,0.0,0.0,0.0,0.0,0.0,0.0,0.0,0.0,0.0,0.0,0.0,0.0,0.0,0.0,0.0,0.0,0.0,0.0,0.0,0.0,0.0,0.0,0.0,0.0,0.0,0.0,0.0,0.0,0.0,0.0,0.0,0.0,0.0,0.0,0.0,0.0,0.0,0.0,0.0,0.0,0.0,0.0,0.0,0.0,0.0,0.0,0.0,0.0,0.0,0.0,0.0,0.0,0.0,0.0,0.0,0.0,0.0,0.0,0.0,0.0,0.0,0.0,0.0,0.0,0.0,0.0,0.0,0.0,0.0,0.0,0.0,0.0,0.0,0.0,-0.082,-0.1708,-0.2064,-0.1871,-0.1809,-0.1679,0.0,0.0,0.0,0.0,0.0,0.0,0.0,0.0,0.0,0.0,0.0,0.0,0.0,0.0,0.0,0.0,0.0,0.0,0.0,0.0,0.0,0.0,0.0,0.0,0.0,0.0,0.0,0.0,0.0,0.0,0.0,0.0,0.0,0.0,0.0,0.0,0.0,0.0,0.0,0.0,0.0,0.0,0.0,0.0,0.0,0.0,0.0,0.0,0.0,0.0,0.0,0.0,0.0,0.0,0.0,0.0,0.0,0.0,0.0,0.0,0.0,0.0,0.0,0.0,0.0,0.0,0.0,0.0,0.0,0.0,0.0,0.0,0.0,0.0,0.0,0.0,0.0,0.0,0.0,0.0,0.0,0.0,0.0,0.0,0.0,0.0,0.0,0.0,0.0,0.0,0.0,0.0,0.0,0.0,0.0,0.0,0.0,0.0,0.0,0.0,0.0,0.0,0.0,0.0,0.0,0.0,0.0,0.0,0.0,-0.2627,-0.3366,-0.3656,-0.3453,-0.3043,-0.2553,-0.2017,0.0,0.0,0.0,0.0,0.0,0.0,0.0,0.0,0.0,0.0,0.0,0.0,0.0,0.0,0.0,0.0,0.0,0.0,0.0,0.0,0.0,0.0,0.0,0.0,0.0,0.0,0.0,0.0,0.0,0.0,0.0,0.0,0.0,0.0,0.0,0.0,0.0,0.0,0.0,0.0,0.0,0.0,0.0,0.0,0.0,0.0,0.0,0.0,0.0,0.0,0.0,0.0,0.0,0.0,0.0,0.0,0.0,0.0,0.0,0.0,0.0,0.0,0.0,0.0,0.0,0.0,0.0,0.0,0.0,0.0,0.0,0.0,0.0,0.0,0.0,0.0,0.0,0.0,0.0,0.0,0.0,0.0,0.0,0.0,0.0,0.0,0.0,0.0,0.0,0.0,0.0,0.0,0.0,0.0,0.0,0.0,0.0,0.0,0.0,0.0,0.0,0.0,0.0,0.0,0.0,0.0,0.0,0.0,-0.494,-0.4909,-0.4995,-0.5195,-0.4227,-0.3389,0.0,0.0,0.0,0.0,0.0,0.0,0.0,0.0,0.0,0.0,0.0,0.0,0.0,0.0,0.0,0.0,0.0,0.0,0.0,0.0,0.0,0.0,0.0,0.0,0.0,0.0,0.0,0.0,0.0,0.0,0.0,0.0,0.0,0.0,0.0,0.0,0.0,0.0,0.0,0.0,0.0,0.0,0.0,0.0,0.0,0.0,0.0,0.0,0.0,0.0,0.0,0.0,0.0,0.0,0.0,0.0,0.0,0.0,0.0,0.0,0.0,0.0,0.0,0.0,0.0,0.0,0.0,0.0,0.0,0.0,0.0,0.0,0.0,0.0,0.0,0.0,0.0,0.0,0.0,0.0,0.0,0.0,0.0,0.0,0.0,0.0,0.0,0.0,0.0,0.0,0.0,0.0,0.0,0.0,0.0,0.0,0.0,0.0,0.0,0.0,0.0,0.0,0.0,0.0,0.0,0.0,0.0,0.0,0.0,-0.5842,-0.8162,-0.88,-0.7628,-0.6513,-0.5444,0.0,0.0,0.0,0.0,0.0,0.0,0.0,0.0,0.0,0.0,0.0,0.0,0.0,0.0,0.0,0.0,0.0,0.0,0.0,0.0,0.0,0.0,0.0,0.0,0.0,0.0,0.0,0.0,0.0,0.0,0.0,0.0,0.0,0.0,0.0,0.0,0.0,0.0,0.0,0.0,0.0,0.0,0.0,0.0,0.0,0.0,0.0,0.0,0.0,0.0,0.0,0.0,0.0,0.0,0.0,0.0,0.0,0.0,0.0,0.0,0.0,0.0,0.0,0.0,0.0,0.0,0.0,0.0,0.0,0.0,0.0,0.0,0.0,0.0,0.0,0.0,0.0,0.0,0.0,0.0,0.0,0.0,0.0,0.0,0.0,0.0,0.0,0.0,0.0,0.0,0.0,0.0,0.0,0.0,0.0,0.0,0.0,0.0,0.0,0.0,0.0,0.0,0.0,0.0,0.0,0.0,0.0,0.0,-0.5631,-0.8187,-1.1008,-1.1966,-1.0906,-0.9015,-0.7195,0.0,0.0,0.0,0.0,0.0,0.0,0.0,0.0,0.0,0.0,0.0,0.0,0.0,0.0,0.0,0.0,0.0,0.0,0.0,0.0,0.0,0.0,0.0,0.0,0.0,0.0,0.0,0.0,0.0,0.0,0.0,0.0,0.0,0.0,0.0,0.0,0.0,0.0,0.0,0.0,0.0,0.0,0.0,0.0,0.0,0.0,0.0,0.0,0.0,0.0,0.0,0.0,0.0,0.0,0.0,0.0,0.0,0.0,0.0,0.0,0.0,0.0,0.0,0.0,0.0,0.0,0.0,0.0,0.0,0.0,0.0,0.0,0.0,0.0,0.0,0.0,0.0,0.0,0.0,0.0,0.0,0.0,0.0,0.0,0.0,0.0,0.0,0.0,0.0,0.0,0.0,0.0,0.0,0.0,0.0,0.0,0.0,0.0,0.0,0.0,0.0,0.0,0.0,0.0,0.0,0.0,0.0,0.0,-0.7093,-1.1109,-1.3318,-1.4372,-1.4092,-1.1467,-0.8818,0.0,0.0,0.0,0.0,0.0,0.0,0.0,0.0,0.0,0.0,0.0,0.0,0.0,0.0,0.0,0.0,0.0,0.0,0.0,0.0,0.0,0.0,0.0,0.0,0.0,0.0,0.0,0.0,0.0,0.0,0.0,0.0,0.0,0.0,0.0,0.0,0.0,0.0,0.0,0.0,0.0,0.0,0.0,0.0,0.0,0.0,0.0,0.0,0.0,0.0,0.0,0.0,0.0,0.0,0.0,0.0,0.0,0.0,0.0,0.0,0.0,0.0,0.0,0.0,0.0,0.0,0.0,0.0,0.0,0.0,0.0,0.0,0.0,0.0,0.0,0.0,0.0,0.0,0.0,0.0,0.0,0.0,0.0,0.0,0.0,0.0,0.0,0.0,0.0,0.0,0.0,0.0,0.0,0.0,0.0,0.0,0.0,0.0,0.0,0.0,0.0,0.0,0.0,0.0,0.0,0.0,0.0,0.0,-0.8174,-1.2246,-1.3987,-1.4817,-1.4638,-1.2768,-1.0467,0.0,0.0,0.0,0.0,0.0,0.0,0.0,0.0,0.0,0.0,0.0,0.0,0.0,0.0,0.0,0.0,0.0,0.0,0.0,0.0,0.0,0.0,0.0,0.0,0.0,0.0,0.0,0.0,0.0,0.0,0.0,0.0,0.0,0.0,0.0,0.0,0.0,0.0,0.0,0.0,0.0,0.0,0.0,0.0,0.0,0.0,0.0,0.0,0.9179,0.0,0.0,0.0,0.0,0.0,0.0,0.0,0.0,0.0,0.0,0.0,0.0,0.0,0.0,0.0,0.0,0.0,0.0,0.0,0.0,0.0,0.0,0.0,0.0,0.0,0.0,0.0,0.0,0.0,0.0,0.0,0.0,0.0,0.0,0.0,0.0,0.0,0.0,0.0,0.0,0.0,0.0,0.0,0.0,0.0,0.0,0.0,0.0,0.0,0.0,0.0,0.0,0.0,0.0,0.0,0.0,0.0,0.0,0.0,-0.937,-1.4419,-1.5557,-1.6033,-1.5868,-1.4924,-1.2626,0.0,0.0,0.0,0.0,0.0,0.0,0.0,0.0,0.0,0.0,0.0,0.0,0.0,0.0,0.0,0.0,0.0,0.0,0.0,0.0,0.0,0.0,0.0,0.0,0.0,0.0,0.0,0.0,0.0,0.0,0.0,0.0,0.0,0.0,0.0,0.0,0.0,0.0,0.0,0.0,0.0,0.0,0.0,0.0,0.0,0.0,0.0,0.0,0.0,0.0,0.0,0.0,0.0,0.0,0.0,0.0,0.0,0.0,0.0,0.0,0.0,0.0,0.0,0.0,0.0,0.0,0.0,0.0,0.0,0.0,0.0,0.0,0.0,0.0,0.0,0.0,0.0,0.0,0.0,0.0,0.0,0.0,0.0,0.0,0.0,0.0,0.0,0.0,0.0,0.0,0.0,0.0,0.0,0.0,0.0,0.0,0.0,0.0,0.0,0.0,0.0,0.0,0.0,0.0,0.0,0.0,0.0,-0.6118,-1.0697,-1.6743,-1.7255,-1.7349,-1.7364,-1.7039,-1.4707,-1.0135,0.0,0.0,0.0,0.0,0.0,0.0,0.0,0.0,0.0,0.0,0.0,0.0,0.0,0.0,0.0,0.0,0.0,0.0,0.0,0.0,0.0,0.0,0.0,0.0,0.0,0.0,0.0,0.0,0.0,0.0,0.0,0.0,0.0,0.0,0.0,0.0,0.0,0.0,0.7281,0.4112,0.0,0.0,0.0,0.0,0.0,0.0,0.0,0.0,0.6121,0.0,0.0,0.0,0.0,0.0,0.0,0.0,0.0,0.0,0.0,0.0,0.0,0.0,0.0,0.0,0.0,0.0,0.0,0.0,0.0,0.0,0.0,0.0,0.0,0.0,0.0,0.0,0.0,0.0,0.0,0.0,0.0,0.0,0.0,0.0,0.0,0.0,0.0,0.0,0.0,0.0,0.0,0.0,0.0,0.0,0.0,0.0,0.0,0.0,0.0,0.0,0.0,0.0,0.0,0.0,0.0,-0.372,-0.7367,-1.2124,-1.7945,-1.7815,-1.7951,-1.8557,-1.7684,-1.5511,-1.2038,0.0,0.0,0.0,0.0,0.0,0.0,0.0,0.0,0.0,0.0,0.0,0.0,0.0,0.0,0.0,0.0,0.0,0.0,0.0,0.0,0.0,0.0,0.0,0.0,0.0,0.0,0.0,0.0,0.0,0.0,0.0,0.0,0.0,0.0,0.0,0.0,0.0,0.0,0.0,0.037,-0.148,0.0,0.0,0.0,0.0,0.0,0.0,0.0,0.0,0.2665,0.0,0.0,0.0,0.0,0.0,0.0,0.0,0.0,0.0,0.0,0.0,0.0,0.0,0.0,0.0,0.0,0.0,0.0,0.0,0.0,0.0,0.0,0.0,0.0,0.0,0.0,0.0,0.0,0.0,0.0,0.0,0.0,0.0,0.0,0.0,0.0,0.0,0.0,0.0,0.0,0.0,0.0,0.0,0.0,0.0,0.0,0.0,0.0,0.0,0.0,0.0,0.0,0.0,0.0,0.0,-0.4285,-0.8459,-1.3178,-1.8327,-1.8285,-1.8345,-1.8701,-1.7285,-1.5035,0.0,0.0,0.0,0.0,0.0,0.0,0.0,0.0,0.0,0.0,0.0,0.0,0.0,0.0,0.0,0.0,0.0,0.0,0.0,0.0,0.0,0.0,0.0,0.0,0.0,0.0,0.0,0.0,0.0,0.0,0.0,0.0,0.0,0.0,0.0,0.0,0.0,0.0,0.0,0.0,0.0073,-0.1882,-0.265,0.0,0.0,0.0,0.0,0.0,0.0,-0.3417,-0.2792,0.0,0.0,0.0,0.0,0.0,0.0,0.0,0.0,0.0,0.0,0.0,0.0,0.0,0.0,0.0,0.0,0.0,0.0,0.0,0.0,0.0,0.0,0.0,0.0,0.0,0.0,0.0,0.0,0.0,0.0,0.0,0.0,0.0,0.0,0.0,0.0,0.0,0.0,0.0,0.0,0.0,0.0,0.0,0.0,0.0,0.0,0.0,0.0,0.0,0.0,0.0,0.0,0.0,0.0,0.0,-0.5187,-0.9634,-1.4107,-1.8532,-1.8724,-1.8787,-1.8926,-1.7366,-1.4981,0.0,0.0,0.0,0.0,0.0,0.0,0.0,0.0,0.0,0.0,0.0,0.0,0.0,0.0,0.0,0.0,0.0,0.0,0.0,0.0,0.0,0.0,0.0,0.0,0.0,0.0,0.0,0.0,0.0,0.0,0.0,0.0,0.0,0.0,0.0,0.0,0.0,0.0,0.0,0.0,0.0,-0.1831,-0.2034,-0.5147,0.0,0.0,0.0,0.0,-0.6924,-0.839,0.0,0.0,0.0,0.0,0.0,0.0,0.0,0.0,0.0,0.0,0.0,0.0,0.0,0.0,0.0,0.0,0.0,0.0,0.0,0.0,0.0,0.0,0.0,0.0,0.0,0.0,0.0,0.0,0.0,0.0,0.0,0.0,0.0,0.0,0.0,0.0,0.0,0.0,0.0,0.0,0.0,0.0,0.0,0.0,0.0,0.0,0.0,0.0,0.0,0.0,0.0,0.0,0.0,0.0,0.0,0.0,-0.6874,-1.1056,-1.5081,-1.8816,-1.9042,-1.9389,-2.0166,-1.9285,-1.6855,0.0,0.0,0.0,0.0,0.0,0.0,0.0,0.0,0.0,0.0,0.0,0.0,0.0,0.0,0.0,0.0,0.0,0.0,0.0,0.0,0.0,0.0,0.0,0.0,0.0,0.0,0.0,0.0,0.0,0.0,0.0,0.0,0.0,0.0,0.0,0.0,0.0,0.0,0.0,0.0,0.0,-0.2391,-0.3325,-0.6649,-0.9941,0.0,0.0,-1.0271,-0.8361,-1.1672,0.0,0.0,0.0,0.0,0.0,0.0,0.0,0.0,0.0,0.0,0.0,0.0,0.0,0.0,0.0,0.0,0.0,0.0,0.0,0.0,0.0,0.0,0.0,0.0,0.0,0.0,0.0,0.0,0.0,0.0,0.0,0.0,0.0,0.0,0.0,0.0,0.0,0.0,0.0,0.0,0.0,0.0,0.0,0.0,0.0,0.0,0.0,0.0,0.0,0.0,0.0,0.0,0.0,0.0,0.0,-0.3983,-0.7561,-1.2558,-1.6644,-1.9629,-2.0067,-2.0261,-2.031,-1.8959,-1.6473,0.0,0.0,0.0,0.0,0.0,0.0,0.0,0.0,0.0,0.0,0.0,0.0,0.0,0.0,0.0,0.0,0.0,0.0,0.0,0.0,0.0,0.0,0.0,0.0,0.0,0.0,0.0,0.0,0.0,0.0,0.0,0.0,0.0,0.0,0.0,0.0,0.0,0.0,0.0,0.0,0.0,0.0,-0.1998,-0.8286,0.0,0.0,0.0,-1.4881,-1.3748,0.0,0.0,0.0,0.0,0.0,0.0,0.0,0.0,0.0,0.0,0.0,0.0,0.0,0.0,0.0,0.0,0.0,0.0,0.0,0.0,0.0,0.0,0.0,0.0,0.0,0.0,0.0,0.0,0.0,0.0,0.0,0.0,0.0,0.0,0.0,0.0,0.0,0.0,0.0,0.0,0.0,0.0,0.0,0.0,0.0,0.0,0.0,0.0,0.0,0.0,0.0,0.0,0.0,0.0,0.0,0.0,0.0,-0.8376,-1.3994,-1.798,-2.0209,-2.0975,-2.1042,-2.0443,-1.9144,0.0,0.0,0.0,0.0,0.0,0.0,0.0,0.0,0.0,0.0,0.0,0.0,0.0,0.0,0.0,0.0,0.0,0.0,0.0,0.0,0.0,0.0,0.0,0.0,0.0,0.0,0.0,0.1403,0.0,0.0,0.0,0.0,0.0,0.0,0.0,0.0,0.0,0.0,0.0,0.0,0.0,0.0,-0.3973,-0.2663,-1.0648,-1.7051,0.0,0.0,-1.8671,-1.8128,-1.8817,-1.8068,0.0,0.0,0.0,0.0,0.0,0.0,0.0,0.0,0.0,0.0,0.0,0.0,0.0,0.0,0.0,0.0,0.0,0.0,0.0,0.0,0.0,0.0,0.0,0.0,0.0,0.0,0.0,0.0,0.0,0.0,0.0,0.0,0.0,0.0,0.0,0.0,0.0,0.0,0.0,0.0,0.0,0.0,0.0,0.0,0.0,0.0,0.0,0.0,0.0,0.0,0.0,0.0,0.0,0.0,0.0,-0.9876,-1.5147,-1.8745,-2.0437,-2.152,-2.1732,-2.1146,-2.1003,-1.8607,0.0,0.0,0.0,0.0,0.0,0.0,0.0,0.0,0.0,0.0,0.0,0.0,0.0,0.0,0.0,0.0,0.0,0.0,0.0,0.0,0.0,0.0,0.0,0.0,0.0,0.0,0.0,0.0,0.0,0.0,0.0,0.0,0.0,0.0,0.0,0.0,0.0,0.0,0.0,0.0,0.0,-0.6378,-0.776,-1.412,-1.8881,0.0,0.0,-2.0086,-1.93,-2.0733,-2.0433,-1.603,0.0,0.0,0.0,0.0,0.0,0.0,0.0,0.0,0.0,0.0,0.0,0.0,0.0,0.0,0.0,0.0,0.0,0.0,0.0,0.0,0.0,0.0,0.0,0.0,0.0,0.0,0.0,0.0,0.0,0.0,0.0,0.0,0.0,0.0,0.0,0.0,0.0,0.0,0.0,0.0,0.0,0.0,0.0,0.0,0.0,0.0,0.0,0.0,0.0,0.0,0.0,0.0,0.0,-0.6904,-1.0499,-1.6084,-1.9619,-2.0926,-2.2419,-2.2932,-2.2319,-2.1824,-1.9614,0.0,0.0,0.0,0.0,0.0,0.0,0.0,0.0,0.0,0.0,0.0,0.0,0.0,0.0,0.0,0.0,0.0,0.0,0.0,0.0,0.0,0.0,0.0,0.0,0.0,0.0,0.0,0.0,0.1651,0.0814,-0.0216,0.0,0.0,0.0,0.0,0.0,0.0,0.0,0.0,0.0,0.0,-0.9046,-0.7654,-1.3973,0.0,0.0,-1.9227,-1.9197,-1.929,-1.9781,-1.9289,-1.6654,-1.4962,0.0,0.0,0.0,0.0,0.0,0.0,0.0,0.0,0.0,0.0,0.0,0.0,0.0,0.0,0.0,0.0,0.0,0.0,0.0,0.0,0.0,0.0,0.0,0.0,0.0,0.0,0.0,0.0,0.0,0.0,0.0,0.0,0.0,0.0,0.0,0.0,0.0,0.0,0.0,0.0,0.0,0.0,0.0,0.0,0.0,0.0,0.0,0.0,0.0,0.0,0.0,0.0,-0.7798,-1.1253,-1.6905,-2.0396,-2.155,-2.3194,-2.375,-2.3128,-2.2372,-2.0469,0.0,0.0,0.0,0.0,0.0,0.0,0.0,0.0,0.0,0.0,0.0,0.0,0.0,0.0,0.0,0.0,0.0,0.0,0.0,0.0,0.0,0.0,0.0,0.0,0.0,0.0,0.0,0.0,0.1123,0.0435,0.0775,0.0,0.0,0.0,0.0,0.0,0.0,0.0,0.0,0.0,0.0,-1.1444,-0.9122,-1.4483,-1.8826,-1.8869,-1.8731,-1.8832,-1.9506,-1.9159,-1.8293,-1.6819,0.0,0.0,0.0,0.0,0.0,0.0,0.0,0.0,0.0,0.0,0.0,0.0,0.0,0.0,0.0,0.0,0.0,0.0,0.0,0.0,0.0,0.0,0.0,0.0,0.0,0.0,0.0,1.0117,0.0,0.0,0.9983,0.0,0.0,0.0,0.0,0.0,0.0,0.0,0.0,0.0,0.0,0.0,0.0,0.0,0.0,0.0,0.0,0.0,0.0,0.0,0.0,0.0,0.0,-0.8182,-1.2357,-1.7653,-2.1013,-2.2324,-2.3695,-2.4064,-2.3416,-2.2747,-2.1252,-1.8782,0.0,0.0,0.0,0.0,0.0,0.0,0.0,0.0,0.0,0.0,0.0,0.0,0.0,0.0,0.0,0.0,0.0,0.0,0.0,0.0,0.0,0.0,0.0,0.0,0.0,0.0,0.2386,-0.0019,-0.1082,0.0,0.0,0.0,0.0,0.0,0.0,0.0,0.0,0.0,0.0,-1.1812,-1.3519,-1.3299,-1.6319,-1.8498,-1.8157,-1.8769,-1.9504,-2.0208,-1.931,-1.7998,0.0,0.0,0.0,0.0,0.0,0.0,0.0,0.0,0.0,0.0,0.0,0.0,0.0,0.0,0.0,0.0,0.0,0.0,0.0,0.0,0.0,0.0,0.0,0.0,0.0,0.0,0.0,0.2894,0.3374,0.0,0.0,0.0,0.0,0.0,0.0,0.0,0.0,0.0,0.0,0.0,-0.4455,-0.6077,0.0,0.0,0.0,0.0,0.0,0.0,0.0,0.0,0.0,0.0,0.0,0.0,-0.9387,-1.3467,-1.8161,-2.1065,-2.206,-2.3676,-2.4448,-2.4257,-2.3823,-2.2158,-1.9096,0.0,0.0,0.0,0.0,0.0,0.0,0.0,0.0,0.0,0.0,0.0,0.0,0.0,0.0,0.0,0.0,0.0,0.0,0.0,0.0,0.0,0.0,0.0,0.0,0.0,0.1854,0.0,0.0,0.0,0.0,0.0,0.0,0.0,0.0,0.0,0.0,0.0,-0.944,-1.4357,-1.5708,-1.6359,-1.6715,-1.7722,-1.8263,0.0,0.0,0.0,0.0,0.0,0.0,0.0,0.0,0.0,0.0,0.0,0.0,0.0,0.0,-1.3758,-1.1962,-1.1086,-1.0626,-1.0631,0.0,0.0,0.0,0.0,0.0,0.0,0.0,0.0,0.0,0.0,0.0,0.0,0.0,0.0,-0.1623,0.0,-0.1357,0.0,0.0,0.0,0.0,0.0,0.0,0.0,0.0,-0.3936,-0.6793,-0.8434,-0.9996,-1.1085,0.0,-1.0014,-0.7797,0.0,0.0,0.0,0.0,0.0,0.0,0.0,0.0,-1.0976,-1.4754,-1.8778,-2.1348,-2.2428,-2.375,-2.4553,-2.4782,-2.4413,-2.2753,-1.9636,-1.7461,-1.5325,0.0,0.0,0.0,0.0,0.0,0.0,0.0,0.0,0.0,0.0,0.0,0.0,0.0,0.0,0.0,0.0,0.0,0.0,0.0,0.0,0.0,0.0,0.0,-0.0076,0.0,0.0,0.0,0.0,0.0,0.0,0.0,0.0,0.0,-0.7776,-0.9768,-1.2852,-1.7312,-1.7691,-1.7667,-1.8013,0.0,0.0,0.0,0.0,0.0,0.0,0.0,-1.9058,-1.8784,-1.8276,-1.7613,-1.6941,-1.717,-1.7313,-1.6922,0.0,0.0,-1.5161,-1.4376,-1.4123,-1.4149,-1.2793,-1.2092,-1.3457,-1.2943,-1.2663,0.0,0.0,0.0,0.0,0.0,0.0,0.0,0.0,-0.3362,-0.3797,0.0,-0.3539,0.0,0.0,0.0,0.0,0.0,0.1296,0.0,0.0,-0.5036,-0.6752,-1.2188,-1.0858,-1.1426,-1.3846,-1.3108,-1.2462,-1.178,-0.6726,0.0,0.0,0.0,0.0,0.0,0.0,-1.2936,-1.6271,-1.9462,-2.1849,-2.3293,-2.3815,-2.4364,-2.4973,-2.4483,-2.3027,-2.0641,-1.9415,-1.7491,-1.4698,-1.1958,0.0,0.0,0.0,0.0,0.0,0.0,0.0,0.0,0.0,0.0,0.0,0.0,0.0,0.0,0.0,0.0,0.0,0.0,0.0,0.0,-0.1929,0.0,0.0,0.0,0.0,0.0,0.0,0.0,0.0,0.0,0.0,-1.6194,-1.5398,-1.5331,-1.7828,0.0,0.0,0.0,0.0,-1.8656,-2.1519,-2.0896,-2.0572,-2.1949,-2.1005,-2.0346,-2.106,0.0,0.0,-1.8419,-1.901,-1.9405,-1.8762,-1.93,-1.9439,-1.7936,-1.7316,-1.7212,-1.7374,-1.6247,-1.5605,-1.6027,-1.5787,-1.554,-1.1926,0.0,0.0,0.0,0.0,-0.4099,-0.5428,-0.5951,-0.9773,-1.1251,-1.0953,-1.0891,0.0,0.0,0.0,0.0,0.0,0.0,-0.5427,-0.6681,-0.9276,-1.1433,-1.3007,-1.2809,-1.3273,-1.4338,-1.425,-1.3947,-1.3493,-1.2638,-0.9192,-0.354,0.0,0.0,0.0,0.0,-1.5845,-1.8291,-2.0214,-2.1634,-2.26,-2.3365,-2.4185,-2.5098,-2.4492,-2.3745,-2.2987,-2.0828,-1.8701,-1.6627,-1.2727,0.0,0.0,0.0,0.0,0.0,0.0,0.0,0.0,0.0,0.0,0.0,0.0,0.0,0.0,0.0,0.0,0.0,0.0,0.0,-0.4203,-0.4321,-0.4746,0.0,0.0,0.0,0.0,0.0,0.0,0.0,0.0,0.0,-1.733,-1.604,-1.5795,0.0,0.0,-1.8537,-1.6764,-1.8631,-2.0739,-2.2034,-2.185,0.0,-2.2133,-2.2179,-2.2003,-2.162,-2.1085,-2.0514,-2.0006,-2.0302,-2.0288,-1.9344,-1.986,-2.0034,-1.8717,-1.8725,-1.8754,-1.812,-1.7638,-1.7545,-1.7896,-1.7909,-1.7828,-1.4667,-1.1625,-1.024,-0.854,-0.703,-0.8972,-1.0141,-1.0875,-1.4057,-1.5311,-1.5107,-1.4865,-1.3484,-1.1285,-0.9337,0.0,0.0,0.0,-0.9695,-0.9776,-1.2782,-1.4158,-1.4117,-1.4108,-1.4371,-1.4766,-1.4488,-1.4246,-1.4049,-1.4598,-1.3152,-0.9891,0.0,0.0,-1.1508,-1.5282,-1.8062,-1.9718,-2.0827,-2.1597,-2.2079,-2.3048,-2.3931,-2.4638,-2.4138,-2.3458,-2.2685,-2.0483,-1.8009,-1.5206,-1.1068,-0.836,0.0,0.0,0.0,0.0,0.0,0.0,0.0,0.0,0.0,0.0,0.0,-0.0294,0.0,0.0,0.0,0.0,-0.5283,-0.753,-0.7094,-0.7289,0.0,0.0,0.0,0.0,0.0,0.0,0.0,-1.2329,-1.4745,-1.7011,-1.8398,-1.8328,-1.8529,-1.953,-1.996,-1.9804,-1.8711,0.0,-2.1879,-2.2915,-2.2886,-2.2786,-2.2992,-2.3332,-2.3178,-2.2152,-2.1997,-2.1757,-2.1179,-2.1149,-2.0913,-2.0429,-2.0671,-2.0709,-1.9601,-2.0161,-2.0459,-1.9363,-1.9139,-1.922,-1.9418,-1.9446,-1.9404,-1.6328,-1.588,-1.4395,-1.4642,-1.5957,-1.525,-1.5679,-1.691,-1.644,-1.6697,-1.728,-1.6237,-1.5315,-1.4401,-1.184,0.0,-1.3097,-1.2695,-1.3472,-1.5329,-1.5102,-1.5174,-1.5412,-1.4895,-1.4941,-1.537,-1.4393,-1.4015,-1.4244,-1.4272,-1.4743,-1.5655,-1.5999,-1.5357,-1.4082,-1.7577,-1.9895,-2.079,-2.1325,-2.1526,-2.1345,-2.2256,-2.2836,-2.2949,-2.2577,-2.1553,-2.0058,-1.8444,-1.5742,-1.1719,-0.786,-0.5676,-0.5399,0.0,0.0,0.0,0.0,0.0,0.0,0.0,0.0,0.0,0.0,0.0,0.0,0.0,0.0,0.0,-0.8382,0.0,-1.0511,-1.0347,0.0,0.0,0.0,-1.0915,-1.1865,-1.4123,-1.5647,-1.5796,0.0,0.0,-2.0213,-2.2041,-2.27,-2.1375,-2.1184,-2.1355,-2.2019,-2.21,-2.2692,-2.4317,-2.4085,-2.3915,-2.4287,-2.441,-2.4028,-2.2934,-2.3052,-2.3053,-2.2146,-2.1819,-2.1623,-2.152,-2.165,-2.1547,-2.0881,-2.1594,-2.2041,-2.1102,-2.074,-2.0599,-2.0543,-2.0557,-2.05,-1.5716,-1.5401,-1.4266,-1.4562,-1.5708,-1.5499,-1.5864,-1.6609,-1.6846,-1.7338,-1.7865,-1.7305,-1.6532,-1.557,-1.4117,-1.3671,-1.4012,-1.2846,-1.2913,-1.3907,-1.3629,-1.3941,-1.4809,-1.5316,-1.578,-1.618,-1.6342,-1.6586,-1.6954,-1.7655,-1.8569,-1.9651,-2.1116,-2.0862,-1.9081,-2.1374,-2.2518,-2.2362,-2.1841,-2.0469,-1.8165,-1.6916,-1.5938,-1.5287,-1.3958,-1.3574,-1.4169,-1.313,-1.2106,-1.1154,-0.6463,-0.3218,-0.1964,0.0563,0.0,0.0,0.0,0.0,0.0,0.0,0.0,0.0,0.0,-0.2894,-0.3955,0.0,-0.5771,0.0,-0.9438,-1.2216,-1.1572,-1.0887,0.0,0.0,-1.2432,-1.335,-1.5867,-1.6923,-1.7491,-1.756,-1.8403,-2.0837,-2.5702,-2.6001,-2.5783,-2.5712,-2.4522,-2.3357,-2.2501,-2.4177,-2.5644,-2.5998,-2.5905,-2.5679,-2.5379,-2.5379,-2.5129,-2.4373,-2.4462,-2.4237,-2.3186,-2.3054,-2.2995,-2.2754,-2.2709,-2.2618,-2.2388,-2.2603,-2.2831,-2.279,-2.196,-2.1268,-2.1542,-2.1628,-2.1499,-1.5358,-1.504,-1.492,-1.5263,-1.5833,-1.4925,-1.508,-1.6031,-1.6657,-1.7279,-1.7821,-1.7302,-1.6613,-1.5763,-1.44,-1.3749,-1.3682,-1.2586,-1.264,-1.3468,-1.3288,-1.3998,-1.5437,-1.588,-1.6519,-1.7352,-1.7642,-1.8016,-1.863,-1.9505,-2.0491,-2.1652,-2.3287,-2.3718,-2.2993,-2.3793,-2.3928,-2.3278,-2.1081,-1.8699,-1.612,-1.3656,-1.1531,-0.9768,-0.89,-0.8665,-0.9149,-0.8882,-0.8422,-0.7684,-0.4277,-0.0987,0.1851,0.1212,-0.2852,0.0,0.0,0.0,0.0,0.0,0.0,0.0,0.0,0.0,0.0,0.0,-0.9477,-0.9684,-1.3572,-1.5337,-1.3521,-1.3739,-1.4292,-1.504,-1.5339,-1.6377,-1.8554,-1.939,-1.9712,-1.9486,-2.022,-2.2637,-2.7618,-2.7829,-2.7426,-2.7302,-2.6534,-2.5569,-2.4653,-2.5842,-2.7055,-2.7515,-2.705,-2.6479,-2.6086,-2.6534,-2.6505,-2.5425,-2.5213,-2.4987,-2.4205,-2.4146,-2.4115,-2.3885,-2.3931,-2.3965,-2.3591,-2.3699,-2.394,-2.3971,-2.3216,-2.2542,-2.2672,-2.2542,-2.2323,-1.5139,-1.4872,-1.5688,-1.5964,-1.5779,-1.4133,-1.4307,-1.5877,-1.6678,-1.744,-1.8118,-1.7349,-1.6625,-1.5892,-1.394,-1.2963,-1.2848,-1.1952,-1.2145,-1.3243,-1.3364,-1.4523,-1.6455,-1.6667,-1.7456,-1.8672,-1.887,-1.9319,-2.0028,-2.0939,-2.1942,-2.2994,-2.4298,-2.5288,-2.5863,-2.5431,-2.4734,-2.3732,-2.0199,-1.7266,-1.5019,-1.2102,-0.9163,-0.6328,-0.6102,-0.5859,-0.5408,-0.5871,-0.5519,-0.4077,-0.2662,0.0263,0.4779,0.0316,-0.6695,0.0,-1.3479,0.0,0.0,0.0,0.0,0.0,0.0,0.0,0.0,-1.2267,-1.3482,-1.5237,-1.8329,-1.8981,-1.5952,-1.7332,-1.8166,-1.769,-1.8465,-1.9456,-2.0455,-2.1592,-2.2074,-2.1578,-2.2286,-2.4253,-2.7789,-2.8396,-2.8168,-2.7705,-2.7825,-2.7651,-2.7152,-2.7221,-2.7769,-2.8701,-2.7735,-2.6976,-2.6856,-2.7642,-2.7682,-2.6163,-2.5845,-2.5612,-2.5085,-2.4963,-2.4963,-2.4926,-2.5162,-2.5198,-2.4502,-2.4815,-2.5137,-2.5062,-2.4462,-2.3925,-2.3672,-2.3216,-2.2918,-1.4716,-1.4742,-1.4885,-1.4698,-1.4197,-1.44,-1.5921,-1.8275,-1.9303,-2.0274,-2.1091,-2.0055,-1.8862,-1.7509,-1.4523,-1.3155,-1.2923,-1.0516,-1.0296,-1.1912,-1.2583,-1.4141,-1.6395,-1.8,-1.9267,-2.0322,-2.1605,-2.2483,-2.293,-2.4487,-2.5497,-2.5997,-2.7002,-2.7368,-2.7079,0.0,0.0,0.0,-2.1669,-1.8968,-1.5521,-1.2844,-0.9855,-0.6562,-0.5091,0.0,-0.5032,-0.5403,-0.596,-0.6655,-0.5454,0.0,0.0,0.0,0.0,0.0,0.0,0.0,0.0,0.0,0.0,0.0,-1.5634,-1.5095,-1.4345,-1.5188,-1.6123,-1.6987,-1.8741,-1.9422,-1.8503,-1.8623,-1.8897,-1.9054,-2.0496,-2.1685,-2.2345,-2.3535,-2.4255,-2.4187,-2.4332,-2.5431,-2.7929,-2.8604,-2.8685,-2.8561,-2.9005,-2.9154,-2.8711,-2.8663,-2.8745,-2.8764,-2.8326,-2.8028,-2.8027,-2.8211,-2.7975,-2.6814,-2.679,-2.664,-2.5781,-2.5591,-2.5637,-2.5741,-2.6041,-2.6114,-2.5616,-2.5875,-2.6119,-2.5711,-2.5771,-2.5665,-2.4612,-2.3644,-2.2944,-1.5323,-1.5016,-1.5601,-1.573,0.0,-1.6741,-1.8575,-2.0866,-2.0682,-2.147,-2.2893,-2.1488,-1.9948,-1.8182,-1.5579,-1.4055,-1.3275,-1.1895,-1.2109,-1.3643,-1.4714,-1.6471,-1.8732,-2.01,-2.1246,-2.2145,-2.3477,-2.4311,-2.4788,-2.6179,-2.7162,-2.7718,-2.8401,-2.8645,-2.8456,-2.7665,-2.6036,-2.357,-2.1555,-1.901,-1.5915,-1.3052,-1.0008,-0.675,-0.6236,0.0,0.0,0.0,0.0,0.0,0.0,0.0,0.0,0.0,0.0,-2.1569,-1.9773,-1.8496,-1.8829,-1.8999,-1.9143,-1.9213,-1.9289,-1.851,-1.6637,-1.7149,-1.8026,-1.923,-2.0092,-2.0528,-2.0414,-2.0797,-2.1287,-2.1786,-2.2999,-2.3938,-2.4272,-2.5379,-2.6051,-2.6006,-2.6336,-2.7149,-2.8255,-2.8589,-2.8795,-2.9059,-2.9409,-2.981,-2.9908,-2.9677,-2.9289,-2.8873,-2.8556,-2.8396,-2.8411,-2.8411,-2.8255,-2.7695,-2.773,-2.7607,-2.7128,-2.6994,-2.7026,-2.699,-2.7073,-2.707,-2.6904,-2.7058,-2.7124,-2.6561,-2.6547,-2.65,-2.5723,-2.4737,-2.3934,-1.6202,-1.5771,-1.6564,-1.7166,-1.7774,-1.9013,-2.1019,-2.3436,0.0,0.0,0.0,-2.2587,-2.0798,-1.8846,-1.6914,-1.5355,-1.4272,-1.4172,-1.4798,-1.6081,-1.7549,-1.9333,-2.1327,-2.2363,-2.3283,-2.417,-2.5127,-2.5835,-2.6336,-2.7472,-2.8312,-2.8857,-2.9289,-2.9383,-2.9169,-2.7805,-2.5878,-2.3497,-2.1511,-1.9412,-1.7161,-1.4742,-1.1967,-0.8854,-0.9698,-0.9689,-0.8586,-0.8888,-0.9532,-1.0542,-1.0954,-1.1571,-1.2596,-1.3702,-1.7055,-2.2822,-2.2681,-2.2389,-2.2775,-2.2946,-2.2531,-2.1383,-2.1471,-2.0717,-1.8702,-1.8797,-1.9646,-2.1226,-2.1403,-2.1582,-2.2047,-2.3203,-2.4062,-2.4597,-2.5458,-2.6046,-2.6091,-2.6933,-2.7441,-2.7365,-2.7841,-2.8396,-2.8411,-2.8872,-2.9218,-2.9694,-3.0214,-3.0516,-3.1016,-3.0575,-2.9722,-2.9075,-2.8684,-2.8411,-2.8411,-2.8411,-2.8411,-2.8365,-2.8365,-2.8411,-2.8411,-2.8411,-2.8314,-2.7981,-2.7925,-2.783,-2.7875,-2.7913,-2.7875,-2.7357,-2.7113,-2.7037,-2.6919,-2.6202,-2.5463,-1.6954,-1.7179,-1.695,-1.7245,-1.7774,-1.9003,-2.1922,-2.5802,-2.6345,-2.6426,-2.6078,-2.4363,-2.2461,-2.0551,-1.8424,-1.7183,-1.6722,-1.5992,-1.6278,-1.7423,-1.9259,-2.0803,-2.2193,-2.4006,-2.5362,-2.6274,-2.7322,-2.7981,-2.8322,-2.9457,-3.0021,-2.9927,-3.0073,-2.9393,-2.7918,-2.6737,-2.5194,-2.3281,-2.3518,-2.2833,-2.1227,-2.1129,-1.9751,-1.7062,-1.7477,-1.7082,-1.5388,-1.5717,-1.5996,-1.6,-1.6703,-1.706,-1.6984,-1.8961,-2.1288,-2.3446,-2.3538,-2.3509,-2.3611,-2.3294,-2.2928,-2.2587,-2.2629,-2.2113,-2.0903,-2.0725,-2.1123,-2.1975,-2.1766,-2.2,-2.3472,-2.5285,-2.623,-2.6168,-2.7052,-2.774,-2.7727,-2.8,-2.8259,-2.8244,-2.8304,-2.8427,-2.8632,-2.9832,-3.0822,-3.1193,-3.1901,-3.2841,-3.263,-3.1591,-3.0333,-2.9467,-2.8779,-2.8444,-2.8521,-2.8411,-2.8411,-2.8411,-2.8411,-2.8444,-2.8411,-2.8411,-2.8348,-2.8186,-2.8039,-2.8039,-2.8088,-2.8186,-2.811,-2.7957,-2.7896,-2.7878,-2.7777,-2.7508,-2.7115,-1.7784,-1.7657,-1.7657,-1.7988,-1.869,-2.1632,-2.4518,-2.7186,-2.8888,-2.8585,-2.6828,-2.5094,-2.3326,-2.1687,-2.0477,-1.9883,-1.986,-1.9803,-2.0394,-2.1493,-2.2842,-2.3953,-2.4873,-2.5964,-2.6841,-2.7549,-2.8535,-2.9267,-2.9842,-3.1071,-3.1672,-3.1539,-3.0646,-2.9084,-2.6996,-2.5647,-2.4185,-2.2599,-2.314,-2.3064,-2.2325,-2.3212,-2.3145,-2.2106,-2.2771,-2.2535,-2.126,-2.0766,-2.0255,-1.9669,-1.943,-1.9456,-1.9756,-2.0733,-2.1883,-2.3212,-2.391,-2.4236,-2.4226,-2.3937,-2.3816,-2.3984,-2.3467,-2.3331,-2.3628,-2.2654,-2.2751,-2.4253,-2.3555,-2.3716,-2.5529,-2.6505,-2.7299,-2.8136,-2.8706,-2.8986,-2.9034,-2.9096,-2.9201,-2.9311,-2.939,-2.934,-2.9138,-3.0561,-3.189,-3.2496,-3.3355,-3.3738,-3.3697,-3.3093,-3.2176,-3.1132,-2.9564,-2.8869,-2.92,-2.8805,-2.8491,-2.8411,-2.8621,-2.8668,-2.8493,-2.8411,-2.8348,-2.8235,-2.8201,-2.8201,-2.8235,-2.8186,-2.8235,-2.8299,-2.8299,-2.825,-2.8152,-2.8088,-2.772,-1.8889,-1.8271,-1.8606,-1.9412,-2.0696,-2.4735,-2.729,-2.8748,-3.0859,-3.0538,-2.8429,-2.6437,-2.4784,-2.3441,-2.3106,-2.3076,-2.3363,-2.3814,-2.4614,-2.5588,-2.6263,-2.6828,-2.7345,-2.7687,-2.8178,-2.8737,-2.9641,-3.0427,-3.1199,-3.2365,-3.2776,-3.2313,-3.065,-2.8479,-2.5984,-2.4444,-2.2979,-2.1669,-2.1991,-2.2326,-2.2614,-2.3903,-2.4774,-2.5177,-2.5942,-2.5973,-2.5139,-2.4209,-2.3313,-2.2411,-2.1632,-2.1472,-2.2024,-2.1966,-2.2377,-2.3467,-2.4269,-2.4688,-2.4678,-2.462,-2.4706,-2.5063,-2.4595,-2.4748,-2.5745,-2.4572,-2.4439,-2.6188,-2.5784,-2.5916,-2.7311,-2.7921,-2.8515,-2.9827,-2.9968,-2.9935,-2.9968,-3.0011,-3.0125,-3.0305,-3.0575,-3.0561,-3.036,-3.1374,-3.2833,-3.4044,-3.4497,-3.4553,-3.4496,-3.4536,-3.4133,-3.3084,-3.1124,-2.9943,-3.0386,-2.9588,-2.9064,-2.9005,-2.9262,-2.934,-2.9149,-2.885,-2.8486,-2.8468,-2.8406,-2.8378,-2.8235,-2.8235,-2.8299,-2.8348,-2.8411,-2.8348,-2.825,-2.8235,-2.7974,-2.0407,-1.9788,-2.0143,-2.1766,-2.4128,-2.7293,-2.9508,-3.1108,-3.2538,-3.2855,-3.1968,-2.9693,-2.781,-2.6517,-2.6512,-2.6813,-2.7135,-2.7259,-2.7606,-2.8119,-2.8242,-2.8288,-2.8352,-2.8732,-2.9387,-3.0237,-3.1074,-3.1715,-3.2284,-3.3254,-3.2863,-3.1143,-2.9696,-2.7471,-2.4805,-2.3155,-2.1663,-2.0159,-2.0532,-2.1429,-2.276,-2.4113,-2.5026,-2.5382,-2.637,-2.6445,-2.5588,-2.5359,-2.4906,-2.4183,-2.4211,-2.4239,-2.4123,-2.4201,-2.4497,-2.497,-2.4848,-2.4778,-2.4982,-2.5221,-2.5409,-2.5528,-2.6274,-2.6775,-2.7016,-2.6303,-2.6228,-2.73,-2.7826,-2.8198,-2.8694,-2.9832,-3.0492,-3.0468,-3.0501,-3.0435,-3.0558,-3.0669,-3.0871,-3.0977,-3.1645,-3.1692,-3.1288,-3.2716,-3.4469,-3.5591,-3.5761,-3.5835,-3.5769,-3.5786,-3.5736,-3.5326,-3.4126,-3.2591,-3.1534,-3.0631,-3.0328,-3.0644,-3.0522,-3.0363,-3.0214,-2.9477,-2.8581,-2.9147,-2.8855,-2.8578,-2.8501,-2.8411,-2.8458,-2.8535,-2.8504,-2.8411,-2.8348,-2.8348,-2.8088,-2.2012,-2.1724,-2.1931,-2.3195,-2.5484,-2.8471,-3.0653,-3.2211,-3.4283,-3.4865,-3.4408,-3.3821,-3.2014,-2.9305,-2.9654,-2.9927,-3.0064,-3.0275,-3.012,-2.9717,-2.9406,-2.912,-2.8873,-2.9029,-2.9454,-3.0166,-3.1261,-3.2133,-3.2783,-3.3318,-3.2359,-2.9981,-2.7705,-2.4986,-2.2051,-2.0727,-1.9764,-1.9126,-2.0527,-2.202,-2.3497,-2.4315,-2.5104,-2.6067,-2.6831,-2.7098,-2.6838,-2.6349,-2.5889,-2.5609,-2.5158,-2.4829,-2.4765,-2.4793,-2.4917,-2.5142,-2.5397,-2.5756,-2.6346,-2.6277,-2.6404,-2.6826,-2.7033,-2.7491,-2.8189,-2.7761,-2.7985,-2.9134,-2.9764,-3.0009,-2.993,-3.067,-3.1263,-3.1479,-3.1556,-3.1724,-3.2194,-3.2293,-3.248,-3.2718,-3.2842,-3.2957,-3.3161,-3.4397,-3.5626,-3.6182,-3.6259,-3.6259,-3.6131,-3.6148,-3.6122,-3.5881,-3.5326,-3.4275,-3.2643,-3.1815,-3.1373,-3.0885,-3.0791,-3.0927,-3.0694,-3.0828,-3.0416,-3.0083,-2.9781,-2.9612,-2.9673,-2.9227,-2.9012,-2.895,-2.8581,-2.8411,-2.8411,-2.8411,-2.8235,-2.3907,-2.3951,-2.4183,-2.5422,-2.7354,-3.0258,-3.2332,-3.3874,-3.6109,-3.6852,-3.6594,-3.6952,-3.5558,-3.3067,-3.2871,-3.2757,-3.2605,-3.2517,-3.1857,-3.0824,-3.0173,-2.9617,-2.9153,-2.9091,-2.9335,-2.9908,-3.0926,-3.1897,-3.2581,-3.2665,-3.1373,-2.8659,-2.605,-2.3312,-2.0655,-1.9643,-1.9336,-1.9539,-2.1294,-2.3105,-2.4626,-2.5207,-2.5913,-2.6826,-2.7169,-2.7426,-2.7701,-2.7075,-2.6708,-2.6725,-2.5979,-2.5566,-2.5626,-2.5626,-2.5626,-2.5695,-2.6316,-2.6988,-2.7558,-2.7519,-2.7709,-2.8168,-2.8159,-2.8494,-2.9236,-2.9377,-2.9753,-3.0595,-3.1138,-3.1207,-3.1163,-3.1584,-3.2133,-3.2568,-3.2659,-3.2947,-3.3347,-3.3626,-3.3863,-3.4051,-3.4114,-3.4342,-3.4927,-3.5681,-3.6241,-3.6233,-3.6233,-3.6233,-3.6079,-3.6079,-3.5993,-3.5817,-3.5817,-3.5098,-3.3583,-3.2832,-3.2111,-3.1612,-3.1482,-3.1446,-3.1145,-3.1779,-3.1706,-3.0865,-3.0859,-3.0643,-3.0228,-2.9843,-2.9577,-2.9454,-2.9177,-2.8981,-2.9388,-2.9123,-2.8889,-2.6145,-2.6236,-2.7262,-2.8788,-3.0904,-3.3079,-3.5059,-3.6541,-3.789,-3.8635,-3.8816,-3.8193,-3.7727,-3.7253,-3.5911,-3.517,-3.4708,-3.3673,-3.2597,-3.152,-3.0601,-2.9832,-2.9122,-2.9137,-2.9366,-2.9955,-3.0573,-3.1215,-3.1818,-3.1437,-2.9782,-2.6987,-2.5142,-2.3245,-2.1303,-2.0728,-2.1031,-2.1583,-2.3054,-2.4674,-2.6244,-2.7179,-2.764,-2.7792,-2.7493,-2.7504,-2.7657,-2.7587,-2.7478,-2.7279,-2.7161,-2.7144,-2.7178,-2.7178,-2.7195,-2.7264,-2.7868,-2.8282,-2.842,-2.8886,-2.9317,-2.9489,-2.9918,-3.047,-3.0573,-3.1018,-3.1342,-3.1545,-3.186,-3.2196,-3.2451,-3.3172,-3.3512,-3.3422,-3.3598,-3.369,-3.3658,-3.4423,-3.4719,-3.4763,-3.5292,-3.5736,-3.6079,-3.6241,-3.6301,-3.6259,-3.6233,-3.6165,-3.6122,-3.5949,-3.5861,-3.5773,-3.5622,-3.5207,-3.417,-3.3542,-3.3268,-3.2657,-3.2113,-3.2323,-3.2609,-3.2701,-3.2044,-3.1697,-3.1813,-3.152,-3.0766,-3.0299,-3.0109,-3.0017,-3.0068,-3.0074,-3.0099,-3.0325,-3.0043,-2.7841,-2.8177,-2.9066,-3.0351,-3.2004,-3.405,-3.5866,-3.7485,-3.8674,-3.9411,-3.9618,-3.9208,-3.8748,-3.8264,-3.7517,-3.6557,-3.5514,-3.4714,-3.3609,-3.2266,-3.1292,-3.0718,-3.0417,-2.9737,-2.9832,-3.0638,-3.1011,-3.1516,-3.1912,-3.059,-2.8783,-2.6738,-2.4395,-2.2402,-2.1195,-2.0996,-2.1436,-2.2296,-2.4378,-2.6282,-2.7658,-2.8491,-2.9097,-2.9484,-2.8956,-2.8678,-2.8762,-2.8795,-2.8587,-2.8023,-2.8006,-2.7989,-2.8058,-2.8454,-2.8713,-2.873,-2.8972,-2.911,-2.9144,-2.9351,-2.9748,-3.0231,-3.0506,-3.0938,-3.1334,-3.1645,-3.1763,-3.2021,-3.3675,-3.4461,-3.4191,-3.4727,-3.4985,-3.4474,-3.4448,-3.466,-3.5045,-3.5412,-3.5574,-3.5642,-3.6002,-3.6241,-3.6259,-3.6216,-3.6216,-3.6259,-3.6148,-3.6096,-3.6036,-3.5888,-3.5824,-3.5684,-3.5622,-3.5316,-3.4561,-3.4036,-3.3614,-3.2933,-3.2485,-3.24,-3.2586,-3.2586,-3.2114,-3.2052,-3.2305,-3.2228,-3.1413,-3.1136,-3.0898,-3.0514,-3.0529,-3.0735,-3.0603,-3.0766,-3.0535,-2.9628,-3.0015,-3.0837,-3.185,-3.3049,-3.4925,-3.6547,-3.7961,-3.9083,-3.9778,-3.9964,-3.9735,-3.9226,-3.8571,-3.7959,-3.6966,-3.5705,-3.5153,-3.4034,-3.252,-3.1528,-3.0963,-3.0697,-2.9899,-2.9996,-3.0838,-3.1283,-3.155,-3.157,-3.0141,-2.8417,-2.6601,-2.4533,-2.2949,-2.2104,-2.22,-2.2852,-2.4203,-2.6237,-2.7952,-2.9086,-2.9822,-3.0417,-3.0793,-3.0542,-3.0076,-2.9626,-2.9658,-2.945,-2.8965,-2.8814,-2.8765,-2.8816,-2.923,-2.9748,-3.0144,-3.0024,-2.9886,-2.9937,-3.011,-3.0489,-3.0972,-3.1058,-3.13,-3.1748,-3.18,-3.18,-3.2403,-3.449,-3.5956,-3.557,-3.5761,-3.584,-3.5369,-3.5326,-3.5557,-3.5994,-3.6088,-3.6114,-3.6122,-3.6182,-3.6301,-3.6284,-3.6216,-3.6216,-3.6259,-3.6277,-3.63,-3.6017,-3.61,-3.5966,-3.5673,-3.5639,-3.5287,-3.4706,-3.4218,-3.3591,-3.292,-3.2492,-3.2453,-3.2398,-3.2398,-3.2398,-3.2398,-3.2398,-3.2398,-3.2244,-3.1951,-3.1567,-3.1089,-3.1228,-3.1459,-3.132,-3.1182,-3.1028,-3.1278,-3.1422,-3.281,-3.3499,-3.4219,-3.5847,-3.7238,-3.8267,-3.9149,-3.9788,-4.008,-3.9679,-3.9167,-3.8586,-3.7345,-3.6255,-3.5338,-3.4731,-3.3776,-3.2342,-3.1389,-3.0646,-3.016,-2.9696,-2.9766,-3.0458,-3.1094,-3.1079,-3.0596,-3.013,-2.8847,-2.6901,-2.6175,-2.5361,-2.4326,-2.4983,-2.5884,-2.7253,-2.8497,-2.9632,-3.0688,-3.1155,-3.1459,-3.1696,-3.1969,-3.151,-3.0194,-3.0141,-3.0127,-2.9972,-2.9658,-2.9523,-2.9455,-2.9627,-3.0231,-3.1282,-3.1041,-3.0731,-3.0748,-3.1265,-3.1558,-3.1696,-3.1783,-3.1834,-3.1921,-3.1852,-3.1869,-3.2472,-3.4507,-3.6215,-3.6197,-3.6232,-3.6182,-3.6045,-3.6053,-3.6147,-3.6174,-3.6216,-3.6284,-3.6301,-3.6387,-3.6353,-3.637,-3.6534,-3.6578,-3.6638,-3.6833,-3.6853,-3.6365,-3.6554,-3.6463,-3.596,-3.5932,-3.595,-3.5131,-3.43,-3.3587,-3.2944,-3.2594,-3.2398,-3.2398,-3.2398,-3.2398,-3.2398,-3.2398,-3.2398,-3.2398,-3.2151,-3.2198,-3.1921,-3.2121,-3.2074,-3.1951,-3.1782,-3.1736,-3.1667,-3.2256,-3.3093,-3.3853,-3.4703,-3.6101,-3.7256,-3.8236,-3.9151,-3.9671,-3.9716,-3.9349,-3.8628,-3.7636,-3.671,-3.5518,-3.4088,-3.3556,-3.3034,-3.2435,-3.1571,-3.1046,-3.0776,-2.9994,-3.0012,-3.0723,-3.1462,-3.1871,-3.1659,-3.0916,-3.0109,-2.9776,-2.9087,-2.8689,-2.8315,-2.9012,-2.9487,-2.9437,-3.0453,-3.1031,-3.0933,-3.1373,-3.1671,-3.1856,-3.2335,-3.2367,-3.1941,-3.1714,-3.1335,-3.0876,-3.0508,-3.0093,-2.9799,-3.0506,-3.1282,-3.1679,-3.1593,-3.1455,-3.1472,-3.1645,-3.18,-3.1886,-3.2248,-3.2524,-3.249,-3.211,-3.2334,-3.3248,-3.5145,-3.6284,-3.6284,-3.6284,-3.6259,-3.6233,-3.6259,-3.6301,-3.6276,-3.6353,-3.6284,-3.6404,-3.6939,-3.7473,-3.7784,-3.7809,-3.7652,-3.7607,-3.7718,-3.7575,-3.7155,-3.7254,-3.7313,-3.6772,-3.6861,-3.675,-3.5957,-3.5313,-3.475,-3.3795,-3.3129,-3.2644,-3.2567,-3.2398,-3.2398,-3.2398,-3.2398,-3.2398,-3.2398,-3.2398,-3.2398,-3.2398,-3.229,-3.2305,-3.2382,-3.229,-3.2121,-3.268,-3.3457,-3.4382,-3.5168,-3.5958,-3.7317,-3.8366,-3.9177,-3.9973,-4.034,-4.0346,-3.9898,-3.8896,-3.7558,-3.653,-3.4977,-3.3219,-3.2493,-3.1942,-3.1531,-3.1013,-3.0822,-3.0999,-3.0674,-3.0524,-3.1076,-3.2027,-3.2618,-3.2841,-3.2328,-3.2045,-3.2015,-3.1661,-3.1307,-3.1117,-3.1438,-3.1512,-3.1388,-3.2004,-3.2256,-3.2137,-3.2359,-3.2552,-3.2668,-3.2915,-3.3077,-3.3176,-3.2763,-3.2292,-3.182,-3.1377,-3.0834,-3.0489,-3.1265,-3.18,-3.18,-3.18,-3.1783,-3.18,-3.1783,-3.1938,-3.2231,-3.2628,-3.3041,-3.3162,-3.2852,-3.3214,-3.4059,-3.5439,-3.6284,-3.6284,-3.6284,-3.6284,-3.6284,-3.6284,-3.6284,-3.6335,-3.6663,-3.6628,-3.6715,-3.7353,-3.8405,-3.9163,-3.8963,-3.8683,-3.8517,-3.8533,-3.8295,-3.7942,-3.797,-3.8021,-3.7922,-3.7804,-3.7429,-3.6787,-3.6348,-3.5991,-3.4849,-3.3748,-3.328,-3.2921,-3.2567,-3.2398,-3.2398,-3.2398,-3.2398,-3.2398,-3.2398,-3.2398,-3.2398,-3.2398,-3.2398,-3.2398,-3.2398,-3.229,-3.4206,-3.4904,-3.6336,-3.7085,-3.7699,-3.9112,-4.0022,-4.0771,-4.1169,-4.138,-4.1427,-4.0743,-3.9586,-3.8058,-3.6474,-3.4692,-3.2772,-3.1649,-3.0748,-3.0086,-2.967,-2.9856,-3.0404,-3.0969,-3.123,-3.136,-3.2663,-3.338,-3.3623,-3.3941,-3.4151,-3.362,-3.3521,-3.3258,-3.2846,-3.2644,-3.2918,-3.3125,-3.3305,-3.3505,-3.3728,-3.3916,-3.3955,-3.3943,-3.3661,-3.3653,-3.3823,-3.3377,-3.2912,-3.2684,-3.2039,-3.1662,-3.1731,-3.18,-3.18,-3.18,-3.18,-3.18,-3.18,-3.1938,-3.2179,-3.2731,-3.3093,-3.3317,-3.399,-3.418,-3.4266,-3.4507,-3.5576,-3.6284,-3.6284,-3.6284,-3.6318,-3.6387,-3.637,-3.6318,-3.6456,-3.7232,-3.7284,-3.7008,-3.7784,-3.9163,-4.0422,-3.9939,-3.9376,-3.9009,-3.9179,-3.8955,-3.8628,-3.8785,-3.9309,-3.9174,-3.8768,-3.8321,-3.7718,-3.7216,-3.6812,-3.5947,-3.4794,-3.4037,-3.3413,-3.2967,-3.2459,-3.2444,-3.2505,-3.2475,-3.2413,-3.2413,-3.2413,-3.2398,-3.2398,-3.2398,-3.2398,-3.2398,-3.2398,-3.4442,-3.5379,-3.6509,-3.748,-3.836,-3.9469,-4.0182,-4.0613,-4.0899,-4.1056,-4.0766,-4.0185,-3.8943,-3.6972,-3.5969,-3.4226,-3.2364,-3.1013,-3.0194,-2.9608,-2.903,-2.9044,-2.9685,-3.0866,-3.1534,-3.1901,-3.3045,-3.4053,-3.4671,-3.4925,-3.5057,-3.5301,-3.5172,-3.5165,-3.5057,-3.4999,-3.4908,-3.455,-3.4624,-3.4432,-3.4117,-3.4145,-3.4076,-3.4081,-3.4199,-3.4319,-3.4428,-3.4252,-3.3512,-3.2491,-3.2055,-3.18,-3.1817,-3.1852,-3.1938,-3.1938,-3.1869,-3.1834,-3.1955,-3.2334,-3.2697,-3.299,-3.3904,-3.468,-3.4887,-3.5404,-3.5645,-3.5766,-3.6163,-3.6284,-3.6284,-3.6318,-3.6542,-3.6991,-3.6766,-3.6628,-3.7077,-3.7387,-3.7629,-3.8008,-3.8801,-3.9819,-4.0457,-4.0647,-4.0336,-4.0186,-4.0065,-4.001,-3.9525,-3.9394,-3.9817,-3.9884,-3.9614,-3.9175,-3.8676,-3.8177,-3.7585,-3.6954,-3.5939,-3.4858,-3.4214,-3.3598,-3.2998,-3.2552,-3.2798,-3.2844,-3.2598,-3.2459,-3.2428,-3.2628,-3.2521,-3.2567,-3.2444,-3.2398,-3.2398,-3.5689,-3.6757,-3.7779,-3.8792,-3.9739,-4.0766,-4.1302,-4.147,-4.1614,-4.147,-4.1061,-4.0377,-3.912,-3.7415,-3.5852,-3.4132,-3.2304,-3.0671,-2.9642,-2.9142,-2.8698,-2.8953,-2.9704,-3.097,-3.1875,-3.2602,-3.3601,-3.4496,-3.522,-3.5509,-3.5837,-3.6011,-3.6148,-3.6131,-3.602,-3.6191,-3.6044,-3.5631,-3.5604,-3.5421,-3.5042,-3.5007,-3.5025,-3.4979,-3.497,-3.4812,-3.4649,-3.4616,-3.4069,-3.3258,-3.2844,-3.249,-3.1938,-3.2455,-3.2731,-3.2766,-3.2748,-3.2783,-3.2817,-3.3197,-3.3524,-3.3904,-3.48,-3.5266,-3.5628,-3.6077,-3.6284,-3.6249,-3.6284,-3.6284,-3.637,-3.6594,-3.7154,-3.7767,-3.7551,-3.7456,-3.7939,-3.8284,-3.8405,-3.8819,-3.9508,-4.0319,-4.0901,-4.0871,-4.0871,-4.0789,-4.0525,-4.04,-4.0235,-4.0188,-4.0138,-4.0121,-3.985,-3.9268,-3.8635,-3.8084,-3.7514,-3.6914,-3.6565,-3.5598,-3.4876,-3.4214,-3.3798,-3.3336,-3.3275,-3.3198,-3.3106,-3.3044,-3.3167,-3.3229,-3.2952,-3.2721,-3.2628,-3.2705,-3.2659,-3.7326,-3.8374,-3.9339,-4.0388,-4.1376,-4.2386,-4.2643,-4.2828,-4.2681,-4.2354,-4.1789,-4.107,-3.9682,-3.8438,-3.6281,-3.4399,-3.2705,-3.0673,-2.963,-2.9169,-2.9141,-2.9778,-3.0933,-3.1524,-3.2484,-3.3466,-3.435,-3.4971,-3.5554,-3.6071,-3.6241,-3.6241,-3.6259,-3.6301,-3.6241,-3.6301,-3.6284,-3.6215,-3.6163,-3.6128,-3.6025,-3.6008,-3.599,-3.5939,-3.56,-3.5243,-3.5004,-3.4871,-3.4669,-3.4375,-3.4197,-3.3352,-3.2421,-3.3455,-3.4111,-3.4145,-3.4042,-3.3886,-3.4076,-3.4059,-3.4421,-3.4938,-3.5163,-3.5576,-3.6077,-3.6266,-3.6284,-3.6284,-3.6284,-3.6387,-3.6697,-3.718,-3.7897,-3.8511,-3.8674,-3.8698,-3.8905,-3.9353,-3.9457,-3.8991,-4.0146,-4.0716,-4.0871,-4.0871,-4.0871,-4.0871,-4.068,-4.0534,-4.0387,-4.0305,-4.0238,-4.0221,-3.9731,-3.9082,-3.8502,-3.7879,-3.731,-3.6738,-3.66,-3.6014,-3.5399,-3.486,-3.4614,-3.4337,-3.3937,-3.3906,-3.406,-3.4044,-3.4014,-3.3829,-3.3567,-3.3213,-3.2936,-3.3152,-3.3213,-3.7354,-3.8421,-3.9086,-4.0346,-4.1895,-4.2279,-4.2577,-4.2844,-4.2516,-4.1853,-4.1139,-4.0854,-3.9359,-3.709,-3.6673,-3.532,-3.2411,-3.082,-3.0065,-3.0105,-3.0988,-3.2009,-3.2751,-3.2824,-3.3376,-3.4522,-3.5157,-3.565,-3.614,-3.6294,-3.6301,-3.6335,-3.6318,-3.6284,-3.6284,-3.6284,-3.6284,-3.6284,-3.6284,-3.6301,-3.6284,-3.6284,-3.6284,-3.6284,-3.6111,-3.6032,-3.5953,-3.5942,-3.5901,-3.56,-3.4783,-3.4042,-3.38,-3.3973,-3.4645,-3.5214,-3.4663,-3.414,-3.4203,-3.4674,-3.5007,-3.5249,-3.5714,-3.6128,-3.6215,-3.6284,-3.6284,-3.6284,-3.6301,-3.6646,-3.7456,-3.8025,-3.8708,-3.9261,-3.9502,-3.9681,-4.0129,-3.9957,-3.9905,-4.0284,-4.0578,-4.0871,-4.0871,-4.0871,-4.0871,-4.0871,-4.0728,-4.0583,-4.0502,-4.0404,-4.0404,-4.037,-3.9833,-3.9172,-3.8518,-3.7911,-3.7254,-3.68,-3.6616,-3.6523,-3.5906,-3.5491,-3.5245,-3.486,-3.4414,-3.4537,-3.4876,-3.4691,-3.4568,-3.4383,-3.4214,-3.3967,-3.3798,-3.3844,-3.3737,-3.7546,-3.8437,-3.9143,-4.036,-4.1715,-4.2302,-4.2537,-4.244,-4.2003,-4.1233,-4.0366,-3.9742,-3.8421,-3.6943,-3.5936,-3.4193,-3.2601,-3.1003,-3.0296,-3.0528,-3.1565,-3.3129,-3.4583,-3.462,-3.5013,-3.6008,-3.6477,-3.6894,-3.7214,-3.7025,-3.6904,-3.6801,-3.6542,-3.6301,-3.6284,-3.6335,-3.6284,-3.6284,-3.6301,-3.6343,-3.6385,-3.6385,-3.6444,-3.6444,-3.6444,-3.6402,-3.6367,-3.6326,-3.6266,-3.6094,-3.5542,-3.5111,-3.5128,-3.5111,-3.5559,-3.5887,-3.568,-3.5163,-3.5294,-3.5449,-3.5732,-3.5697,-3.6094,-3.6215,-3.6284,-3.6284,-3.6284,-3.6284,-3.6422,-3.6853,-3.8353,-3.887,-3.9457,-4.0043,-4.025,-4.0457,-4.0698,-4.0509,-4.0371,-4.0784,-4.0836,-4.0871,-4.0871,-4.0871,-4.0871,-4.0871,-4.0793,-4.0631,-4.068,-4.0583,-4.0583,-4.0468,-3.9919,-3.9332,-3.8613,-3.7969,-3.721,-3.6862,-3.6739,-3.6677,-3.6353,-3.6076,-3.5861,-3.5507,-3.5214,-3.5445,-3.5676,-3.5414,-3.5168,-3.5029,-3.4891,-3.4768,-3.4583,-3.4352,-3.4245,-3.7828,-3.839,-3.9304,-4.0309,-4.1297,-4.2226,-4.2418,-4.2056,-4.1464,-4.0647,-3.963,-3.8189,-3.7499,-3.649,-3.4347,-3.3177,-3.2489,-3.1598,-3.0854,-3.1445,-3.2753,-3.4378,-3.5849,-3.6615,-3.7063,-3.7486,-3.7655,-3.8105,-3.8308,-3.8043,-3.7663,-3.7542,-3.706,-3.6922,-3.6749,-3.668,-3.6835,-3.6887,-3.6947,-3.6834,-3.678,-3.6745,-3.6793,-3.6602,-3.6544,-3.6502,-3.6502,-3.6444,-3.636,-3.6343,-3.6343,-3.6343,-3.6301,-3.6284,-3.6284,-3.6284,-3.6146,-3.6077,-3.6025,-3.6163,-3.6215,-3.6284,-3.6473,-3.6508,-3.6542,-3.6439,-3.6542,-3.6887,-3.7232,-3.8025,-3.9388,-3.9767,-4.0181,-4.0647,-4.0853,-4.0871,-4.0871,-4.0871,-4.0853,-4.0853,-4.0871,-4.0871,-4.0871,-4.0871,-4.0871,-4.0871,-4.0793,-4.0745,-4.0776,-4.0776,-4.0776,-4.0614,-4.012,-3.9279,-3.8518,-3.7854,-3.715,-3.6999,-3.6862,-3.68,-3.6723,-3.6523,-3.6261,-3.6322,-3.6245,-3.6292,-3.6261,-3.6091,-3.5861,-3.5707,-3.5599,-3.5522,-3.5214,-3.4845,-3.4829,-3.7844,-3.8334,-3.8995,-3.9885,-4.0804,-4.1464,-4.1674,-4.1543,-4.1007,-3.9983,-3.8679,-3.7873,-3.6338,-3.4786,-3.3619,-3.2666,-3.2162,-3.184,-3.2249,-3.3336,-3.4835,-3.6438,-3.717,-3.8364,-3.9143,-3.9259,-3.8969,-3.8894,-3.9071,-3.8753,-3.8422,-3.8387,-3.818,-3.8077,-3.8025,-3.818,-3.7991,-3.7905,-3.8027,-3.788,-3.7559,-3.7505,-3.7339,-3.6998,-3.6863,-3.6776,-3.673,-3.6678,-3.6602,-3.6502,-3.6461,-3.6402,-3.636,-3.6318,-3.6353,-3.6284,-3.6284,-3.6284,-3.6284,-3.6353,-3.6301,-3.6439,-3.6922,-3.7267,-3.7146,-3.6853,-3.7163,-3.8198,-3.9198,-4.0164,-4.0526,-4.0543,-4.0664,-4.0871,-4.0871,-4.0871,-4.0871,-4.0871,-4.0871,-4.0871,-4.0871,-4.0871,-4.0871,-4.0871,-4.0871,-4.0871,-4.0823,-4.084,-4.0823,-4.0871,-4.0871,-4.0645,-4.0336,-3.9332,-3.8367,-3.7695,-3.715,-3.7121,-3.6999,-3.6923,-3.6862,-3.6723,-3.6662,-3.6616,-3.6492,-3.643,-3.6445,-3.6492,-3.6399,-3.6107,-3.6168,-3.623,-3.5922,-3.5614,-3.5814,-3.7626,-3.7943,-3.8479,-3.9301,-4.0263,-4.0839,-4.1087,-4.0995,-4.0212,-3.9185,-3.7842,-3.6426,-3.5198,-3.3869,-3.2372,-3.1699,-3.1788,-3.2777,-3.3394,-3.4403,-3.6105,-3.751,-3.8101,-3.9423,-4.0103,-4.0246,-4.0001,-3.9848,-4.0084,-3.9502,-3.9198,-3.906,-3.8836,-3.8594,-3.8594,-3.8525,-3.8629,-3.8674,-3.8701,-3.8607,-3.8252,-3.8287,-3.8111,-3.7912,-3.7739,-3.7617,-3.7269,-3.7259,-3.705,-3.6707,-3.6602,-3.6502,-3.6506,-3.6688,-3.6792,-3.6473,-3.637,-3.6318,-3.6422,-3.6611,-3.6939,-3.7008,-3.7629,-3.8008,-3.7991,-3.787,-3.818,-3.9439,-4.0146,-4.0871,-4.0836,-4.0871,-4.0871,-4.0871,-4.0871,-4.0871,-4.0871,-4.0871,-4.0871,-4.0871,-4.0871,-4.0871,-4.0871,-4.0871,-4.0871,-4.0871,-4.0871,-4.0871,-4.0871,-4.0871,-4.0871,-4.071,-4.0434,-3.9697,-3.8701,-3.7985,-3.7314,-3.7225,-3.7165,-3.7105,-3.6968,-3.6846,-3.6723,-3.6662,-3.66,-3.6492,-3.6492,-3.6492,-3.6492,-3.6492,-3.643,-3.6384,-3.6445,-3.6476,-3.6492,-3.748,-3.7539,-3.8084,-3.8767,-3.9529,-4.0133,-4.0412,-4.0165,-3.9256,-3.8323,-3.7227,-3.5148,-3.3966,-3.3184,-3.2037,-3.1101,-3.1596,-3.3394,-3.4201,-3.528,-3.6765,-3.8044,-3.8859,-3.9647,-4.0451,-4.0741,-4.0767,-4.0871,-4.0711,-4.0215,-3.9974,-3.9836,-3.9301,-3.906,-3.9163,-3.9319,-3.906,-3.9043,-3.9105,-3.9133,-3.9049,-3.8947,-3.8903,-3.8903,-3.8947,-3.8616,-3.8154,-3.8066,-3.7823,-3.7492,-3.7224,-3.7026,-3.6669,-3.7351,-3.7638,-3.7292,-3.6973,-3.6784,-3.6939,-3.7284,-3.7698,-3.7732,-3.8405,-3.8715,-3.8905,-3.9043,-3.9526,-4.0595,-4.0871,-4.0871,-4.0871,-4.0871,-4.0871,-4.0871,-4.0871,-4.0871,-4.0871,-4.0871,-4.0871,-4.0871,-4.0871,-4.0871,-4.0871,-4.0871,-4.0871,-4.0871,-4.0871,-4.0871,-4.0871,-4.0871,-4.0871,-4.0758,-4.0451,-3.9969,-3.9226,-3.8439,-3.7844,-3.7421,-3.7405,-3.7373,-3.7134,-3.6876,-3.6769,-3.6662,-3.6538,-3.6492,-3.6492,-3.6492,-3.6492,-3.6492,-3.6492,-3.6492,-3.6492,-3.6492,-3.6492,-3.748,-3.7524,-3.8084,-3.839,-3.858,-3.9156,-3.9385,-3.9262,-3.827,-3.7467,-3.672,-3.4816,-3.3282,-3.2368,-3.1596,-3.2019,-3.3241,-3.4119,-3.5295,-3.6751,-3.7898,-3.8875,-3.9715,-4.0434,-4.071,-4.0871,-4.0871,-4.0871,-4.0836,-4.0716,-4.0681,-4.0578,-4.0491,-4.0543,-4.0284,-4.0267,-4.0629,-4.0607,-4.0637,-4.0435,-3.9919,-3.9284,-3.9024,-3.8999,-3.9016,-3.8964,-3.8903,-3.8876,-3.8761,-3.8692,-3.8674,-3.8056,-3.7224,-3.8077,-3.9336,-3.96,-3.925,-3.8318,-3.8215,-3.838,-3.8456,-3.8594,-3.9163,-3.9491,-3.9698,-4.0077,-4.0474,-4.0733,-4.0871,-4.0871,-4.0871,-4.0871,-4.0871,-4.0871,-4.0871,-4.0871,-4.0871,-4.0871,-4.0871,-4.0871,-4.0871,-4.0871,-4.0871,-4.0871,-4.0871,-4.0871,-4.0871,-4.0871,-4.0871,-4.0871,-4.0871,-4.0823,-4.0662,-4.022,-3.9645,-3.8903,-3.8495,-3.786,-3.7669,-3.7695,-3.7401,-3.7163,-3.6785,-3.6677,-3.6554,-3.6492,-3.6492,-3.6492,-3.6492,-3.6492,-3.6492,-3.6492,-3.6492,-3.6492,-3.6492,-3.748,-3.7524,-3.7727,-3.8042,-3.8278,-3.8574,-3.8518,-3.8165,-3.7483,-3.6706,-3.5634,-3.3825,-3.2346,-3.1721,-3.2078,-3.3101,-3.4201,-3.5359,-3.6446,-3.7716,-3.8728,-3.9527,-3.9986,-4.0549,-4.0871,-4.0871,-4.0871,-4.0871,-4.0871,-4.0871,-4.0871,-4.0871,-4.0871,-4.0802,-4.0871,-4.0871,-4.0853,-4.0884,-4.0866,-4.081,-4.0545,-4.0216,-3.9963,-4.0008,-4.0054,-3.9857,-3.9633,-3.9634,-3.9417,-3.918,-3.8849,-3.8629,-3.8437,-3.9143,-4.0132,-4.1039,-4.0544,-3.9638,-3.8812,-3.9133,-3.9226,-3.9433,-3.9871,-4.0336,-4.044,-4.0629,-4.0871,-4.0871,-4.0871,-4.0871,-4.0871,-4.0871,-4.0871,-4.0871,-4.0871,-4.0871,-4.0871,-4.0871,-4.0871,-4.0871,-4.0871,-4.0871,-4.0871,-4.0871,-4.0871,-4.0871,-4.0871,-4.0871,-4.0871,-4.0871,-4.0871,-4.0871,-4.0758,-4.0549,-3.9952,-3.9368,-3.9226,-3.8756,-3.8141,-3.8067,-3.778,-3.7504,-3.7058,-3.6739,-3.6616,-3.6554,-3.6492,-3.6492,-3.6492,-3.6492,-3.6492,-3.6492,-3.6492,-3.6492,-3.6492,-3.748,-3.748,-3.748,-3.7743,-3.8084,-3.8084,-3.7854,-3.7354,-3.6843,-3.6041,-3.4934,-3.3362,-3.216,-3.2088,-3.3267,-3.4254,-3.5085,-3.6828,-3.7732,-3.8525,-3.9299,-4.0003,-4.0336,-4.071,-4.0871,-4.0871,-4.0871,-4.0871,-4.0871,-4.0871,-4.0871,-4.0871,-4.0871,-4.0871,-4.0871,-4.0871,-4.0871,-4.0871,-4.0918,-4.0901,-4.0849,-4.0866,-4.0832,-4.0866,-4.0913,-4.077,-4.0331,-4.0273,-4.0043,-3.9844,-3.9547,-3.9573,-3.9894,-4.028,-4.0771,-4.1393,-4.1136,-4.0607,-3.995,-3.9905,-4.0095,-4.0274,-4.0388,-4.0767,-4.0802,-4.0871,-4.0871,-4.0871,-4.0871,-4.0871,-4.0871,-4.0871,-4.0871,-4.0871,-4.0871,-4.0871,-4.0871,-4.0871,-4.0871,-4.0871,-4.0871,-4.0871,-4.0871,-4.0871,-4.0871,-4.0871,-4.0871,-4.0871,-4.0871,-4.0871,-4.0871,-4.0871,-4.0823,-4.071,-4.0385,-3.9969,-3.9868,-3.9542,-3.8941,-3.839,-3.8124,-3.7722,-3.7326,-3.6997,-3.6739,-3.6554,-3.6492,-3.6492,-3.6492,-3.6492,-3.6492,-3.6492,-3.6492,-3.6492,-3.6492,-3.748,-3.748,-3.748,-3.7524,-3.7583,-3.7583,-3.727,-3.6738,-3.6228,-3.5642,-3.4876,-3.3862,-3.34,-3.37,-3.4147,-3.5374,-3.7219,-3.7531,-3.8414,-3.9351,-4.0003,-4.0319,-4.0597,-4.0823,-4.0871,-4.0871,-4.0871,-4.0871,-4.0871,-4.0871,-4.0871,-4.0871,-4.0871,-4.0871,-4.0871,-4.0871,-4.0871,-4.0871,-4.0871,-4.0871,-4.0871,-4.0871,-4.0871,-4.0871,-4.0935,-4.0948,-4.099,-4.092,-4.0926,-4.0882,-4.0787,-4.0823,-4.0981,-4.1165,-4.1429,-4.1472,-4.1542,-4.1153,-4.0833,-4.0678,-4.0903,-4.096,-4.0948,-4.0871,-4.0871,-4.0871,-4.0871,-4.0871,-4.0871,-4.0871,-4.0871,-4.0871,-4.0871,-4.0871,-4.0871,-4.0871,-4.0871,-4.0871,-4.0871,-4.0871,-4.0871,-4.0871,-4.0871,-4.0871,-4.0871,-4.0871,-4.0871,-4.0871,-4.0871,-4.0871,-4.0871,-4.0871,-4.0871,-4.0871,-4.0823,-4.0566,-4.0286,-4.002,-3.9525,-3.8887,-3.8367,-3.7911,-3.7326,-3.6997,-3.6677,-3.6554,-3.6554,-3.6723,-3.6769,-3.6554,-3.6492,-3.6492,-3.6492,-3.6492,-3.6492,-3.748,-3.748,-3.748,-3.748,-3.7464,-3.7165,-3.6708,-3.618,-3.5672,-3.4861,-3.4056,-3.4245,-3.4292,-3.4376,-3.5349,-3.6306,-3.7589,-3.8351,-3.9156,-3.9851,-4.0385,-4.0662,-4.0871,-4.0871,-4.0871,-4.0871,-4.0871,-4.0871,-4.0871,-4.0871,-4.0871,-4.0871,-4.0871,-4.0871,-4.0871,-4.0871,-4.0871,-4.0871,-4.0871,-4.0871,-4.0871,-4.0871,-4.0871,-4.0871,-4.0871,-4.0918,-4.0965,-4.0965,-4.1076,-4.1233,-4.1307,-4.1443,-4.156,-4.156,-4.1604,-4.1604,-4.156,-4.1471,-4.1307,-4.1215,-4.1105,-4.0982,-4.0918,-4.0871,-4.0871,-4.0871,-4.0871,-4.0871,-4.0871,-4.0871,-4.0871,-4.0871,-4.0871,-4.0871,-4.0871,-4.0871,-4.0871,-4.0871,-4.0871,-4.0871,-4.0871,-4.0871,-4.0871,-4.0871,-4.0871,-4.0871,-4.0871,-4.0871,-4.0871,-4.0871,-4.0871,-4.0871,-4.0871,-4.0871,-4.0871,-4.0758,-4.0645,-4.0336,-4.0003,-3.9332,-3.8574,-3.7695,-3.7178,-3.6846,-3.6677,-3.6554,-3.6662,-3.6997,-3.6937,-3.6662,-3.6492,-3.6492,-3.6492,-3.6492,-3.6492,-3.748,-3.748,-3.748,-3.748,-3.748,-3.7105,-3.6631,-3.6133,-3.5672,-3.481,-3.3919,-3.4876,-3.5204,-3.5305,-3.5976,-3.7087,-3.7879,-3.8684,-3.9385,-4.002,-4.0549,-4.0823,-4.0871,-4.0871,-4.0871,-4.0871,-4.0871,-4.0871,-4.0871,-4.0871,-4.0871,-4.0871,-4.0871,-4.0871,-4.0871,-4.0871,-4.0871,-4.0871,-4.0871,-4.0871,-4.0871,-4.0871,-4.0871,-4.0871,-4.0871,-4.0871,-4.0918,-4.0935,-4.0982,-4.1093,-4.1233,-4.1353,-4.1488,-4.1515,-4.1515,-4.1515,-4.1515,-4.1515,-4.1363,-4.1244,-4.1088,-4.0918,-4.0918,-4.0871,-4.0871,-4.0871,-4.0871,-4.0871,-4.0871,-4.0871,-4.0871,-4.0871,-4.0871,-4.0871,-4.0871,-4.0871,-4.0871,-4.0871,-4.0871,-4.0871,-4.0871,-4.0871,-4.0871,-4.0871,-4.0871,-4.0871,-4.0871,-4.0871,-4.0871,-4.0871,-4.0871,-4.0871,-4.0871,-4.0871,-4.0871,-4.0823,-4.071,-4.0286,-3.9952,-3.9473,-3.8723,-3.7838,-3.7194,-3.6923,-3.6754,-3.6554,-3.66,-3.6831,-3.6769,-3.6616,-3.6554,-3.6492,-3.6492,-3.6492,-3.6492,-3.748,-3.748,-3.748,-3.748,-3.748,-3.748,-3.715,-3.6585,-3.6054,-3.5544,-3.5088,-3.5672,-3.6117,-3.6383,-3.6708,-3.7401,-3.8278,-3.8903,-3.9558,-4.0187,-4.0662,-4.0871,-4.0871,-4.0871,-4.0871,-4.0871,-4.0871,-4.0871,-4.0871,-4.0871,-4.0871,-4.0871,-4.0871,-4.0871,-4.0871,-4.0871,-4.0871,-4.0871,-4.0871,-4.0871,-4.0871,-4.0871,-4.0871,-4.0871,-4.0871,-4.0871,-4.0871,-4.0871,-4.0935,-4.1047,-4.1093,-4.1233,-4.137,-4.1426,-4.1335,-4.1198,-4.1408,-4.1408,-4.1209,-4.1169,-4.1029,-4.0918,-4.0935,-4.0871,-4.0871,-4.0871,-4.0871,-4.0871,-4.0871,-4.0871,-4.0871,-4.0871,-4.0871,-4.0871,-4.0871,-4.0871,-4.0871,-4.0871,-4.0871,-4.0871,-4.0871,-4.0871,-4.0871,-4.0871,-4.0871,-4.0871,-4.0871,-4.0871,-4.0871,-4.0871,-4.0871,-4.0871,-4.0871,-4.0871,-4.0871,-4.0871,-4.071,-4.0286,-3.9902,-3.9473,-3.8924,-3.8165,-3.7578,-3.7105,-3.6754,-3.6554,-3.6492,-3.6554,-3.6616,-3.6723,-3.6554,-3.6492,-3.6492,-3.6492,-3.6492,-3.748,-3.748,-3.748,-3.748,-3.748,-3.7105,-3.6846,-3.6646,-3.618,-3.5785,-3.58,-3.618,-3.6507,-3.6769,-3.715,-3.777,-3.8756,-3.9028,-3.961,-4.0549,-4.0823,-4.0871,-4.0871,-4.0871,-4.0871,-4.0871,-4.0871,-4.0871,-4.0871,-4.0871,-4.0871,-4.0871,-4.0918,-4.0871,-4.0871,-4.0871,-4.0871,-4.0871,-4.0871,-4.0871,-4.0871,-4.0871,-4.0871,-4.0871,-4.0871,-4.0871,-4.0871,-4.0871,-4.0935,-4.0982,-4.1047,-4.1157,-4.1233,-4.1261,-4.129,-4.118,-4.1318,-4.1244,-4.1105,-4.1047,-4.0982,-4.0982,-4.0935,-4.0918,-4.0871,-4.0871,-4.0871,-4.0871,-4.0871,-4.0871,-4.0871,-4.0871,-4.0871,-4.0871,-4.0871,-4.0871,-4.0871,-4.0871,-4.0871,-4.0871,-4.0871,-4.0871,-4.0871,-4.0871,-4.0871,-4.0871,-4.0871,-4.0871,-4.0871,-4.0871,-4.0871,-4.0871,-4.0871,-4.0871,-4.0871,-4.0758,-4.05,-4.007,-3.9732,-3.9456,-3.8924,-3.8165,-3.7695,-3.7105,-3.6739,-3.6492,-3.6492,-3.6554,-3.6785,-3.6846,-3.6662,-3.6492,-3.6492,-3.6492,-3.6492,-3.748,-3.748,-3.748,-3.748,-3.748,-3.7089,-3.6907,-3.6708,-3.6507,-3.6368,-3.6305,-3.6723,-3.6984,-3.7105,-3.7405,-3.7902,-3.8865,-3.9152,-3.9558,-4.0549,-4.0823,-4.0871,-4.0871,-4.0871,-4.0871,-4.0871,-4.0871,-4.0871,-4.0871,-4.0871,-4.0871,-4.0918,-4.0918,-4.0935,-4.0935,-4.0871,-4.0871,-4.0871,-4.0871,-4.0871,-4.0871,-4.0871,-4.0871,-4.0871,-4.0871,-4.0871,-4.0871,-4.0871,-4.0871,-4.0935,-4.1,-4.1047,-4.1093,-4.1169,-4.1198,-4.1134,-4.1105,-4.1105,-4.1105,-4.1047,-4.1047,-4.1093,-4.0982,-4.0935,-4.0871,-4.0871,-4.0871,-4.0871,-4.0871,-4.0871,-4.0871,-4.0871,-4.0871,-4.0871,-4.0871,-4.0871,-4.0871,-4.0871,-4.0871,-4.0871,-4.0871,-4.0871,-4.0871,-4.0871,-4.0871,-4.0871,-4.0871,-4.0871,-4.0871,-4.0871,-4.0871,-4.0871,-4.0871,-4.0871,-4.071,-4.05,-4.017,-3.98,-3.9473,-3.9139,-3.8502,-3.7695,-3.7373,-3.7105,-3.6739,-3.6554,-3.6492,-3.6616,-3.6723,-3.6723,-3.6662,-3.6554,-3.6492,-3.6492,-3.6492,-3.748,-3.748,-3.748,-3.748,-3.748,-3.748,-3.7165,-3.68,-3.7241,-3.7165,-3.6785,-3.727,-3.7449,-3.748,-3.7539,-3.7943,-3.8463,-3.9028,-3.961,-4.017,-4.0728,-4.0823,-4.0871,-4.0871,-4.0871,-4.0871,-4.0871,-4.0871,-4.0871,-4.0871,-4.0871,-4.0918,-4.0982,-4.0982,-4.0918,-4.0871,-4.0871,-4.0871,-4.0871,-4.0871,-4.0871,-4.0871,-4.0871,-4.0871,-4.0871,-4.0871,-4.0871,-4.0871,-4.0871,-4.0918,-4.0935,-4.0918,-4.0918,-4.1012,-4.0965,-4.0965,-4.1029,-4.1105,-4.1105,-4.1029,-4.1047,-4.1047,-4.1,-4.0935,-4.0871,-4.0871,-4.0871,-4.0871,-4.0871,-4.0871,-4.0871,-4.0871,-4.0871,-4.0871,-4.0871,-4.0871,-4.0871,-4.0871,-4.0871,-4.0871,-4.0871,-4.0871,-4.0871,-4.0871,-4.0871,-4.0871,-4.0871,-4.0871,-4.0871,-4.0871,-4.0871,-4.0871,-4.0871,-4.0871,-4.0662,-4.0385,-3.9919,-3.9542,-3.8887,-3.8502,-3.7812,-3.7373,-3.721,-3.6968,-3.6739,-3.6554,-3.6492,-3.6492,-3.6554,-3.6554,-3.66,-3.6554,-3.6492,-3.6492,-3.6492,-3.748,-3.748,-3.748,-3.748,-3.748,-3.748,-3.7421,-3.7285,-3.748,-3.7361,-3.7285,-3.7812,-3.7828,-3.7539,-3.7886,-3.8367,-3.881,-3.9242,-3.9885,-4.0402,-4.0776,-4.0871,-4.0871,-4.0871,-4.0871,-4.0871,-4.0871,-4.0871,-4.0871,-4.0871,-4.0918,-4.0918,-4.0982,-4.0935,-4.0918,-4.0871,-4.0871,-4.0871,-4.0871,-4.0871,-4.0871,-4.0871,-4.0871,-4.0871,-4.0871,-4.0871,-4.0871,-4.0871,-4.0871,-4.0871,-4.0871,-4.0871,-4.0918,-4.0918,-4.0918,-4.0918,-4.0935,-4.0982,-4.0965,-4.0982,-4.0982,-4.0982,-4.0935,-4.0935,-4.0871,-4.0871,-4.0871,-4.0871,-4.0871,-4.0871,-4.0871,-4.0871,-4.0871,-4.0871,-4.0871,-4.0871,-4.0871,-4.0871,-4.0871,-4.0871,-4.0871,-4.0871,-4.0871,-4.0871,-4.0871,-4.0871,-4.0871,-4.0871,-4.0871,-4.0871,-4.0871,-4.0871,-4.0871,-4.0871,-4.0614,-4.0286,-3.9765,-3.9242,-3.8629,-3.8084,-3.7653,-3.7329,-3.715,-3.7013,-3.7013,-3.6785,-3.6492,-3.66,-3.6892,-3.66,-3.6538,-3.6554,-3.6492,-3.6554,-3.6616,-3.748,-3.748,-3.748,-3.748,-3.748,-3.748,-3.748,-3.748,-3.748,-3.7583,-3.7828,-3.8124,-3.8141,-3.7943,-3.8197,-3.8574,-3.9135,-3.9189,-3.9782,-4.0614,-4.0871,-4.0871,-4.0871,-4.0871,-4.0871,-4.0871,-4.0871,-4.0871,-4.0935,-4.0935,-4.0982,-4.0871,-4.0935,-4.0935,-4.0935,-4.0871,-4.0871,-4.0871,-4.0871,-4.0871,-4.0871,-4.0871,-4.0871,-4.0871,-4.0871,-4.0871,-4.0871,-4.0871,-4.0871,-4.0871,-4.0871,-4.0871,-4.0935,-4.0935,-4.0935,-4.0935,-4.1,-4.0935,-4.0935,-4.0918,-4.0871,-4.0871,-4.0871,-4.0871,-4.0871,-4.0871,-4.0871,-4.0871,-4.0871,-4.0871,-4.0871,-4.0871,-4.0871,-4.0871,-4.0871,-4.0871,-4.0871,-4.0871,-4.0871,-4.0871,-4.0871,-4.0871,-4.0871,-4.0871,-4.0871,-4.0871,-4.0871,-4.0871,-4.0871,-4.0871,-4.0871,-4.0871,-4.0871,-4.0871,-4.0549,-4.012,-3.961,-3.8974,-3.8327,-3.7828,-3.7508,-3.7449,-3.7433,-3.7417,-3.746,-3.7282,-3.7163,-3.7282,-3.7385,-3.7087,-3.6997,-3.7181,-3.7121,-3.6831,-3.6877,-3.748,-3.748,-3.748,-3.748,-3.748,-3.748,-3.748,-3.7539,-3.7583,-3.7844,-3.8238,-3.8351,-3.8407,-3.8423,-3.8613,-3.8887,-3.9279,-3.9454,-3.9919,-4.0871,-4.0871,-4.0871,-4.0871,-4.0871,-4.0871,-4.0871,-4.0871,-4.0871,-4.0935,-4.0982,-4.0982,-4.0871,-4.0982,-4.1,-4.0935,-4.0871,-4.0871,-4.0871,-4.0871,-4.0871,-4.0871,-4.0871,-4.0871,-4.0871,-4.0871,-4.0871,-4.0871,-4.0871,-4.0871,-4.0871,-4.0871,-4.0871,-4.0935,-4.0982,-4.0982,-4.0982,-4.1029,-4.0982,-4.0935,-4.0871,-4.0871,-4.0871,-4.0871,-4.0871,-4.0871,-4.0871,-4.0871,-4.0871,-4.0871,-4.0871,-4.0871,-4.0871,-4.0871,-4.0871,-4.0871,-4.0871,-4.0871,-4.0871,-4.0871,-4.0871,-4.0871,-4.0871,-4.0871,-4.0871,-4.0871,-4.0871,-4.0871,-4.0871,-4.0871,-4.0871,-4.0871,-4.0871,-4.0871,-4.0823,-4.0402,-3.9969,-3.9401,-3.8756,-3.8116,-3.7844,-3.7653,-3.7727,-3.7844,-3.8042,-3.8238,-3.8124,-3.8051,-3.801,-3.7863,-3.7726,-3.7674,-3.795,-3.7823,-3.7377,-3.7121,-3.748,-3.748,-3.748,-3.748,-3.748,-3.748,-3.748,-3.7524,-3.7927,-3.8197,-3.8351,-3.8756,-3.8974,-3.9011,-3.9315,-3.9594,-3.9697,-3.9765,-4.022,-4.071,-4.0871,-4.0871,-4.0871,-4.0871,-4.0871,-4.0871,-4.0871,-4.0871,-4.0935,-4.0935,-4.0935,-4.0871,-4.0935,-4.0935,-4.0888,-4.0871,-4.0871,-4.0871,-4.0871,-4.0871,-4.0871,-4.0871,-4.0871,-4.0871,-4.0871,-4.0871,-4.0871,-4.0871,-4.0871,-4.0871,-4.0871,-4.0871,-4.0871,-4.0935,-4.1012,-4.1088,-4.1012,-4.0965,-4.0918,-4.0871,-4.0871,-4.0871,-4.0871,-4.0871,-4.0871,-4.0871,-4.0871,-4.0871,-4.0871,-4.0871,-4.0871,-4.0871,-4.0871,-4.0871,-4.0871,-4.0871,-4.0871,-4.0871,-4.0871,-4.0871,-4.0871,-4.0871,-4.0871,-4.0871,-4.0871,-4.0871,-4.0871,-4.0871,-4.0871,-4.0871,-4.0871,-4.0871,-4.0871,-4.071,-4.0336,-3.9817,-3.9242,-3.8645,-3.8059,-3.7886,-3.7812,-3.8141,-3.8423,-3.8865,-3.9119,-3.8849,-3.8502,-3.8294,-3.8189,-3.8277,-3.8237,-3.8415,-3.8262,-3.7828,-3.7535,-3.748,-3.748,-3.748,-3.748,-3.748,-3.748,-3.748,-3.7583,-3.8084,-3.8463,-3.8794,-3.9279,-3.9558,-3.9558,-3.9902,-4.0053,-4.0003,-4.0003,-4.0336,-4.071,-4.0871,-4.0871,-4.0871,-4.0871,-4.0871,-4.0871,-4.0871,-4.0871,-4.0871,-4.0871,-4.0918,-4.0871,-4.0871,-4.0871,-4.0871,-4.0871,-4.0871,-4.0871,-4.0871,-4.0871,-4.0871,-4.0871,-4.0871,-4.0871,-4.0871,-4.0871,-4.0871,-4.0871,-4.0871,-4.0871,-4.0871,-4.0871,-4.0935,-4.0982,-4.1012,-4.1012,-4.1012,-4.0935,-4.0918,-4.0871,-4.0871,-4.0871,-4.0871,-4.0871,-4.0871,-4.0871,-4.0871,-4.0871,-4.0871,-4.0871,-4.0871,-4.0871,-4.0871,-4.0871,-4.0871,-4.0871,-4.0871,-4.0871,-4.0871,-4.0871,-4.0871,-4.0871,-4.0871,-4.0871,-4.0871,-4.0871,-4.0871,-4.0871,-4.0871,-4.0871,-4.0871,-4.0871,-4.0871,-4.0871,-4.0614,-3.9935,-3.9135,-3.8551,-3.8059,-3.827,-3.8423,-3.8739,-3.9065,-3.9295,-3.9401,-3.9242,-3.8957,-3.8684,-3.8957,-3.9193,-3.9032,-3.8865,-3.8574,-3.8351,-3.8026,-3.7421,-3.7421,-3.7405,-3.7421,-3.748,-3.748,-3.7524,-3.7685,-3.8197,-3.8778,-3.9348,-3.9851,-4.007,-4.012,-4.012,-4.0103,-4.0153,-4.0269,-4.0597,-4.0758,-4.0871,-4.0871,-4.0871,-4.0871,-4.0871,-4.0871,-4.0871,-4.0871,-4.0871,-4.0871,-4.0871,-4.0871,-4.0871,-4.0871,-4.0871,-4.0871,-4.0871,-4.0871,-4.0871,-4.0871,-4.0871,-4.0871,-4.0871,-4.0871,-4.0871,-4.0871,-4.0871,-4.0871,-4.0871,-4.0871,-4.0871,-4.0871,-4.0935,-4.1,-4.0935,-4.0965,-4.0982,-4.0935,-4.0918,-4.0871,-4.0871,-4.0871,-4.0871,-4.0871,-4.0871,-4.0871,-4.0871,-4.0871,-4.0871,-4.0871,-4.0871,-4.0871,-4.0871,-4.0871,-4.0871,-4.0871,-4.0871,-4.0871,-4.0871,-4.0871,-4.0871,-4.0871,-4.0871,-4.0871,-4.0871,-4.0871,-4.0871,-4.0871,-4.0871,-4.0871,-4.0871,-4.0871,-4.0871,-4.0823,-4.0662,-3.9986,-3.9044,-3.8701,-3.8311,-3.8701,-3.9028,-3.9295,-3.947,-3.947,-3.947,-3.9295,-3.9295,-3.9189,-3.9523,-3.985,-3.9679,-3.9348,-3.9295,-3.9028,-3.8518,-3.6846,-3.6846,-3.6831,-3.7089,-3.748,-3.7539,-3.7727,-3.8197,-3.8739,-3.9348,-3.9851,-4.0402,-4.0728,-4.071,-4.071,-4.071,-4.0597,-4.0597,-4.071,-4.0871,-4.0935,-4.0935,-4.0871,-4.0871,-4.0871,-4.0871,-4.0871,-4.0871,-4.0871,-4.0871,-4.0871,-4.0871,-4.0871,-4.0871,-4.0871,-4.0871,-4.0871,-4.0871,-4.0871,-4.0871,-4.0871,-4.0871,-4.0871,-4.0871,-4.0871,-4.0871,-4.0871,-4.0871,-4.0871,-4.0871,-4.0918,-4.0918,-4.0935,-4.0953,-4.0935,-4.0918,-4.0935,-4.0935,-4.0918,-4.0871,-4.0871,-4.0871,-4.0871,-4.0871,-4.0871,-4.0871,-4.0871,-4.0871,-4.0871,-4.0871,-4.0871,-4.0871,-4.0871,-4.0871,-4.0871,-4.0871,-4.0871,-4.0871,-4.0871,-4.0871,-4.0871,-4.0823,-4.0662,-4.0728,-4.0823,-4.0871,-4.0871,-4.0871,-4.0871,-4.0871,-4.0871,-4.0871,-4.0871,-4.0385,-4.007,-3.9765,-3.9082,-3.8739,-3.8629,-3.9065,-3.947,-3.9867,-3.9969,-3.9592,-3.9418,-3.9242,-3.9312,-3.9365,-3.9644,-3.985,-4.002,-3.9969,-3.9901,-3.9523,-3.8849]},{"header":{"parameterUnit":"m.s-1","parameterCategory":1,"la1":31.0,"la2":29.5877,"lo1":-88.7671,"lo2":-86.6584,"dy":0.0162,"dx":0.0185,"nx":115,"ny":88,"refTime":"2024-07-19T00:00:00:Z","depth":0,"parameterNumber":3,"parameterNumberName":"V-component_of_WINDS"},"data":[0.0,0.0,0.0,0.0,0.0,0.0,0.0,0.0,0.0,0.0,0.0,0.0,0.0,0.0,0.0,0.0,0.0,0.0,0.0,0.0,0.0,0.0,0.0,0.0,0.0,0.0,0.0,0.0,0.0,0.0,0.0,0.0,0.0,0.0,0.0,0.0,0.0,0.0,0.0,0.0,0.0,0.0,0.0,0.0,0.0,0.0,0.0,0.0,0.0,0.0,0.0,0.0,0.0,0.0,0.0,0.0,0.0,0.0,0.0,0.0,0.0,0.0,0.0,0.0,0.0,0.0,0.0,0.0,0.0,0.0,0.0,0.0,0.0,0.0,0.0,0.0,0.0,0.0,0.0,0.0,0.0,0.0,0.0,0.0,0.0,0.0,0.0,0.0,0.0,0.0,0.0,0.0,0.0,0.0,0.0,0.0,0.0,0.0,0.0,0.0,0.0,0.0,0.0,0.0,0.0,0.0,0.0,0.0,0.0,0.0,0.0,0.0,0.0,0.0,0.0,0.0,0.0,0.0,0.0,0.0,0.0,0.0,0.0,0.0,0.0,0.0,0.0,0.0,0.0,0.0,0.0,0.0,0.0,0.0,0.0,0.0,0.0,0.0,0.0,0.0,0.0,0.0,0.0,0.0,0.0,0.0,0.0,0.0,0.0,0.0,0.0,0.0,0.0,0.0,0.0,0.0,0.0,0.0,0.0,0.0,0.0,0.0,0.0,0.0,0.0,0.0,0.0,0.0,0.0,0.0,0.0,0.0,0.0,0.0,0.0,0.0,0.0,0.0,0.0,0.0,0.0,0.0,0.0,0.0,0.0,0.0,0.0,0.0,0.0,0.0,0.0,0.0,0.0,0.0,0.0,0.0,0.0,0.0,0.0,0.0,0.0,0.0,0.0,0.0,0.0,0.0,0.0,0.0,0.0,0.0,0.0,0.0,0.0,0.0,0.0,0.0,0.0,0.0,0.0,0.0,0.0,0.0,0.0,0.0,0.0,0.0,0.0,0.0,0.0,0.0,0.0,0.0,0.0,0.0,0.0,0.0,0.0,0.0,0.0,0.0,0.0,0.0,0.0,0.0,0.0,0.0,0.0,0.0,0.0,0.0,0.0,0.0,0.0,0.0,0.0,0.0,0.0,0.0,0.0,0.0,0.0,0.0,0.0,0.0,0.0,0.0,0.0,0.0,0.0,0.0,0.0,0.0,0.0,0.0,0.0,0.0,0.0,0.0,0.0,0.0,0.0,0.0,0.0,0.0,0.0,0.0,0.0,0.0,0.0,0.0,0.0,0.0,0.0,0.0,0.0,0.0,0.0,0.0,0.0,0.0,0.0,0.0,0.0,0.0,0.0,0.0,0.0,0.0,0.0,0.0,0.0,0.0,0.0,0.0,0.0,0.0,0.0,0.0,0.0,0.0,0.0,0.0,0.0,0.0,0.0,0.0,0.0,0.0,0.0,0.0,0.0,0.0,0.0,0.0,0.0,0.0,0.0,0.0,0.0,0.0,0.0,0.0,0.0,0.0,0.0,0.0,0.0,0.0,0.0,0.0,0.0,0.0,0.0,0.0,0.0,0.0,0.0,0.0,0.0,0.0,0.0,0.0,0.0,0.0,0.0,0.0,0.0,0.0,0.0,0.0,0.0,0.0,0.0,0.0,0.0,0.0,0.0,0.0,0.0,0.0,0.0,0.0,0.0,0.0,0.0,0.0,0.0,0.0,0.0,0.0,0.0,0.0,0.0,0.0,0.0,0.0,0.0,0.0,0.0,0.0,0.0,0.0,0.0,0.0,0.0,0.0,0.0,0.0,0.0,0.0,0.0,0.0,0.0,0.0,0.0,0.0,0.0,0.0,0.0,0.0,0.0,0.0,0.0,0.0,0.0,0.0,0.0,0.0,0.0,0.0,0.0,0.0,0.0,0.0,0.0,0.0,0.0,0.0,0.0,0.0,0.0,0.0,0.0,0.0,0.0,0.0,0.0,0.0,0.0,0.0,0.0,0.0,0.0,0.0,0.0,0.0,0.0,0.0,0.0,0.0,0.0,0.0,0.0,0.0,0.0,0.0,0.0,0.0,0.0,0.0,0.0,0.0,0.0,0.0,0.0,0.0,0.0,0.0,0.0,0.0,0.0,0.0,0.0,0.0,0.0,0.0,0.0,0.0,0.0,0.0,0.0,0.0,0.0,0.0,0.0,0.0,0.0,0.0,0.0,0.0,0.0,0.0,0.0,0.0,0.0,0.0,0.0,0.0,0.0,0.0,0.0,0.0,0.0,0.0,0.0,0.0,0.0,0.0,0.0,0.0,0.0,0.0,0.0,0.0,0.0,0.0,0.0,0.0,0.0,0.0,0.0,0.0,0.0,0.0,0.0,0.0,0.0,0.0,0.0,0.0,0.0,0.0,0.0,0.0,0.0,0.0,0.0,0.0,0.0,0.0,0.0,0.0,0.0,0.0,0.0,0.0,0.0,0.0,0.0,0.0,0.0,0.0,0.0,0.0,0.0,0.0,0.0,0.0,0.0,0.0,0.0,0.0,0.0,0.0,0.0,0.0,0.0,0.0,0.0,0.0,0.0,0.0,0.0,0.0,0.0,0.0,0.0,0.0,0.0,0.0,0.0,0.0,0.0,0.0,0.0,0.0,0.0,0.0,0.0,0.0,0.0,0.0,0.0,0.0,0.0,0.0,0.0,0.0,0.0,0.0,0.0,0.0,0.0,0.0,0.0,0.0,0.0,0.0,0.0,0.0,0.0,0.0,0.0,0.0,0.0,0.0,0.0,0.0,0.0,0.0,0.0,0.0,0.0,0.0,0.0,0.0,0.0,0.0,0.0,0.0,0.0,0.0,0.0,0.0,0.0,0.0,0.0,0.0,0.0,0.0,0.0,0.0,0.0,0.0,0.0,0.0,0.0,0.0,0.0,0.0,0.0,0.0,0.0,0.0,0.0,0.0,0.0,0.0,0.0,0.0,0.0,0.0,0.0,0.0,0.0,0.0,0.0,0.0,0.0,0.0,0.0,0.0,0.0,0.0,0.0,0.0,0.0,0.0,0.0,0.0,0.0,0.0,0.0,0.0,0.0,0.0,0.0,0.0,0.0,0.0,0.0,0.0,0.0,0.0,0.0,0.0,0.0,0.0,0.0,0.0,0.0,0.0,0.0,0.0,0.0,0.0,0.0,0.0,0.0,0.0,0.0,0.0,0.0,0.0,0.0,0.0,0.0,0.0,0.0,0.0,0.0,0.0,0.0,0.0,0.0,0.0,0.0,0.0,0.0,0.0,0.0,0.0,0.0,0.0,0.0,0.0,0.0,0.0,0.0,0.0,0.0,0.0,0.0,0.0,0.0,0.0,0.0,0.0,0.0,0.0,0.0,0.0,0.0,0.0,0.0,0.0,0.0,0.0,0.0,0.0,0.0,0.0,0.0,0.0,0.0,0.0,0.0,0.0,0.0,0.0,0.0,0.0,0.0,0.0,0.0,0.0,0.0,0.0,0.0,0.0,0.0,0.0,0.0,0.0,0.0,0.0,0.0,0.0,0.0,0.0,0.0,0.0,0.0,0.0,0.0,0.0,0.0,0.0,0.0,0.0,0.0,0.0,0.0,0.0,0.0,0.0,0.0,0.0,0.0,0.0,0.0,0.0,0.0,0.0,0.0,0.0,0.0,0.0,0.0,0.0,0.0,0.0,0.0,0.0,0.0,0.0,0.0,0.0,0.0,0.0,0.0,0.0,0.0,0.0,0.0,0.0,0.0,0.0,0.0,0.0,0.0,0.0,0.0,0.0,0.0,0.0,0.0,0.0,0.0,0.0,0.0,0.0,0.0,0.0,0.0,0.0,0.0,0.0,0.0,0.0,0.0,0.0,0.0,0.0,0.0,0.0,0.0,0.0,0.0,0.0,0.0,0.0,0.0,0.0,0.0,0.0,0.0,0.0,0.0,0.0,0.0,0.0,0.0,0.0,0.0,0.0,0.0,0.0,0.0,0.0,0.0,0.0,0.0,0.0,0.0,0.0,0.0,0.0,0.0,0.0,0.0,0.0,0.0,0.0,0.0,0.0,0.0,0.0,0.0,0.0,0.0,0.0,0.0,0.0,0.0,0.0,0.0,0.0,0.0,0.0,0.0,0.0,0.0,0.0,0.0,0.0,0.0,0.0,0.0,0.0,0.0,0.0,0.0,0.0,0.0,0.0,0.0,0.0,0.0,0.0,0.0,0.0,0.0,0.0,0.0,0.0,0.0,0.0,0.0,0.0,0.0,0.0,0.0,0.0,0.0,0.0,0.7419,0.0,0.0,0.0,0.0,0.0,0.0,0.0,0.0,0.0,0.0,0.0,0.0,0.0,0.0,0.0,0.0,0.0,0.0,0.0,0.0,0.0,0.0,0.0,0.0,0.0,0.0,0.0,0.0,0.0,0.0,0.0,0.0,0.0,0.0,0.0,0.0,0.0,0.0,0.0,0.0,0.0,0.0,0.0,0.0,0.0,0.0,0.0,0.0,0.0,0.0,0.0,0.0,0.0,0.0,0.0,0.0,0.0,0.0,0.0,0.0,0.0,0.0,0.0,0.0,0.0,0.0,0.0,0.0,0.0,0.0,0.0,0.0,0.0,0.0,0.0,0.0,0.0,0.0,0.0,0.0,0.0,0.0,0.0,0.0,0.0,0.0,0.0,0.0,0.0,0.0,0.0,0.0,0.0,0.0,0.0,0.0,0.0,0.0,0.0,0.0,0.0,0.0,0.0,0.0,0.0,0.0,0.0,0.0,0.0,0.0,0.5047,0.4435,0.6511,0.742,0.6934,0.0,0.0,0.0,0.0,0.0,0.0,0.0,0.0,0.0,0.0,0.0,0.0,0.0,0.0,0.0,0.0,0.0,0.0,0.0,0.0,0.0,0.0,0.0,0.0,0.0,0.0,0.0,0.0,0.0,0.0,0.0,0.0,0.0,0.0,0.0,0.0,0.0,0.0,0.0,0.0,0.0,0.0,0.0,0.0,0.0,0.0,0.0,0.0,0.0,0.0,0.0,0.0,0.0,0.0,0.0,0.0,0.0,0.0,0.0,0.0,0.0,0.0,0.0,0.0,0.0,0.0,0.0,0.0,0.0,0.0,0.0,0.0,0.0,0.0,0.0,0.0,0.0,0.0,0.0,0.0,0.0,0.0,0.0,0.0,0.0,0.0,0.0,0.0,0.0,0.0,0.0,0.0,0.0,0.0,0.0,0.0,0.0,0.0,0.0,0.0,0.0,0.0,0.0,0.0,0.0,0.0,0.0,0.0,0.0,0.0,0.0,0.0,0.6782,0.7698,0.7047,0.0,0.0,0.0,0.0,0.0,0.0,0.0,0.0,0.0,0.0,0.0,0.0,0.0,0.0,0.0,0.0,0.0,0.0,0.0,0.0,0.0,0.0,0.0,0.0,0.0,0.0,0.0,0.0,0.0,0.0,0.0,0.0,0.0,0.0,0.0,0.0,0.0,0.0,0.0,0.0,0.0,0.0,0.0,0.0,0.0,0.0,0.0,0.0,0.0,0.0,0.0,0.0,0.0,0.0,0.0,0.0,0.0,0.0,0.0,0.0,0.0,0.0,0.0,0.0,0.0,0.0,0.0,0.0,0.0,0.0,0.0,0.0,0.0,0.0,0.0,0.0,0.0,0.0,0.0,0.0,0.0,0.0,0.0,0.0,0.0,0.0,0.0,0.0,0.0,0.0,0.0,0.0,0.0,0.0,0.0,0.0,0.0,0.0,0.0,0.0,0.0,0.0,0.0,0.0,0.0,0.0,0.0,0.0,0.0,0.0,0.6814,0.9015,0.892,0.0,0.8711,0.0,0.0,0.0,0.0,0.0,0.0,0.0,0.0,0.0,0.0,0.0,0.0,0.0,0.0,0.0,0.0,0.0,0.0,0.0,0.0,0.0,0.0,0.0,0.0,0.0,0.0,0.0,0.0,0.0,0.0,0.0,0.0,0.0,0.0,0.0,0.0,0.0,0.0,0.0,0.0,0.0,0.0,0.0,0.0,0.0,0.0,0.0,0.0,0.0,0.0,0.0,0.0,0.0,0.0,0.0,0.0,0.0,0.0,0.0,0.0,0.0,0.0,0.0,0.0,0.0,0.0,0.0,0.0,0.0,0.0,0.0,0.0,0.0,0.0,0.0,0.0,0.0,0.0,0.0,0.0,0.0,0.0,0.0,0.0,0.0,0.0,0.0,0.0,0.0,0.0,0.0,0.0,0.0,0.0,0.0,0.0,0.0,0.0,0.0,0.0,0.0,0.0,0.0,0.0,0.0,0.0,0.0,0.0,0.0,0.0,0.0,0.8459,0.828,0.8187,0.0,0.0,0.0,0.0,0.0,0.0,0.0,0.0,0.0,0.0,0.0,0.0,0.0,0.0,0.0,0.0,0.0,0.0,0.0,0.0,0.0,0.0,0.0,0.0,0.0,0.0,0.0,0.0,0.0,0.0,0.0,0.0,0.0,0.0,0.0,0.0,0.0,0.0,0.0,0.0,0.0,0.0,0.0,0.0,0.0,0.0,0.0,0.0,0.0,0.0,0.0,0.0,0.0,0.0,0.0,0.0,0.0,0.0,0.0,0.0,0.0,0.0,0.0,0.0,0.0,0.0,0.0,0.0,0.0,0.0,0.0,0.0,0.0,0.0,0.0,0.0,0.0,0.0,0.0,0.0,0.0,0.0,0.0,0.0,0.0,0.0,0.0,0.0,0.0,0.0,0.0,0.0,0.0,0.0,0.0,0.0,0.0,0.0,0.0,0.0,0.0,0.0,0.0,0.0,0.0,0.0,0.0,0.0,0.0,0.0,0.7438,0.0,0.8311,0.7859,0.7635,0.7666,0.0,0.0,0.0,0.0,0.0,0.0,0.0,0.0,0.0,0.0,0.0,0.0,0.0,0.0,0.0,0.0,0.0,0.0,0.0,0.0,0.0,0.0,0.0,0.0,0.0,0.0,0.0,0.0,0.0,0.0,0.0,0.0,0.0,0.0,0.0,0.0,0.0,0.0,0.0,0.0,0.0,0.0,0.0,0.0,0.0,0.0,0.0,0.0,0.0,0.0,0.0,0.0,0.0,0.0,0.0,0.0,0.0,0.0,0.0,0.0,0.0,0.0,0.0,0.0,0.0,0.0,0.0,0.0,0.0,0.0,0.0,0.0,0.0,0.0,0.0,0.0,0.0,0.0,0.0,0.0,0.0,0.0,0.0,0.0,0.0,0.0,0.0,0.0,0.0,0.0,0.0,0.0,0.0,0.0,0.0,0.0,0.0,0.0,0.0,0.0,0.0,0.0,0.0,0.0,0.0,0.0,0.0,0.0,0.0,0.8196,0.8418,1.0061,0.853,0.7597,0.0,0.0,0.0,0.0,0.0,0.0,0.0,0.0,0.0,0.0,0.0,0.0,0.0,0.0,0.0,0.0,0.0,0.0,0.0,0.0,0.0,0.0,0.0,0.0,0.0,0.0,0.0,0.0,0.0,0.0,0.0,0.0,0.0,0.0,0.0,0.0,0.0,0.0,0.0,0.0,0.0,0.0,0.0,0.0,0.0,0.0,0.0,0.0,0.0,0.0,0.0,0.0,0.0,0.0,0.0,0.0,0.0,0.0,0.0,0.0,0.0,0.0,0.0,0.0,0.0,0.0,0.0,0.0,0.0,0.0,0.0,0.0,0.0,0.0,0.0,0.0,0.0,0.0,0.0,0.0,0.0,0.0,0.0,0.0,0.0,0.0,0.0,0.0,0.0,0.0,0.0,0.0,0.0,0.0,0.0,0.0,0.0,0.0,0.0,0.0,0.0,0.0,0.0,0.0,0.0,0.0,0.0,0.0,0.0,0.6449,0.7727,0.9277,1.098,0.9385,0.8165,0.0,0.0,0.0,0.0,0.0,0.0,0.0,0.0,0.0,0.0,0.0,0.0,0.0,0.0,0.0,0.0,0.0,0.0,0.0,0.0,0.0,0.0,0.0,0.0,0.0,0.0,0.0,0.0,0.0,0.0,0.0,0.0,0.0,0.0,0.0,0.0,0.0,0.0,0.0,0.0,0.0,0.0,0.0,0.0,0.0,0.0,0.0,0.0,0.0,0.0,0.0,0.0,0.0,0.0,0.0,0.0,0.0,0.0,0.0,0.0,0.0,0.0,0.0,0.0,0.0,0.0,0.0,0.0,0.0,0.0,0.0,0.0,0.0,0.0,0.0,0.0,0.0,0.0,0.0,0.0,0.0,0.0,0.0,0.0,0.0,0.0,0.0,0.0,0.0,0.0,0.0,0.0,0.0,0.0,0.0,0.0,0.0,0.0,0.0,0.0,0.0,0.0,0.0,0.0,0.0,0.0,0.0,0.0,0.0,0.6508,0.0,1.0625,0.0,0.985,0.8371,0.0,0.0,0.0,0.0,0.0,0.0,0.0,0.0,0.0,0.0,0.0,0.0,0.0,0.0,0.0,0.0,0.0,0.0,0.0,0.0,0.0,0.0,0.0,0.0,0.0,0.0,0.0,0.0,0.0,0.0,0.0,0.0,0.0,0.0,0.0,0.0,0.0,0.0,0.0,0.0,0.0,0.0,0.0,0.0,0.0,0.0,0.0,0.0,0.0,0.0,0.0,0.0,0.0,0.0,0.0,0.0,0.0,0.0,0.0,0.0,0.0,0.0,0.0,0.0,0.0,0.0,0.0,0.0,0.0,0.0,0.0,0.0,0.0,0.0,0.0,0.0,0.0,0.0,0.0,0.0,0.0,0.0,0.0,0.0,0.0,0.0,0.0,0.0,0.0,0.0,0.0,0.0,0.0,0.0,0.0,0.0,0.0,0.0,0.0,0.0,0.0,0.0,0.0,0.0,0.0,0.0,0.0,0.0,0.6305,1.0075,1.1794,1.2246,1.1594,0.9868,0.8135,0.0,0.0,0.0,0.0,0.0,0.0,0.0,0.0,0.0,0.0,0.0,0.0,0.0,0.0,0.0,0.0,0.0,0.0,0.0,0.0,0.0,0.0,0.0,0.0,0.0,0.0,0.0,0.0,0.0,0.0,0.0,0.0,0.0,0.0,0.0,0.0,0.0,0.0,0.0,0.0,0.0,0.0,0.0,0.0,0.0,0.0,0.0,0.0,0.0,0.0,0.0,0.0,0.0,0.0,0.0,0.0,0.0,0.0,0.0,0.0,0.0,0.0,0.0,0.0,0.0,0.0,0.0,0.0,0.0,0.0,0.0,0.0,0.0,0.0,0.0,0.0,0.0,0.0,0.0,0.0,0.0,0.0,0.0,0.0,0.0,0.0,0.0,0.0,0.0,0.0,0.0,0.0,0.0,0.0,0.0,0.0,0.0,0.0,0.0,0.0,0.0,0.0,0.0,0.0,0.0,0.0,0.0,0.0,0.0,0.9868,1.0784,1.1555,1.1984,1.0391,0.9283,0.0,0.0,0.0,0.0,0.0,0.0,0.0,0.0,0.0,0.0,0.0,0.0,0.0,0.0,0.0,0.0,0.0,0.0,0.0,0.0,0.0,0.0,0.0,0.0,0.0,0.0,0.0,0.0,0.0,0.0,0.0,0.0,0.0,0.0,0.0,0.0,0.0,0.0,0.0,0.0,0.0,0.0,0.0,0.0,0.0,0.0,0.0,0.0,0.0,0.0,0.0,0.0,0.0,0.0,0.0,0.0,0.0,0.0,0.0,0.0,0.0,0.0,0.0,0.0,0.0,0.0,0.0,0.0,0.0,0.0,0.0,0.0,0.0,0.0,0.0,0.0,0.0,0.0,0.0,0.0,0.0,0.0,0.0,0.0,0.0,0.0,0.0,0.0,0.0,0.0,0.0,0.0,0.0,0.0,0.0,0.0,0.0,0.0,0.0,0.0,0.0,0.0,0.0,0.0,0.0,0.0,0.0,0.0,0.0,1.0838,1.1835,1.2544,1.2885,1.1357,1.0334,0.9914,0.0,0.0,0.0,0.0,0.0,0.0,0.0,0.0,0.0,0.0,0.0,0.0,0.0,0.0,0.0,0.0,0.0,0.0,0.0,0.0,0.0,0.0,0.0,0.0,0.0,0.0,0.0,0.0,0.0,0.0,0.0,0.0,0.0,0.0,0.0,0.0,0.0,0.0,0.0,0.0,0.0,0.0,0.0,0.0,0.0,0.0,0.0,0.0,0.0,0.0,0.0,0.0,0.0,0.0,0.0,0.0,0.0,0.0,0.0,0.0,0.0,0.0,0.0,0.0,0.0,0.0,0.0,0.0,0.0,0.0,0.0,0.0,0.0,0.0,0.0,0.0,0.0,0.0,0.0,0.0,0.0,0.0,0.0,0.0,0.0,0.0,0.0,0.0,0.0,0.0,0.0,0.0,0.0,0.0,0.0,0.0,0.0,0.0,0.0,0.0,0.0,0.0,0.0,0.0,0.0,0.0,0.0,0.0,1.2622,1.4463,1.4929,1.3988,1.2632,1.1259,0.0,0.0,0.0,0.0,0.0,0.0,0.0,0.0,0.0,0.0,0.0,0.0,0.0,0.0,0.0,0.0,0.0,0.0,0.0,0.0,0.0,0.0,0.0,0.0,0.0,0.0,0.0,0.0,0.0,0.0,0.0,0.0,0.0,0.0,0.0,0.0,0.0,0.0,0.0,0.0,0.0,0.0,0.0,0.0,0.0,0.0,0.0,0.0,0.0,0.0,0.0,0.0,0.0,0.0,0.0,0.0,0.0,0.0,0.0,0.0,0.0,0.0,0.0,0.0,0.0,0.0,0.0,0.0,0.0,0.0,0.0,0.0,0.0,0.0,0.0,0.0,0.0,0.0,0.0,0.0,0.0,0.0,0.0,0.0,0.0,0.0,0.0,0.0,0.0,0.0,0.0,0.0,0.0,0.0,0.0,0.0,0.0,0.0,0.0,0.0,0.0,0.0,0.0,0.0,0.0,0.0,0.0,0.0,0.0,1.3198,1.4725,1.5397,1.5052,1.3208,1.2157,0.0,0.0,0.0,0.0,0.0,0.0,0.0,0.0,0.0,0.0,0.0,0.0,0.0,0.0,0.0,0.0,0.0,0.0,0.0,0.0,0.0,0.0,0.0,0.0,0.0,0.0,0.0,0.0,0.0,0.0,0.0,0.0,0.0,0.0,0.0,0.0,0.0,0.0,0.0,0.0,0.0,0.0,0.0,0.0,0.0,0.0,0.0,0.0,0.0,0.0,0.0,0.0,0.0,0.0,0.0,0.0,0.0,0.0,0.0,0.0,0.0,0.0,0.0,0.0,0.0,0.0,0.0,0.0,0.0,0.0,0.0,0.0,0.0,0.0,0.0,0.0,0.0,0.0,0.0,0.0,0.0,0.0,0.0,0.0,0.0,0.0,0.0,0.0,0.0,0.0,0.0,0.0,0.0,0.0,0.0,0.0,0.0,0.0,0.0,0.0,0.0,0.0,0.0,0.0,0.0,0.0,0.0,0.0,1.2501,1.3492,1.5082,1.5952,1.5943,1.4357,1.3251,0.0,0.0,0.0,0.0,0.0,0.0,0.0,0.0,0.0,0.0,0.0,0.0,0.0,0.0,0.0,0.0,0.0,0.0,0.0,0.0,0.0,0.0,0.0,0.0,0.0,0.0,0.0,0.0,0.0,0.0,0.0,0.0,0.0,0.0,0.0,0.0,0.0,0.0,0.0,0.0,0.0,0.0,0.0,0.0,0.0,0.0,0.0,0.0,0.0,0.0,0.0,0.0,0.0,0.0,0.0,0.0,0.0,0.0,0.0,0.0,0.0,0.0,0.0,0.0,0.0,0.0,0.0,0.0,0.0,0.0,0.0,0.0,0.0,0.0,0.0,0.0,0.0,0.0,0.0,0.0,0.0,0.0,0.0,0.0,0.0,0.0,0.0,0.0,0.0,0.0,0.0,0.0,0.0,0.0,0.0,0.0,0.0,0.0,0.0,0.0,0.0,0.0,0.0,0.0,0.0,0.0,0.0,0.0,1.2928,1.3597,1.5389,1.6388,1.65,1.5568,1.425,0.0,0.0,0.0,0.0,0.0,0.0,0.0,0.0,0.0,0.0,0.0,0.0,0.0,0.0,0.0,0.0,0.0,0.0,0.0,0.0,0.0,0.0,0.0,0.0,0.0,0.0,0.0,0.0,0.0,0.0,0.0,0.0,0.0,0.0,0.0,0.0,0.0,0.0,0.0,0.0,0.0,0.0,0.0,0.0,0.0,0.0,0.0,0.0,0.0,0.0,0.0,0.0,0.0,0.0,0.0,0.0,0.0,0.0,0.0,0.0,0.0,0.0,0.0,0.0,0.0,0.0,0.0,0.0,0.0,0.0,0.0,0.0,0.0,0.0,0.0,0.0,0.0,0.0,0.0,0.0,0.0,0.0,0.0,0.0,0.0,0.0,0.0,0.0,0.0,0.0,0.0,0.0,0.0,0.0,0.0,0.0,0.0,0.0,0.0,0.0,0.0,0.0,0.0,0.0,0.0,0.0,0.0,0.0,1.3339,1.36,1.5131,1.5959,1.6045,1.5216,1.4146,0.0,0.0,0.0,0.0,0.0,0.0,0.0,0.0,0.0,0.0,0.0,0.0,0.0,0.0,0.0,0.0,0.0,0.0,0.0,0.0,0.0,0.0,0.0,0.0,0.0,0.0,0.0,0.0,0.0,0.0,0.0,0.0,0.0,0.0,0.0,0.0,0.0,0.0,0.0,0.0,0.0,0.0,0.0,0.0,0.0,0.0,0.0,0.0,0.4256,0.0,0.0,0.0,0.0,0.0,0.0,0.0,0.0,0.0,0.0,0.0,0.0,0.0,0.0,0.0,0.0,0.0,0.0,0.0,0.0,0.0,0.0,0.0,0.0,0.0,0.0,0.0,0.0,0.0,0.0,0.0,0.0,0.0,0.0,0.0,0.0,0.0,0.0,0.0,0.0,0.0,0.0,0.0,0.0,0.0,0.0,0.0,0.0,0.0,0.0,0.0,0.0,0.0,0.0,0.0,0.0,0.0,0.0,0.0,1.3444,1.3803,1.4958,1.5618,1.573,1.5455,1.4334,0.0,0.0,0.0,0.0,0.0,0.0,0.0,0.0,0.0,0.0,0.0,0.0,0.0,0.0,0.0,0.0,0.0,0.0,0.0,0.0,0.0,0.0,0.0,0.0,0.0,0.0,0.0,0.0,0.0,0.0,0.0,0.0,0.0,0.0,0.0,0.0,0.0,0.0,0.0,0.0,0.0,0.0,0.0,0.0,0.0,0.0,0.0,0.0,0.0,0.0,0.0,0.0,0.0,0.0,0.0,0.0,0.0,0.0,0.0,0.0,0.0,0.0,0.0,0.0,0.0,0.0,0.0,0.0,0.0,0.0,0.0,0.0,0.0,0.0,0.0,0.0,0.0,0.0,0.0,0.0,0.0,0.0,0.0,0.0,0.0,0.0,0.0,0.0,0.0,0.0,0.0,0.0,0.0,0.0,0.0,0.0,0.0,0.0,0.0,0.0,0.0,0.0,0.0,0.0,0.0,0.0,0.0,1.1568,1.3328,1.3987,1.4802,1.5349,1.5566,1.575,1.4516,1.1866,0.0,0.0,0.0,0.0,0.0,0.0,0.0,0.0,0.0,0.0,0.0,0.0,0.0,0.0,0.0,0.0,0.0,0.0,0.0,0.0,0.0,0.0,0.0,0.0,0.0,0.0,0.0,0.0,0.0,0.0,0.0,0.0,0.0,0.0,0.0,0.0,0.0,0.0,0.2777,0.195,0.0,0.0,0.0,0.0,0.0,0.0,0.0,0.0,0.1526,0.0,0.0,0.0,0.0,0.0,0.0,0.0,0.0,0.0,0.0,0.0,0.0,0.0,0.0,0.0,0.0,0.0,0.0,0.0,0.0,0.0,0.0,0.0,0.0,0.0,0.0,0.0,0.0,0.0,0.0,0.0,0.0,0.0,0.0,0.0,0.0,0.0,0.0,0.0,0.0,0.0,0.0,0.0,0.0,0.0,0.0,0.0,0.0,0.0,0.0,0.0,0.0,0.0,0.0,0.0,0.0,1.0015,1.1564,1.2889,1.3958,1.4621,1.513,1.5502,1.5441,1.4151,1.1574,0.0,0.0,0.0,0.0,0.0,0.0,0.0,0.0,0.0,0.0,0.0,0.0,0.0,0.0,0.0,0.0,0.0,0.0,0.0,0.0,0.0,0.0,0.0,0.0,0.0,0.0,0.0,0.0,0.0,0.0,0.0,0.0,0.0,0.0,0.0,0.0,0.0,0.0,0.0,-0.2591,-0.3103,0.0,0.0,0.0,0.0,0.0,0.0,0.0,0.0,0.3321,0.0,0.0,0.0,0.0,0.0,0.0,0.0,0.0,0.0,0.0,0.0,0.0,0.0,0.0,0.0,0.0,0.0,0.0,0.0,0.0,0.0,0.0,0.0,0.0,0.0,0.0,0.0,0.0,0.0,0.0,0.0,0.0,0.0,0.0,0.0,0.0,0.0,0.0,0.0,0.0,0.0,0.0,0.0,0.0,0.0,0.0,0.0,0.0,0.0,0.0,0.0,0.0,0.0,0.0,0.0,0.9914,1.138,1.267,1.3748,1.4157,1.4397,1.4545,1.4312,1.307,0.0,0.0,0.0,0.0,0.0,0.0,0.0,0.0,0.0,0.0,0.0,0.0,0.0,0.0,0.0,0.0,0.0,0.0,0.0,0.0,0.0,0.0,0.0,0.0,0.0,0.0,0.0,0.0,0.0,0.0,0.0,0.0,0.0,0.0,0.0,0.0,0.0,0.0,0.0,0.0,-0.5605,-0.6062,-0.6131,0.0,0.0,0.0,0.0,0.0,0.0,-0.0641,0.1937,0.0,0.0,0.0,0.0,0.0,0.0,0.0,0.0,0.0,0.0,0.0,0.0,0.0,0.0,0.0,0.0,0.0,0.0,0.0,0.0,0.0,0.0,0.0,0.0,0.0,0.0,0.0,0.0,0.0,0.0,0.0,0.0,0.0,0.0,0.0,0.0,0.0,0.0,0.0,0.0,0.0,0.0,0.0,0.0,0.0,0.0,0.0,0.0,0.0,0.0,0.0,0.0,0.0,0.0,0.0,0.9807,1.1034,1.2263,1.3403,1.3604,1.365,1.3625,1.3205,1.2132,0.0,0.0,0.0,0.0,0.0,0.0,0.0,0.0,0.0,0.0,0.0,0.0,0.0,0.0,0.0,0.0,0.0,0.0,0.0,0.0,0.0,0.0,0.0,0.0,0.0,0.0,0.0,0.0,0.0,0.0,0.0,0.0,0.0,0.0,0.0,0.0,0.0,0.0,0.0,0.0,0.0,-0.8616,-0.8007,-0.7813,0.0,0.0,0.0,0.0,-0.4326,-0.2746,0.0,0.0,0.0,0.0,0.0,0.0,0.0,0.0,0.0,0.0,0.0,0.0,0.0,0.0,0.0,0.0,0.0,0.0,0.0,0.0,0.0,0.0,0.0,0.0,0.0,0.0,0.0,0.0,0.0,0.0,0.0,0.0,0.0,0.0,0.0,0.0,0.0,0.0,0.0,0.0,0.0,0.0,0.0,0.0,0.0,0.0,0.0,0.0,0.0,0.0,0.0,0.0,0.0,0.0,0.0,0.0,1.0534,1.031,1.1108,1.2932,1.3087,1.3202,1.3411,1.3008,1.2022,0.0,0.0,0.0,0.0,0.0,0.0,0.0,0.0,0.0,0.0,0.0,0.0,0.0,0.0,0.0,0.0,0.0,0.0,0.0,0.0,0.0,0.0,0.0,0.0,0.0,0.0,0.0,0.0,0.0,0.0,0.0,0.0,0.0,0.0,0.0,0.0,0.0,0.0,0.0,0.0,0.0,-1.1013,-1.1888,-1.019,-0.8718,0.0,0.0,-0.7125,-0.6103,-0.4686,0.0,0.0,0.0,0.0,0.0,0.0,0.0,0.0,0.0,0.0,0.0,0.0,0.0,0.0,0.0,0.0,0.0,0.0,0.0,0.0,0.0,0.0,0.0,0.0,0.0,0.0,0.0,0.0,0.0,0.0,0.0,0.0,0.0,0.0,0.0,0.0,0.0,0.0,0.0,0.0,0.0,0.0,0.0,0.0,0.0,0.0,0.0,0.0,0.0,0.0,0.0,0.0,0.0,0.0,0.0,0.7988,1.0125,1.0034,1.0552,1.1852,1.2297,1.2355,1.2083,1.1675,1.0852,0.0,0.0,0.0,0.0,0.0,0.0,0.0,0.0,0.0,0.0,0.0,0.0,0.0,0.0,0.0,0.0,0.0,0.0,0.0,0.0,0.0,0.0,0.0,0.0,0.0,0.0,0.0,0.0,0.0,0.0,0.0,0.0,0.0,0.0,0.0,0.0,0.0,0.0,0.0,0.0,0.0,0.0,-1.3367,-1.1889,0.0,0.0,0.0,-0.8678,-0.859,0.0,0.0,0.0,0.0,0.0,0.0,0.0,0.0,0.0,0.0,0.0,0.0,0.0,0.0,0.0,0.0,0.0,0.0,0.0,0.0,0.0,0.0,0.0,0.0,0.0,0.0,0.0,0.0,0.0,0.0,0.0,0.0,0.0,0.0,0.0,0.0,0.0,0.0,0.0,0.0,0.0,0.0,0.0,0.0,0.0,0.0,0.0,0.0,0.0,0.0,0.0,0.0,0.0,0.0,0.0,0.0,0.0,0.985,0.9844,1.0224,1.0916,1.1388,1.1306,1.0642,1.034,0.0,0.0,0.0,0.0,0.0,0.0,0.0,0.0,0.0,0.0,0.0,0.0,0.0,0.0,0.0,0.0,0.0,0.0,0.0,0.0,0.0,0.0,0.0,0.0,0.0,0.0,0.0,-0.3729,0.0,0.0,0.0,0.0,0.0,0.0,0.0,0.0,0.0,0.0,0.0,0.0,0.0,0.0,-1.3306,-1.4027,-1.3091,-1.205,0.0,0.0,-1.035,-1.0785,-1.0164,-0.8666,0.0,0.0,0.0,0.0,0.0,0.0,0.0,0.0,0.0,0.0,0.0,0.0,0.0,0.0,0.0,0.0,0.0,0.0,0.0,0.0,0.0,0.0,0.0,0.0,0.0,0.0,0.0,0.0,0.0,0.0,0.0,0.0,0.0,0.0,0.0,0.0,0.0,0.0,0.0,0.0,0.0,0.0,0.0,0.0,0.0,0.0,0.0,0.0,0.0,0.0,0.0,0.0,0.0,0.0,0.0,1.0093,0.9883,0.9967,1.0526,1.0322,0.9961,0.936,0.9296,0.8529,0.0,0.0,0.0,0.0,0.0,0.0,0.0,0.0,0.0,0.0,0.0,0.0,0.0,0.0,0.0,0.0,0.0,0.0,0.0,0.0,0.0,0.0,0.0,0.0,0.0,0.0,0.0,0.0,0.0,0.0,0.0,0.0,0.0,0.0,0.0,0.0,0.0,0.0,0.0,0.0,0.0,-1.3835,-1.4144,-1.3635,-1.2976,0.0,0.0,-1.2673,-1.2236,-1.2213,-1.1797,-1.046,0.0,0.0,0.0,0.0,0.0,0.0,0.0,0.0,0.0,0.0,0.0,0.0,0.0,0.0,0.0,0.0,0.0,0.0,0.0,0.0,0.0,0.0,0.0,0.0,0.0,0.0,0.0,0.0,0.0,0.0,0.0,0.0,0.0,0.0,0.0,0.0,0.0,0.0,0.0,0.0,0.0,0.0,0.0,0.0,0.0,0.0,0.0,0.0,0.0,0.0,0.0,0.0,0.0,0.8957,0.979,0.9712,0.9675,0.9703,0.9516,0.9091,0.84,0.8051,0.7382,0.0,0.0,0.0,0.0,0.0,0.0,0.0,0.0,0.0,0.0,0.0,0.0,0.0,0.0,0.0,0.0,0.0,0.0,0.0,0.0,0.0,0.0,0.0,0.0,0.0,0.0,0.0,0.0,-0.7296,-0.8261,-0.9001,0.0,0.0,0.0,0.0,0.0,0.0,0.0,0.0,0.0,0.0,-1.4476,-1.6322,-1.5383,0.0,0.0,-1.4887,-1.4797,-1.4869,-1.4175,-1.3382,-1.2721,-1.2062,0.0,0.0,0.0,0.0,0.0,0.0,0.0,0.0,0.0,0.0,0.0,0.0,0.0,0.0,0.0,0.0,0.0,0.0,0.0,0.0,0.0,0.0,0.0,0.0,0.0,0.0,0.0,0.0,0.0,0.0,0.0,0.0,0.0,0.0,0.0,0.0,0.0,0.0,0.0,0.0,0.0,0.0,0.0,0.0,0.0,0.0,0.0,0.0,0.0,0.0,0.0,0.0,0.9417,0.9739,0.9859,0.9729,0.9314,0.8903,0.8294,0.7571,0.6787,0.6063,0.0,0.0,0.0,0.0,0.0,0.0,0.0,0.0,0.0,0.0,0.0,0.0,0.0,0.0,0.0,0.0,0.0,0.0,0.0,0.0,0.0,0.0,0.0,0.0,0.0,0.0,0.0,0.0,-0.7988,-0.9052,-0.9852,0.0,0.0,0.0,0.0,0.0,0.0,0.0,0.0,0.0,0.0,-1.5537,-1.7711,-1.6808,-1.615,-1.699,-1.6499,-1.6084,-1.6223,-1.5723,-1.5147,-1.462,0.0,0.0,0.0,0.0,0.0,0.0,0.0,0.0,0.0,0.0,0.0,0.0,0.0,0.0,0.0,0.0,0.0,0.0,0.0,0.0,0.0,0.0,0.0,0.0,0.0,0.0,0.0,-0.0,0.0,0.0,0.1514,0.0,0.0,0.0,0.0,0.0,0.0,0.0,0.0,0.0,0.0,0.0,0.0,0.0,0.0,0.0,0.0,0.0,0.0,0.0,0.0,0.0,0.0,0.9579,1.0096,1.0399,1.0249,0.9591,0.8507,0.753,0.677,0.5566,0.4663,0.4164,0.0,0.0,0.0,0.0,0.0,0.0,0.0,0.0,0.0,0.0,0.0,0.0,0.0,0.0,0.0,0.0,0.0,0.0,0.0,0.0,0.0,0.0,0.0,0.0,0.0,0.0,-0.7131,-0.8809,-0.9882,0.0,0.0,0.0,0.0,0.0,0.0,0.0,0.0,0.0,0.0,-1.5604,-1.7073,-1.7809,-1.7577,-1.7478,-1.7999,-1.7274,-1.6439,-1.5788,-1.6786,-1.738,0.0,0.0,0.0,0.0,0.0,0.0,0.0,0.0,0.0,0.0,0.0,0.0,0.0,0.0,0.0,0.0,0.0,0.0,0.0,0.0,0.0,0.0,0.0,0.0,0.0,0.0,0.0,-0.5868,-0.5121,0.0,0.0,0.0,0.0,0.0,0.0,0.0,0.0,0.0,0.0,0.0,-1.1239,-1.365,0.0,0.0,0.0,0.0,0.0,0.0,0.0,0.0,0.0,0.0,0.0,0.0,1.0154,1.0522,1.038,1.0274,1.0228,0.8268,0.678,0.6048,0.4362,0.3163,0.2641,0.0,0.0,0.0,0.0,0.0,0.0,0.0,0.0,0.0,0.0,0.0,0.0,0.0,0.0,0.0,0.0,0.0,0.0,0.0,0.0,0.0,0.0,0.0,0.0,0.0,-0.8191,0.0,0.0,0.0,0.0,0.0,0.0,0.0,0.0,0.0,0.0,0.0,-1.5404,-1.6736,-1.6918,-1.7164,-1.7768,-1.7799,-1.7947,0.0,0.0,0.0,0.0,0.0,0.0,0.0,0.0,0.0,0.0,0.0,0.0,0.0,0.0,-1.6323,-1.3461,-1.2697,-1.2552,-1.2726,0.0,0.0,0.0,0.0,0.0,0.0,0.0,0.0,0.0,0.0,0.0,0.0,0.0,0.0,-0.957,0.0,-0.811,0.0,0.0,0.0,0.0,0.0,0.0,0.0,0.0,-1.1038,-1.4006,-1.5778,-1.8219,-1.8632,0.0,-1.5643,-1.2239,0.0,0.0,0.0,0.0,0.0,0.0,0.0,0.0,1.1121,1.1219,1.0951,1.076,1.0458,0.841,0.6694,0.5437,0.3106,0.1641,0.1115,0.2028,0.284,0.0,0.0,0.0,0.0,0.0,0.0,0.0,0.0,0.0,0.0,0.0,0.0,0.0,0.0,0.0,0.0,0.0,0.0,0.0,0.0,0.0,0.0,0.0,-0.8691,0.0,0.0,0.0,0.0,0.0,0.0,0.0,0.0,0.0,-1.6394,-1.6256,-1.6825,-1.8893,-1.824,-1.7744,-1.8171,0.0,0.0,0.0,0.0,0.0,0.0,0.0,-1.716,-1.7516,-1.8761,-1.9306,-1.793,-1.8332,-1.8812,-1.8877,0.0,0.0,-1.5029,-1.4128,-1.3939,-1.4273,-1.4913,-1.5338,-1.5345,-1.5983,-1.6428,0.0,0.0,0.0,0.0,0.0,0.0,0.0,0.0,-1.2768,-1.195,0.0,-1.0576,0.0,0.0,0.0,0.0,0.0,-0.7744,0.0,0.0,-1.4026,-1.6504,-2.0589,-2.0528,-2.0195,-1.9775,-1.9711,-1.8475,-1.592,-0.9429,0.0,0.0,0.0,0.0,0.0,0.0,1.233,1.2095,1.2161,1.1618,1.0493,0.9082,0.7217,0.4798,0.1819,0.005,-0.0405,0.0848,0.2264,0.3699,0.4205,0.0,0.0,0.0,0.0,0.0,0.0,0.0,0.0,0.0,0.0,0.0,0.0,0.0,0.0,0.0,0.0,0.0,0.0,0.0,0.0,-0.8354,0.0,0.0,0.0,0.0,0.0,0.0,0.0,0.0,0.0,0.0,-1.8711,-1.8108,-1.819,-2.024,0.0,0.0,0.0,0.0,-1.8494,-1.7897,-1.7847,-1.7805,-1.7616,-1.6858,-1.6772,-1.8226,0.0,0.0,-1.9838,-2.0033,-2.0006,-1.9514,-1.9726,-1.9782,-1.8736,-1.7016,-1.6051,-1.6704,-1.6318,-1.6019,-1.6453,-1.7004,-1.7335,-1.6491,0.0,0.0,0.0,0.0,-1.3002,-1.4234,-1.5707,-1.6184,-1.5773,-1.4734,-1.4853,0.0,0.0,0.0,0.0,0.0,0.0,-1.369,-1.5836,-1.7631,-1.9605,-2.1647,-2.1424,-2.1139,-2.0765,-2.0541,-1.9919,-1.8829,-1.6176,-1.1052,-0.3829,0.0,0.0,0.0,0.0,1.1618,1.2454,1.2206,1.2054,1.1953,1.0038,0.6992,0.2804,0.016,-0.1452,-0.191,-0.1137,0.0612,0.3307,0.4664,0.0,0.0,0.0,0.0,0.0,0.0,0.0,0.0,0.0,0.0,0.0,0.0,0.0,0.0,0.0,0.0,0.0,0.0,0.0,-0.9331,-0.932,-1.0006,0.0,0.0,0.0,0.0,0.0,0.0,0.0,0.0,0.0,-1.8423,-1.9201,-1.968,0.0,0.0,-1.962,-1.9715,-1.9042,-1.8267,-1.7605,-1.7615,0.0,-1.7605,-1.7485,-1.7581,-1.8141,-1.8819,-1.9297,-1.9405,-1.935,-1.9507,-2.0119,-1.986,-1.9516,-1.9638,-1.9305,-1.8673,-1.812,-1.8264,-1.8569,-1.8531,-1.8627,-1.8705,-2.0004,-1.7154,-1.6792,-1.6318,-1.5791,-1.6353,-1.7216,-1.8188,-1.7992,-1.7848,-1.7688,-1.7637,-1.6876,-1.5532,-1.487,0.0,0.0,0.0,-1.8138,-1.9394,-2.0961,-2.2012,-2.2592,-2.2252,-2.192,-2.1585,-2.1278,-2.0923,-2.0537,-1.9909,-1.6241,-0.9635,0.0,0.0,0.6511,0.9228,1.1232,1.2561,1.2701,1.2785,1.2812,1.0081,0.63,0.1561,-0.1423,-0.3715,-0.5237,-0.5202,-0.3951,-0.1431,0.1902,0.5123,0.0,0.0,0.0,0.0,0.0,0.0,0.0,0.0,0.0,0.0,0.0,-0.7924,0.0,0.0,0.0,0.0,-0.9196,-1.0655,-1.1135,-1.1497,0.0,0.0,0.0,0.0,0.0,0.0,0.0,-1.651,-1.6814,-1.7539,-1.9051,-2.0001,-2.0399,-2.0048,-1.9787,-1.9804,-2.0419,0.0,-1.8196,-1.8065,-1.7881,-1.7882,-1.8125,-1.8229,-1.8519,-1.9172,-1.9291,-1.959,-2.0186,-2.0246,-2.0461,-2.0971,-2.0761,-2.0529,-2.1112,-2.0878,-2.0282,-1.9363,-1.9392,-1.9559,-1.9418,-1.9362,-1.9404,-2.3211,-2.3213,-2.1341,-2.0432,-2.015,-1.9785,-1.9623,-1.9538,-1.8912,-1.879,-1.9107,-1.9265,-1.8913,-1.8268,-1.9133,0.0,-2.0858,-2.1989,-2.287,-2.3604,-2.3819,-2.3819,-2.362,-2.3047,-2.2573,-2.226,-2.1952,-2.1685,-2.1419,-2.1259,-1.9214,-1.5251,-0.8642,-0.1852,0.4815,0.815,1.0634,1.2308,1.3196,1.3648,1.3533,1.0084,0.5853,0.0952,-0.2672,-0.618,-0.9621,-1.0435,-1.0077,-0.8359,-0.2958,0.3775,1.1447,0.0,0.0,0.0,0.0,0.0,0.0,0.0,0.0,0.0,0.0,0.0,0.0,0.0,0.0,0.0,-1.0924,0.0,-1.3698,-1.4307,0.0,0.0,0.0,-1.6969,-1.8447,-1.8827,-1.9322,-2.0128,0.0,0.0,-2.039,-2.0553,-2.0529,-2.0462,-1.9668,-1.9568,-2.0804,-1.9381,-1.8376,-1.8999,-1.8565,-1.8434,-1.8975,-1.9071,-1.9457,-2.056,-2.0575,-2.0485,-2.1293,-2.1629,-2.1908,-2.1899,-2.1935,-2.1927,-2.2589,-2.1688,-2.1008,-2.0378,-1.9854,-1.9463,-1.9494,-1.9508,-1.9539,-2.5646,-2.5631,-2.4961,-2.3879,-2.2643,-2.2551,-2.2343,-2.204,-2.1563,-2.122,-2.101,-2.0715,-2.1065,-2.1929,-2.2592,-2.3093,-2.3435,-2.416,-2.4545,-2.4581,-2.4714,-2.4516,-2.4048,-2.3472,-2.3068,-2.2789,-2.2287,-2.1911,-2.1603,-2.0855,-1.9482,-1.7463,-1.294,-0.7082,-0.0208,0.3385,0.6777,1.0132,1.1921,1.3872,1.593,1.4448,0.9576,0.117,-0.1129,-0.5762,-1.2927,-1.3303,-1.1896,-0.8912,-0.6269,0.0735,1.276,0.5852,0.0,0.0,0.0,0.0,0.0,0.0,0.0,0.0,0.0,-1.1939,-0.8779,0.0,-1.0911,0.0,-1.1759,-1.5289,-1.4679,-1.5193,0.0,0.0,-1.8519,-1.8978,-2.0961,-2.0347,-2.0121,-2.1113,-2.0619,-2.0566,-2.1662,-2.0868,-2.0326,-2.0636,-2.0395,-1.9686,-1.8548,-1.9146,-1.9678,-1.9859,-1.9788,-1.9793,-1.9829,-1.9829,-1.9989,-2.0451,-2.0345,-2.0248,-2.0423,-2.0396,-2.0434,-2.0759,-2.0809,-2.0908,-2.1153,-2.0894,-2.0557,-2.0075,-2.0035,-2.0007,-1.974,-1.9646,-1.9787,-2.7283,-2.7415,-2.748,-2.6978,-2.5963,-2.4595,-2.3671,-2.3109,-2.2613,-2.2216,-2.1909,-2.185,-2.2451,-2.3481,-2.4204,-2.4804,-2.533,-2.5805,-2.6061,-2.615,-2.622,-2.5781,-2.4946,-2.4107,-2.3483,-2.2923,-2.2079,-2.147,-2.0965,-1.9936,-1.8777,-1.7456,-1.4481,-1.0498,-0.5626,-0.1299,0.2885,0.6895,1.115,1.4675,1.7362,1.6939,1.1889,0.2233,-0.0896,-0.677,-1.6007,-1.7153,-1.6708,-1.476,-1.1141,-0.6606,-0.1129,-0.1135,-0.2435,0.0,0.0,0.0,0.0,0.0,0.0,0.0,0.0,0.0,0.0,0.0,-1.4386,-1.0755,-1.4876,-1.7489,-1.6847,-1.7744,-1.9139,-2.0988,-2.0356,-2.0314,-2.1628,-2.1068,-2.0955,-2.1929,-2.1308,-2.1202,-2.2067,-2.1547,-2.095,-2.0855,-2.073,-2.0157,-1.8917,-1.9385,-2.0111,-2.0734,-2.0476,-2.0226,-2.0289,-2.073,-2.0989,-2.0866,-2.0784,-2.0782,-2.0949,-2.0898,-2.0963,-2.1225,-2.1173,-2.1017,-2.1056,-2.0875,-2.0628,-2.0382,-2.0181,-2.0031,-1.9795,-1.9943,-2.0188,-2.8472,-2.8722,-2.9197,-2.9403,-2.9214,-2.644,-2.478,-2.3874,-2.3274,-2.2831,-2.2474,-2.3023,-2.3743,-2.4472,-2.5278,-2.6142,-2.6936,-2.7325,-2.7602,-2.7765,-2.7707,-2.7029,-2.5829,-2.4709,-2.3698,-2.2854,-2.1613,-2.0627,-1.994,-1.8689,-1.7375,-1.6026,-1.4241,-1.2265,-1.0123,-0.5754,-0.1242,0.3335,0.9689,1.4488,1.7507,1.7609,1.2728,0.2834,-0.1158,-0.8176,-1.8707,-2.0991,-2.1933,-2.173,-1.6347,-1.5056,-1.8817,-0.9643,-0.5325,0.0,-0.7549,0.0,0.0,0.0,0.0,0.0,0.0,0.0,0.0,-1.6653,-1.7102,-1.6556,-1.849,-1.9655,-1.9351,-2.0565,-2.165,-2.214,-2.1524,-2.114,-2.1462,-2.1498,-2.1787,-2.2442,-2.171,-2.1457,-2.2104,-2.2185,-2.181,-2.1067,-2.0778,-2.0554,-2.0275,-2.0051,-2.0361,-2.153,-2.0995,-2.0606,-2.0888,-2.1596,-2.2019,-2.1567,-2.14,-2.1587,-2.1902,-2.1892,-2.1892,-2.2053,-2.1873,-2.1712,-2.1677,-2.1288,-2.0999,-2.0936,-2.0526,-2.0164,-2.004,-2.0271,-2.0636,-2.9677,-2.9729,-2.9854,-2.9969,-3.0101,-2.9201,-2.7997,-2.6591,-2.5733,-2.4925,-2.4263,-2.5101,-2.6322,-2.775,-2.8812,-2.9034,-2.8688,-2.9697,-2.9484,-2.8234,-2.7771,-2.6878,-2.5612,-2.4438,-2.3477,-2.257,-2.0955,-1.9804,-1.9071,-1.6751,-1.5169,-1.4336,-1.2663,-1.1197,-1.0057,0.0,0.0,0.0,0.387,0.8149,1.3612,1.4972,1.0385,-0.01,-0.0932,0.0,-2.1369,-2.2505,-2.2243,-2.1432,-1.9668,0.0,0.0,0.0,0.0,0.0,0.0,0.0,0.0,0.0,0.0,0.0,-1.266,-1.318,-1.3852,-1.5388,-1.655,-1.6987,-1.8988,-2.0288,-2.037,-2.0683,-2.1172,-2.1919,-2.1504,-2.1403,-2.1958,-2.2043,-2.2128,-2.226,-2.2101,-2.201,-2.2116,-2.1949,-2.1714,-2.1424,-2.0785,-2.0508,-2.0859,-2.0825,-2.1077,-2.1577,-2.1637,-2.18,-2.1897,-2.2041,-2.2153,-2.2005,-2.1694,-2.1476,-2.1537,-2.1002,-2.076,-2.1219,-2.1562,-2.1718,-2.14,-2.1425,-2.1436,-2.1194,-2.1244,-2.1157,-2.0652,-2.0553,-2.0841,-3.04,-3.0618,-3.0784,-3.0872,0.0,-3.0202,-2.8878,-2.7071,-2.6,-2.4917,-2.3914,-2.5159,-2.6592,-2.8132,-2.9299,-2.9801,-2.9815,-3.0392,-2.997,-2.8764,-2.7967,-2.6878,-2.5548,-2.3954,-2.2783,-2.2049,-1.9787,-1.8236,-1.7276,-1.4811,-1.3101,-1.2124,-1.076,-0.9794,-0.9314,-1.1037,-0.9092,-0.3365,-0.1082,0.2545,0.7464,0.9746,0.6782,-0.1496,-0.1847,0.0,0.0,0.0,0.0,0.0,0.0,0.0,0.0,0.0,0.0,-1.0173,-0.9805,-0.9475,-0.8931,-1.0155,-1.1333,-1.2299,-1.3822,-1.4724,-1.4591,-1.6062,-1.7407,-1.8409,-2.018,-2.1257,-2.1231,-2.1349,-2.1662,-2.2267,-2.173,-2.1459,-2.1759,-2.1771,-2.1763,-2.1725,-2.2001,-2.2182,-2.2175,-2.1937,-2.16,-2.121,-2.0688,-2.0107,-1.989,-2.0302,-2.0892,-2.1561,-2.2011,-2.2185,-2.2197,-2.2197,-2.2175,-2.2128,-2.1959,-2.1862,-2.1773,-2.1472,-2.1305,-2.1758,-2.212,-2.2216,-2.208,-2.2108,-2.1965,-2.1605,-2.1498,-2.1555,-2.1394,-2.1409,-2.1551,-3.0958,-3.1289,-3.165,-3.1617,-3.1257,-3.0427,-2.8667,-2.6258,0.0,0.0,0.0,-2.4867,-2.6382,-2.7809,-2.9003,-2.9813,-3.026,-3.0221,-2.968,-2.8714,-2.7679,-2.6488,-2.5193,-2.3259,-2.1998,-2.1197,-1.8678,-1.6698,-1.5205,-1.2811,-1.0939,-0.9655,-0.8606,-0.8495,-0.9267,-1.1874,-1.193,-0.9256,-0.6731,-0.351,0.0487,0.3167,0.1976,-0.3421,-0.3506,-0.7742,-1.6581,-1.7633,-1.8708,-2.0143,-1.9362,-1.8518,-1.7741,-1.5832,-1.3385,-1.0582,-1.0516,-1.0262,-0.9375,-1.0639,-1.1791,-1.2533,-1.5034,-1.6405,-1.6115,-1.73,-1.8481,-1.9622,-2.1217,-2.2058,-2.176,-2.1827,-2.2049,-2.2245,-2.1648,-2.1186,-2.1223,-2.1423,-2.1536,-2.138,-2.1849,-2.2185,-2.2197,-2.1855,-2.1423,-2.0792,-2.038,-1.9818,-1.8914,-1.9291,-2.0237,-2.1221,-2.1812,-2.2197,-2.2197,-2.2197,-2.2197,-2.2161,-2.2161,-2.2197,-2.2197,-2.2197,-2.2321,-2.2457,-2.2714,-2.2738,-2.2775,-2.2604,-2.2372,-2.1956,-2.1761,-2.1699,-2.2092,-2.228,-2.233,-3.1554,-3.1476,-3.1711,-3.1596,-3.1257,-3.041,-2.7808,-2.4166,-2.3514,-2.3482,-2.3896,-2.5562,-2.7248,-2.8812,-2.9919,-3.0065,-2.9406,-2.9454,-2.8625,-2.7087,-2.579,-2.4792,-2.3903,-2.2484,-2.1187,-1.9979,-1.817,-1.5831,-1.3207,-1.0722,-0.8537,-0.6772,-0.6187,-0.7876,-1.135,-1.3477,-1.5667,-1.7945,-1.5566,-1.176,-0.6591,-0.4491,-0.4742,-0.7242,-0.6232,-0.9226,-1.6867,-1.7228,-1.7687,-1.8569,-1.7833,-1.7437,-1.7511,-1.4814,-1.2229,-1.0195,-0.9931,-0.9798,-0.96,-1.0677,-1.2127,-1.3978,-1.5626,-1.6739,-1.7078,-1.8016,-1.8688,-1.9019,-2.0928,-2.2,-2.1508,-2.1217,-2.0958,-2.0722,-2.057,-2.0433,-2.0517,-2.1388,-2.198,-2.1968,-2.2113,-2.2209,-2.2169,-2.1575,-2.1084,-2.0744,-1.9934,-1.9249,-1.9029,-1.8982,-1.9417,-2.0537,-2.1588,-2.2123,-2.2183,-2.2197,-2.2197,-2.2197,-2.2197,-2.2123,-2.2197,-2.2197,-2.2247,-2.242,-2.2604,-2.2604,-2.2543,-2.242,-2.2359,-2.2238,-2.2189,-2.2274,-2.2493,-2.2575,-2.2652,-3.1274,-3.1368,-3.1368,-3.1157,-3.0649,-2.7812,-2.5168,-2.2811,-2.1769,-2.2133,-2.3528,-2.5314,-2.6952,-2.8263,-2.8841,-2.8661,-2.7842,-2.7763,-2.6941,-2.5615,-2.4819,-2.4163,-2.35,-2.2078,-2.0876,-1.9832,-1.6976,-1.4354,-1.1906,-0.8983,-0.7022,-0.613,-0.7216,-0.9591,-1.2949,-1.5183,-1.7652,-2.0348,-1.9246,-1.7066,-1.3882,-1.1573,-1.0487,-1.0544,-0.8912,-1.0033,-1.434,-1.4812,-1.5472,-1.6577,-1.6376,-1.6039,-1.5574,-1.4316,-1.2762,-1.0947,-1.0834,-1.0727,-1.0408,-1.187,-1.3474,-1.4987,-1.6508,-1.7264,-1.7088,-1.7383,-1.8178,-1.9552,-2.0297,-2.0707,-2.1138,-2.0989,-2.0665,-2.0255,-2.0194,-2.0202,-2.0236,-2.0658,-2.1314,-2.1888,-2.1946,-2.211,-2.2663,-2.19,-2.1107,-2.0603,-1.9452,-1.8701,-1.8775,-1.8533,-1.8953,-2.0411,-2.1578,-2.2052,-2.2004,-2.2103,-2.2159,-2.2197,-2.1862,-2.18,-2.2061,-2.2197,-2.2247,-2.2359,-2.2432,-2.2432,-2.2359,-2.242,-2.2359,-2.2309,-2.2309,-2.2371,-2.2494,-2.2543,-2.2749,-3.1282,-3.1647,-3.1429,-3.0915,-2.9833,-2.5502,-2.2899,-2.1663,-2.0328,-2.0598,-2.2111,-2.4545,-2.6346,-2.7446,-2.7294,-2.6781,-2.6061,-2.5649,-2.4938,-2.3966,-2.3751,-2.3528,-2.3047,-2.1729,-2.0661,-1.9566,-1.6262,-1.3388,-1.0895,-0.792,-0.652,-0.7016,-0.9371,-1.2235,-1.5382,-1.776,-1.9888,-2.1669,-2.1705,-2.082,-1.9144,-1.6737,-1.4666,-1.2967,-1.1213,-1.0891,-1.2125,-1.267,-1.3527,-1.4904,-1.5076,-1.4758,-1.4031,-1.3793,-1.3115,-1.1893,-1.1771,-1.171,-1.1639,-1.3229,-1.4626,-1.5434,-1.6904,-1.7571,-1.7121,-1.673,-1.7432,-1.9378,-1.9785,-2.0157,-2.0487,-2.0285,-2.0059,-1.9836,-1.9835,-1.9814,-1.9835,-2.0053,-2.0512,-2.1417,-2.1509,-2.19,-2.2671,-2.207,-2.1018,-2.0054,-1.9024,-1.8469,-1.8535,-1.846,-1.9115,-2.0175,-2.1092,-2.1556,-2.1775,-2.2398,-2.2504,-2.2357,-2.2051,-2.211,-2.2266,-2.2238,-2.2356,-2.2442,-2.2394,-2.2271,-2.2359,-2.2359,-2.2309,-2.2247,-2.2197,-2.2247,-2.2371,-2.2359,-2.2653,-3.2342,-3.277,-3.2392,-3.123,-2.9139,-2.523,-2.2438,-2.059,-1.9454,-1.8874,-1.9303,-2.3095,-2.5707,-2.6984,-2.5602,-2.4569,-2.4007,-2.3179,-2.2455,-2.1969,-2.2065,-2.2101,-2.2051,-2.1455,-2.0482,-1.8986,-1.6609,-1.3708,-1.049,-0.7984,-0.7512,-0.9225,-1.1848,-1.5542,-1.9643,-2.1877,-2.3435,-2.4564,-2.4253,-2.2879,-2.0403,-1.8336,-1.633,-1.4434,-1.2719,-1.1912,-1.2136,-1.2163,-1.2896,-1.4245,-1.4119,-1.3994,-1.3998,-1.2936,-1.228,-1.2382,-1.2052,-1.2152,-1.3005,-1.4124,-1.4818,-1.4962,-1.6259,-1.7222,-1.7461,-1.6838,-1.6628,-1.7814,-2.0217,-2.0865,-1.9629,-1.8822,-1.8685,-1.9131,-1.9152,-1.911,-1.9281,-2.0012,-2.0628,-2.0504,-2.0946,-2.168,-2.2628,-2.145,-2.0102,-1.9627,-1.9316,-1.9054,-1.9219,-1.9229,-1.9403,-1.9783,-1.9603,-2.0267,-2.1876,-2.3187,-2.3167,-2.2779,-2.3105,-2.3089,-2.2768,-2.2415,-2.233,-2.2874,-2.2645,-2.2428,-2.2368,-2.2197,-2.2234,-2.2294,-2.227,-2.2197,-2.2247,-2.2247,-2.2543,-3.1582,-3.1757,-3.1614,-3.0503,-2.8303,-2.4316,-2.1364,-1.9354,-1.7468,-1.6911,-1.7437,-1.9428,-2.1798,-2.4265,-2.2858,-2.1843,-2.1149,-2.0325,-2.003,-2.0139,-2.059,-2.106,-2.1463,-2.1285,-2.0624,-1.9497,-1.7328,-1.4644,-1.169,-0.979,-1.0125,-1.2495,-1.6076,-1.9697,-2.2935,-2.4702,-2.5874,-2.6445,-2.5348,-2.3717,-2.1625,-1.9255,-1.7093,-1.5202,-1.3893,-1.3143,-1.2873,-1.2851,-1.312,-1.3616,-1.3589,-1.3622,-1.3657,-1.3113,-1.2833,-1.2949,-1.301,-1.3336,-1.3935,-1.4716,-1.5244,-1.5488,-1.6404,-1.6929,-1.7022,-1.7012,-1.6982,-1.7076,-1.8599,-1.9488,-1.9068,-1.8429,-1.8232,-1.8635,-1.8774,-1.8874,-1.9153,-1.9596,-2.0001,-2.0544,-2.0822,-2.1403,-2.2053,-2.0872,-1.9646,-1.9441,-1.9381,-1.9381,-1.9618,-1.9627,-1.9715,-1.9991,-1.9783,-2.0392,-2.2018,-2.2798,-2.3109,-2.3273,-2.3203,-2.2989,-2.3234,-2.2398,-2.22,-2.3293,-2.3268,-2.3135,-2.3183,-2.2835,-2.2666,-2.2618,-2.233,-2.2197,-2.2197,-2.2197,-2.2359,-3.1016,-3.0933,-3.0676,-2.9504,-2.7474,-2.3323,-2.0203,-1.7916,-1.5701,-1.4889,-1.5158,-1.6163,-1.802,-2.0164,-1.9848,-1.9392,-1.911,-1.8679,-1.8765,-1.9261,-2.0161,-2.0834,-2.1181,-2.1233,-2.0828,-1.989,-1.8035,-1.5557,-1.2998,-1.2294,-1.3317,-1.6297,-2.0079,-2.3312,-2.5621,-2.7036,-2.7614,-2.7519,-2.5831,-2.3926,-2.1979,-1.9605,-1.7396,-1.5645,-1.4675,-1.3974,-1.3511,-1.3499,-1.3535,-1.3544,-1.3668,-1.3737,-1.3626,-1.3626,-1.3626,-1.3662,-1.3992,-1.435,-1.4653,-1.5175,-1.5597,-1.5936,-1.6422,-1.67,-1.6625,-1.7047,-1.7178,-1.6959,-1.7349,-1.8018,-1.8632,-1.8419,-1.8366,-1.8708,-1.8666,-1.8831,-1.9156,-1.9219,-1.9551,-2.0158,-2.0396,-2.0737,-2.109,-2.0187,-1.9371,-1.9469,-1.9469,-1.9469,-1.9794,-1.9794,-1.9951,-2.0264,-2.0264,-2.0881,-2.2123,-2.2883,-2.3223,-2.3606,-2.3616,-2.3696,-2.3899,-2.2983,-2.2616,-2.4006,-2.4109,-2.3941,-2.3616,-2.3316,-2.3212,-2.3115,-2.2898,-2.2642,-2.2755,-2.2651,-2.257,-3.1297,-3.0991,-3.0013,-2.8414,-2.6278,-2.2628,-1.9135,-1.6078,-1.4545,-1.3115,-1.2053,-1.4185,-1.5434,-1.5909,-1.7033,-1.792,-1.8552,-1.8858,-1.9201,-1.9696,-2.113,-2.1575,-2.1256,-2.1169,-2.085,-2.0205,-1.8552,-1.651,-1.425,-1.466,-1.685,-2.0429,-2.3241,-2.593,-2.8015,-2.8661,-2.8682,-2.7875,-2.5604,-2.3313,-2.1252,-1.9208,-1.7355,-1.5885,-1.4773,-1.4165,-1.3865,-1.383,-1.4001,-1.4428,-1.4442,-1.4433,-1.4451,-1.4451,-1.446,-1.4497,-1.4818,-1.5038,-1.5111,-1.544,-1.567,-1.5762,-1.616,-1.6372,-1.6427,-1.6754,-1.7017,-1.7217,-1.7209,-1.7572,-1.836,-1.8672,-1.8864,-1.9102,-1.8912,-1.8867,-1.9043,-1.9278,-1.9146,-1.9269,-1.9563,-1.9809,-1.959,-1.9371,-1.9301,-1.9381,-1.9469,-1.9636,-1.9715,-2.0029,-2.0186,-2.0342,-2.0566,-2.1155,-2.2616,-2.3161,-2.3621,-2.4165,-2.453,-2.4802,-2.4684,-2.453,-2.4588,-2.4654,-2.4855,-2.4626,-2.4037,-2.3779,-2.3736,-2.3663,-2.3598,-2.3496,-2.3305,-2.3586,-2.3472,-2.9986,-2.9563,-2.8688,-2.7209,-2.5117,-2.1797,-1.8275,-1.4671,-1.2566,-1.093,-1.0154,-1.1428,-1.2965,-1.4497,-1.5636,-1.6757,-1.7803,-1.8458,-1.9209,-2.0162,-2.1607,-2.2216,-2.2099,-2.1506,-2.1476,-2.1453,-1.9661,-1.7831,-1.6612,-1.7484,-1.9323,-2.1944,-2.4933,-2.7297,-2.8513,-2.8635,-2.8576,-2.8409,-2.5466,-2.2847,-2.1032,-1.9127,-1.7483,-1.6343,-1.564,-1.5249,-1.5132,-1.507,-1.4961,-1.49,-1.4891,-1.4882,-1.4919,-1.5129,-1.5267,-1.5276,-1.5404,-1.5478,-1.5496,-1.5606,-1.5817,-1.6074,-1.6221,-1.645,-1.6661,-1.6826,-1.6978,-1.7116,-1.8,-1.8517,-1.8564,-1.9052,-1.9392,-1.9306,-1.9193,-1.9212,-1.9526,-1.9629,-1.9618,-1.9453,-1.9446,-1.9371,-1.9381,-1.946,-1.946,-1.9381,-1.9627,-1.9803,-1.9872,-2.0098,-2.0371,-2.0498,-2.0566,-2.1011,-2.2231,-2.2957,-2.3537,-2.448,-2.504,-2.5087,-2.5004,-2.5004,-2.4977,-2.4929,-2.524,-2.518,-2.4542,-2.4326,-2.4249,-2.3948,-2.396,-2.4013,-2.3802,-2.4037,-2.3857,-2.8363,-2.7867,-2.6925,-2.5563,-2.3792,-2.0675,-1.7334,-1.3911,-1.1577,-0.9918,-0.9226,-1.0091,-1.1712,-1.3659,-1.5433,-1.6944,-1.8291,-1.9086,-2.0148,-2.1321,-2.2697,-2.3332,-2.3132,-2.2633,-2.2603,-2.2715,-2.1101,-1.9906,-1.9727,-2.0523,-2.1904,-2.3638,-2.5966,-2.735,-2.7789,-2.7537,-2.7355,-2.6645,-2.4041,-2.1643,-1.999,-1.8544,-1.7473,-1.6719,-1.6154,-1.574,-1.5504,-1.5357,-1.5249,-1.4998,-1.516,-1.5294,-1.5322,-1.5542,-1.5817,-1.6028,-1.5964,-1.589,-1.5918,-1.601,-1.6211,-1.6468,-1.6514,-1.6642,-1.6881,-1.6908,-1.6908,-1.7229,-1.8339,-1.9118,-1.9012,-1.9316,-1.9662,-1.9505,-1.938,-1.9406,-1.9747,-1.9696,-1.9608,-1.9511,-1.9441,-1.9301,-1.9292,-1.946,-1.946,-1.9381,-1.9799,-2.0121,-2.0068,-2.032,-2.0556,-2.0596,-2.0576,-2.1098,-2.2004,-2.2756,-2.374,-2.4694,-2.5158,-2.5241,-2.5312,-2.5312,-2.5312,-2.5312,-2.5312,-2.5312,-2.5192,-2.4963,-2.4662,-2.429,-2.4398,-2.4578,-2.447,-2.4362,-2.4242,-2.6714,-2.6483,-2.4612,-2.3565,-2.2328,-1.9362,-1.6482,-1.3928,-1.1969,-1.0197,-0.9161,-1.0539,-1.1975,-1.338,-1.6432,-1.8673,-2.0198,-2.1075,-2.1934,-2.3069,-2.4414,-2.4816,-2.4423,-2.4589,-2.432,-2.3797,-2.2695,-2.2684,-2.3266,-2.3329,-2.3991,-2.5306,-2.5835,-2.6147,-2.5973,-2.5534,-2.4563,-2.3276,-2.167,-1.9706,-1.7628,-1.7358,-1.717,-1.6853,-1.6114,-1.5369,-1.4726,-1.4701,-1.4775,-1.478,-1.5357,-1.5698,-1.5661,-1.5753,-1.6074,-1.6633,-1.6505,-1.634,-1.6349,-1.6624,-1.678,-1.6853,-1.6899,-1.6927,-1.6972,-1.6936,-1.6945,-1.7266,-1.8348,-1.9256,-1.9246,-1.9265,-1.9441,-1.9775,-1.9474,-1.9423,-1.9539,-1.946,-1.9292,-1.9301,-1.9347,-1.9329,-1.9338,-1.9528,-1.9654,-1.9789,-2.0207,-2.0533,-2.0366,-2.0787,-2.0946,-2.0762,-2.085,-2.1282,-2.1952,-2.2703,-2.3847,-2.4825,-2.5123,-2.5312,-2.5312,-2.5312,-2.5312,-2.5312,-2.5312,-2.5312,-2.5312,-2.5119,-2.5155,-2.4939,-2.5095,-2.5059,-2.4963,-2.4831,-2.4795,-2.622,-2.5429,-2.4264,-2.3158,-2.179,-1.9094,-1.649,-1.4011,-1.169,-1.026,-1.0086,-1.1005,-1.2831,-1.5397,-1.7806,-2.0198,-2.2563,-2.3279,-2.3781,-2.4331,-2.5566,-2.605,-2.5824,-2.5959,-2.5519,-2.4658,-2.3708,-2.3155,-2.3213,-2.3297,-2.3418,-2.3369,-2.3977,-2.418,-2.4077,-2.3389,-2.2626,-2.1981,-2.0445,-1.8738,-1.7235,-1.7123,-1.7107,-1.676,-1.5683,-1.4836,-1.4641,-1.5127,-1.5283,-1.4976,-1.5713,-1.6001,-1.5845,-1.6221,-1.6633,-1.6844,-1.6798,-1.6725,-1.6734,-1.6826,-1.6908,-1.6954,-1.7147,-1.7293,-1.7275,-1.7073,-1.7193,-1.7678,-1.8687,-1.9292,-1.9292,-1.9292,-1.9381,-1.9469,-1.9381,-1.9301,-1.939,-1.9329,-1.9292,-1.9356,-1.9641,-1.9925,-2.009,-2.0209,-2.0337,-2.0419,-2.0907,-2.1043,-2.0914,-2.1293,-2.1543,-2.123,-2.1389,-2.154,-2.2251,-2.3152,-2.4332,-2.5121,-2.542,-2.5504,-2.5444,-2.5312,-2.5312,-2.5312,-2.5312,-2.5312,-2.5312,-2.5312,-2.5312,-2.5312,-2.5228,-2.524,-2.53,-2.5228,-2.5095,-2.6463,-2.5441,-2.4074,-2.2839,-2.1499,-1.8912,-1.6583,-1.4453,-1.2412,-1.1377,-1.1284,-1.2389,-1.4253,-1.682,-1.9118,-2.1645,-2.4024,-2.4933,-2.5636,-2.6108,-2.6841,-2.7149,-2.6828,-2.6547,-2.6302,-2.5617,-2.4354,-2.3589,-2.321,-2.2953,-2.2542,-2.2107,-2.2376,-2.2434,-2.2298,-2.1809,-2.1355,-2.0874,-1.9805,-1.8623,-1.7722,-1.7478,-1.7491,-1.7188,-1.5965,-1.5161,-1.4945,-1.5191,-1.523,-1.5177,-1.5901,-1.6395,-1.6211,-1.6624,-1.6908,-1.6908,-1.6908,-1.6899,-1.6908,-1.6899,-1.6982,-1.7138,-1.7348,-1.7568,-1.7633,-1.7468,-1.766,-1.8109,-1.8843,-1.9292,-1.9292,-1.9292,-1.9292,-1.9292,-1.9292,-1.9292,-1.932,-1.9494,-1.9476,-1.9522,-1.9861,-2.042,-2.0824,-2.0826,-2.0894,-2.0913,-2.1249,-2.1556,-2.1467,-2.1812,-2.1841,-2.1894,-2.1826,-2.2158,-2.2654,-2.3605,-2.4736,-2.5436,-2.5896,-2.5768,-2.5721,-2.5444,-2.5312,-2.5312,-2.5312,-2.5312,-2.5312,-2.5312,-2.5312,-2.5312,-2.5312,-2.5312,-2.5312,-2.5312,-2.5228,-2.7087,-2.6183,-2.405,-2.2504,-2.1221,-1.876,-1.668,-1.5041,-1.3975,-1.3146,-1.3062,-1.4428,-1.5994,-1.7747,-2.0531,-2.2853,-2.4696,-2.6089,-2.7204,-2.7934,-2.8403,-2.8208,-2.7617,-2.6803,-2.6438,-2.6314,-2.4613,-2.37,-2.3216,-2.2572,-2.1966,-2.1418,-2.1356,-2.1188,-2.0925,-2.0697,-2.037,-1.9805,-1.9423,-1.8956,-1.8313,-1.8128,-1.8054,-1.7953,-1.6967,-1.6052,-1.5503,-1.5211,-1.4912,-1.4895,-1.6149,-1.6835,-1.6872,-1.6908,-1.6908,-1.6908,-1.6908,-1.6908,-1.6908,-1.6982,-1.711,-1.7403,-1.7596,-1.7715,-1.8073,-1.8174,-1.8219,-1.8348,-1.8916,-1.9292,-1.9292,-1.9292,-1.9311,-1.9347,-1.9338,-1.9311,-1.9384,-1.9797,-1.9824,-1.9677,-2.009,-2.0824,-2.1493,-2.1236,-2.1047,-2.107,-2.1494,-2.1816,-2.2078,-2.2393,-2.2695,-2.2617,-2.2383,-2.2798,-2.334,-2.4168,-2.53,-2.6117,-2.6458,-2.6354,-2.6105,-2.5757,-2.536,-2.5348,-2.5396,-2.5372,-2.5324,-2.5324,-2.5324,-2.5312,-2.5312,-2.5312,-2.5312,-2.5312,-2.5312,-2.6788,-2.547,-2.3823,-2.2187,-2.0504,-1.851,-1.7056,-1.5896,-1.5089,-1.4943,-1.5445,-1.6543,-1.8159,-2.0074,-2.1934,-2.3854,-2.5513,-2.6841,-2.7789,-2.8468,-2.903,-2.9044,-2.8417,-2.7069,-2.6227,-2.5718,-2.423,-2.2861,-2.1876,-2.1507,-2.1064,-2.0381,-2.0409,-2.0303,-2.0138,-2.0004,-1.965,-1.925,-1.8995,-1.8695,-1.8332,-1.8155,-1.8119,-1.8026,-1.7331,-1.6739,-1.6514,-1.6429,-1.6074,-1.5584,-1.6333,-1.6908,-1.6917,-1.6936,-1.6982,-1.6982,-1.6945,-1.6927,-1.6991,-1.7193,-1.7385,-1.7541,-1.8027,-1.844,-1.855,-1.8825,-1.8953,-1.9017,-1.9228,-1.9292,-1.9292,-1.9311,-1.943,-1.9668,-1.9549,-1.9476,-1.9714,-1.9879,-2.0008,-2.0209,-2.0631,-2.1172,-2.1511,-2.1612,-2.1447,-2.148,-2.1867,-2.2292,-2.2476,-2.2744,-2.2988,-2.3027,-2.2987,-2.3539,-2.4167,-2.4911,-2.5831,-2.6726,-2.7082,-2.7112,-2.6731,-2.625,-2.5781,-2.5432,-2.5624,-2.5661,-2.5468,-2.536,-2.5336,-2.5492,-2.5408,-2.5444,-2.5348,-2.5312,-2.5312,-2.6894,-2.538,-2.3722,-2.1947,-2.0139,-1.8257,-1.7214,-1.6755,-1.6287,-1.6545,-1.7535,-1.8828,-2.0148,-2.1602,-2.3506,-2.5027,-2.6276,-2.7496,-2.8376,-2.8889,-2.9331,-2.9079,-2.8312,-2.6921,-2.5812,-2.4791,-2.3419,-2.2188,-2.1058,-2.0605,-2.007,-1.9756,-1.9627,-1.9618,-1.9659,-1.9548,-1.9367,-1.9145,-1.9031,-1.8834,-1.8632,-1.8614,-1.8623,-1.8501,-1.8011,-1.7547,-1.7087,-1.6977,-1.6893,-1.6855,-1.7189,-1.7275,-1.6982,-1.7257,-1.7403,-1.7422,-1.7413,-1.7431,-1.7449,-1.7651,-1.7825,-1.8027,-1.8504,-1.8751,-1.8944,-1.9182,-1.9292,-1.9274,-1.9292,-1.9292,-1.9338,-1.9457,-1.9651,-1.987,-1.9861,-1.9916,-2.0173,-2.0356,-2.042,-2.064,-2.1007,-2.1438,-2.1633,-2.1731,-2.1731,-2.1802,-2.2003,-2.2394,-2.2648,-2.2969,-2.3057,-2.3047,-2.3474,-2.4063,-2.4851,-2.5688,-2.6513,-2.744,-2.7679,-2.7687,-2.7248,-2.6731,-2.6406,-2.6045,-2.5997,-2.5937,-2.5865,-2.5817,-2.5913,-2.5961,-2.5745,-2.5564,-2.5492,-2.5552,-2.5516,-2.7244,-2.5641,-2.3872,-2.1929,-1.9957,-1.8211,-1.7446,-1.7304,-1.7353,-1.8087,-1.9265,-2.0926,-2.1996,-2.2755,-2.4935,-2.6395,-2.708,-2.8478,-2.9118,-2.9553,-2.9525,-2.8882,-2.773,-2.6452,-2.5265,-2.3982,-2.2521,-2.1431,-2.0527,-1.9687,-1.9371,-1.9371,-1.9381,-1.9301,-1.9371,-1.9301,-1.9292,-1.9256,-1.9228,-1.921,-1.9155,-1.9146,-1.9136,-1.9109,-1.883,-1.8249,-1.7643,-1.7386,-1.757,-1.8181,-1.8183,-1.7734,-1.7238,-1.7789,-1.8137,-1.8155,-1.81,-1.8018,-1.8119,-1.8109,-1.8302,-1.8577,-1.8696,-1.8916,-1.9182,-1.9283,-1.9292,-1.9292,-1.9292,-1.9347,-1.9512,-1.9769,-2.0044,-2.0261,-2.0455,-2.0576,-2.0686,-2.0924,-2.0979,-2.0732,-2.1346,-2.1649,-2.1731,-2.1731,-2.1731,-2.1731,-2.2087,-2.2353,-2.2618,-2.2803,-2.2882,-2.2872,-2.3637,-2.4659,-2.5484,-2.64,-2.7232,-2.8063,-2.8211,-2.8138,-2.7657,-2.7236,-2.7043,-2.6827,-2.6514,-2.649,-2.661,-2.6598,-2.6574,-2.643,-2.6226,-2.5949,-2.5733,-2.5901,-2.5949,-2.7139,-2.543,-2.4542,-2.2249,-1.9314,-1.8603,-1.7963,-1.7419,-1.8156,-1.9405,-2.0962,-2.2298,-2.3649,-2.5135,-2.628,-2.7471,-2.8802,-3.0024,-3.0862,-3.0769,-2.9795,-2.8695,-2.736,-2.5876,-2.4472,-2.3285,-2.165,-2.0479,-1.9724,-1.9604,-1.9301,-1.932,-1.9311,-1.9292,-1.9292,-1.9292,-1.9292,-1.9292,-1.9292,-1.9301,-1.9292,-1.9292,-1.9292,-1.9292,-1.9201,-1.9058,-1.8916,-1.881,-1.8888,-1.883,-1.8495,-1.81,-1.7972,-1.8064,-1.8421,-1.8724,-1.843,-1.8248,-1.8378,-1.8534,-1.8614,-1.8742,-1.899,-1.921,-1.9256,-1.9292,-1.9292,-1.9292,-1.9301,-1.9485,-1.9916,-2.0218,-2.0473,-2.0765,-2.0893,-2.1099,-2.1337,-2.1245,-2.1218,-2.142,-2.1575,-2.1731,-2.1731,-2.1731,-2.1731,-2.1731,-2.1998,-2.2264,-2.2451,-2.2627,-2.2627,-2.2608,-2.3464,-2.4478,-2.5495,-2.6423,-2.7441,-2.8111,-2.8351,-2.8407,-2.7927,-2.7729,-2.7536,-2.7236,-2.6887,-2.6983,-2.7248,-2.7103,-2.7007,-2.6863,-2.6731,-2.6538,-2.6406,-2.6442,-2.6358,-2.6905,-2.5441,-2.4341,-2.2142,-1.9563,-1.8503,-1.8056,-1.8234,-1.9031,-2.0558,-2.2375,-2.3998,-2.543,-2.6473,-2.7825,-2.9074,-2.9874,-3.0868,-3.1373,-3.1065,-2.9954,-2.8545,-2.7019,-2.5385,-2.3952,-2.305,-2.181,-2.0661,-1.9996,-1.9687,-1.9622,-1.9567,-1.943,-1.9301,-1.9292,-1.932,-1.9292,-1.9292,-1.9301,-1.9222,-1.9143,-1.9143,-1.9073,-1.9073,-1.9073,-1.9152,-1.9134,-1.9213,-1.9283,-1.9191,-1.8898,-1.8669,-1.8678,-1.8669,-1.8907,-1.9081,-1.8971,-1.8696,-1.8865,-1.8948,-1.8999,-1.8981,-1.9191,-1.9256,-1.9292,-1.9292,-1.9292,-1.9292,-1.9366,-1.9595,-2.0393,-2.0668,-2.0979,-2.1291,-2.1401,-2.1511,-2.164,-2.1539,-2.1465,-2.1686,-2.1713,-2.1731,-2.1731,-2.1731,-2.1731,-2.1731,-2.1919,-2.2176,-2.2087,-2.2264,-2.2264,-2.2432,-2.328,-2.4221,-2.5316,-2.634,-2.7534,-2.803,-2.8191,-2.8271,-2.8148,-2.8059,-2.8017,-2.7741,-2.7512,-2.7693,-2.7873,-2.7669,-2.7476,-2.7368,-2.726,-2.7164,-2.7019,-2.6839,-2.6755,-2.661,-2.5652,-2.3968,-2.2114,-2.0253,-1.858,-1.8334,-1.9055,-2.0,-2.1612,-2.3577,-2.588,-2.6871,-2.7873,-2.9465,-3.0401,-3.0966,-3.1323,-3.1811,-3.1172,-2.962,-2.8213,-2.6648,-2.493,-2.3612,-2.2972,-2.185,-2.1014,-2.0476,-2.0228,-2.0026,-1.9962,-1.9705,-1.9632,-1.954,-1.9503,-1.9586,-1.9613,-1.9542,-1.9379,-1.9146,-1.9128,-1.895,-1.8851,-1.8922,-1.9002,-1.9002,-1.9073,-1.9231,-1.9222,-1.9222,-1.9222,-1.9301,-1.9292,-1.9292,-1.9292,-1.9219,-1.9182,-1.9155,-1.9228,-1.9256,-1.9292,-1.9393,-1.9412,-1.943,-1.9375,-1.943,-1.9613,-1.9797,-2.0218,-2.0943,-2.1145,-2.1365,-2.1612,-2.1722,-2.1731,-2.1731,-2.1731,-2.1722,-2.1722,-2.1731,-2.1731,-2.1731,-2.1731,-2.1731,-2.1731,-2.1919,-2.2008,-2.1909,-2.1909,-2.1909,-2.2167,-2.2931,-2.4307,-2.5495,-2.6505,-2.7615,-2.7881,-2.803,-2.8111,-2.8179,-2.8152,-2.8203,-2.8378,-2.8318,-2.8354,-2.833,-2.8198,-2.8017,-2.7897,-2.7813,-2.7753,-2.7512,-2.7224,-2.7212,-2.6622,-2.5735,-2.4723,-2.3144,-2.1355,-2.0223,-1.9877,-2.015,-2.1007,-2.2737,-2.4999,-2.6273,-2.8263,-2.9973,-3.0671,-3.1684,-3.2444,-3.2542,-3.2109,-3.095,-2.9101,-2.7458,-2.6391,-2.4441,-2.3288,-2.2666,-2.1712,-2.0789,-2.0665,-2.0389,-2.0429,-2.0411,-2.0301,-2.0246,-2.0218,-2.0301,-2.02,-2.0154,-2.0007,-1.9824,-1.9552,-1.9317,-1.9128,-1.8851,-1.8986,-1.8941,-1.8816,-1.8789,-1.8851,-1.9002,-1.9082,-1.9152,-1.9231,-1.9311,-1.9329,-1.9292,-1.9292,-1.9292,-1.9292,-1.9329,-1.9301,-1.9375,-1.9632,-1.9815,-1.9751,-1.9595,-1.976,-2.031,-2.0842,-2.1355,-2.1548,-2.1557,-2.1621,-2.1731,-2.1731,-2.1731,-2.1731,-2.1731,-2.1731,-2.1731,-2.1731,-2.1731,-2.1731,-2.1731,-2.1731,-2.1731,-2.182,-2.183,-2.182,-2.1731,-2.1731,-2.2069,-2.2589,-2.4221,-2.5757,-2.6764,-2.7615,-2.7719,-2.7881,-2.795,-2.803,-2.8179,-2.8259,-2.8351,-2.851,-2.8462,-2.8474,-2.851,-2.8438,-2.821,-2.8258,-2.8306,-2.8065,-2.7825,-2.7981,-2.6962,-2.6445,-2.5589,-2.4084,-2.2318,-2.1373,-2.0935,-2.1114,-2.229,-2.4012,-2.6008,-2.7699,-2.9274,-3.1035,-3.2372,-3.3113,-3.3352,-3.2492,-3.1829,-3.0706,-2.8591,-2.6755,-2.5942,-2.3922,-2.2921,-2.2309,-2.1493,-2.1076,-2.1089,-2.0893,-2.0842,-2.0769,-2.0649,-2.0521,-2.0521,-2.0484,-2.0539,-2.0455,-2.0361,-2.0205,-1.9913,-1.9719,-1.9419,-1.9422,-1.9333,-1.927,-1.9092,-1.8984,-1.8878,-1.8905,-1.8851,-1.9002,-1.9207,-1.9405,-1.946,-1.9393,-1.9338,-1.9311,-1.9366,-1.9467,-1.9641,-1.9677,-2.0008,-2.0209,-2.02,-2.0136,-2.0301,-2.097,-2.1346,-2.1731,-2.1713,-2.1731,-2.1731,-2.1731,-2.1731,-2.1731,-2.1731,-2.1731,-2.1731,-2.1731,-2.1731,-2.1731,-2.1731,-2.1731,-2.1731,-2.1731,-2.1731,-2.1731,-2.1731,-2.1731,-2.1731,-2.1989,-2.2413,-2.3617,-2.5253,-2.6351,-2.736,-2.7545,-2.7626,-2.7708,-2.7857,-2.8018,-2.8179,-2.8259,-2.8339,-2.851,-2.851,-2.851,-2.851,-2.851,-2.8462,-2.8426,-2.8474,-2.8498,-2.851,-2.7231,-2.7149,-2.6174,-2.4935,-2.3517,-2.2591,-2.2171,-2.2494,-2.3821,-2.5365,-2.7047,-2.8845,-3.0316,-3.1766,-3.3031,-3.3941,-3.3587,-3.1829,-3.093,-2.9603,-2.7705,-2.6025,-2.4756,-2.3587,-2.2422,-2.1891,-2.1676,-2.1731,-2.1533,-2.1383,-2.1255,-2.1181,-2.0897,-2.0769,-2.0824,-2.0906,-2.0769,-2.0759,-2.0683,-2.0589,-2.0328,-2.0059,-1.9929,-1.9929,-1.9844,-1.9676,-1.9335,-1.9291,-1.9168,-1.9,-1.8966,-1.8967,-1.919,-1.9444,-1.9697,-1.9724,-1.9659,-1.9558,-1.9641,-1.9824,-2.0044,-2.0063,-2.042,-2.0585,-2.0686,-2.0759,-2.1016,-2.1585,-2.1731,-2.1731,-2.1731,-2.1731,-2.1731,-2.1731,-2.1731,-2.1731,-2.1731,-2.1731,-2.1731,-2.1731,-2.1731,-2.1731,-2.1731,-2.1731,-2.1731,-2.1731,-2.1731,-2.1731,-2.1731,-2.1731,-2.1731,-2.19,-2.2422,-2.3193,-2.4392,-2.5684,-2.6622,-2.7313,-2.7301,-2.7278,-2.7603,-2.7914,-2.8087,-2.8259,-2.8419,-2.851,-2.851,-2.851,-2.851,-2.851,-2.851,-2.851,-2.851,-2.851,-2.851,-2.7231,-2.7138,-2.6174,-2.5652,-2.5294,-2.4467,-2.4135,-2.4296,-2.5692,-2.6849,-2.7797,-2.9214,-3.1036,-3.2652,-3.3587,-3.3157,-3.196,-3.0992,-2.9616,-2.782,-2.6168,-2.4766,-2.3511,-2.2413,-2.1989,-2.1731,-2.1731,-2.1731,-2.1713,-2.1649,-2.163,-2.1575,-2.153,-2.1557,-2.142,-2.141,-2.1603,-2.1478,-2.138,-2.1049,-2.056,-2.0341,-2.0207,-2.0086,-2.0095,-2.0068,-1.9715,-1.9595,-1.9431,-1.9396,-1.9388,-1.9182,-1.8966,-1.9401,-2.0368,-2.0834,-2.0869,-2.0374,-2.0319,-2.03,-2.0448,-2.0521,-2.0824,-2.0998,-2.1108,-2.131,-2.152,-2.1658,-2.1731,-2.1731,-2.1731,-2.1731,-2.1731,-2.1731,-2.1731,-2.1731,-2.1731,-2.1731,-2.1731,-2.1731,-2.1731,-2.1731,-2.1731,-2.1731,-2.1731,-2.1731,-2.1731,-2.1731,-2.1731,-2.1731,-2.1731,-2.182,-2.2078,-2.2755,-2.3704,-2.4904,-2.56,-2.6633,-2.6869,-2.6764,-2.7174,-2.7499,-2.8099,-2.8271,-2.8431,-2.851,-2.851,-2.851,-2.851,-2.851,-2.851,-2.851,-2.851,-2.851,-2.851,-2.7231,-2.7138,-2.6787,-2.6268,-2.5819,-2.5411,-2.5495,-2.5986,-2.686,-2.7912,-2.9114,-3.059,-3.2205,-3.3281,-3.3073,-3.2105,-3.093,-2.9539,-2.8219,-2.6532,-2.5031,-2.375,-2.3086,-2.2246,-2.1731,-2.1731,-2.1731,-2.1731,-2.1731,-2.1731,-2.1731,-2.1731,-2.1731,-2.1695,-2.1731,-2.1731,-2.1722,-2.1624,-2.1615,-2.1471,-2.1219,-2.1047,-2.1025,-2.0938,-2.0851,-2.0638,-2.0303,-2.0086,-1.9868,-1.9641,-1.9475,-1.926,-1.9164,-1.941,-2.0009,-2.0685,-2.0882,-2.0634,-2.0528,-2.0589,-2.0747,-2.0857,-2.12,-2.1447,-2.1502,-2.1603,-2.1731,-2.1731,-2.1731,-2.1731,-2.1731,-2.1731,-2.1731,-2.1731,-2.1731,-2.1731,-2.1731,-2.1731,-2.1731,-2.1731,-2.1731,-2.1731,-2.1731,-2.1731,-2.1731,-2.1731,-2.1731,-2.1731,-2.1731,-2.1731,-2.1731,-2.1731,-2.19,-2.2246,-2.3183,-2.4125,-2.4392,-2.5168,-2.6091,-2.6163,-2.6577,-2.6999,-2.7672,-2.8191,-2.8351,-2.8431,-2.851,-2.851,-2.851,-2.851,-2.851,-2.851,-2.851,-2.851,-2.851,-2.7231,-2.7231,-2.7231,-2.6798,-2.6174,-2.6174,-2.6505,-2.7139,-2.7763,-2.8797,-3.0101,-3.1522,-3.2583,-3.2653,-3.1707,-3.0843,-2.9834,-2.7752,-2.6543,-2.5378,-2.42,-2.3096,-2.2589,-2.1989,-2.1731,-2.1731,-2.1731,-2.1731,-2.1731,-2.1731,-2.1731,-2.1731,-2.1731,-2.1731,-2.1731,-2.1731,-2.1731,-2.1731,-2.1642,-2.1633,-2.1606,-2.1615,-2.1596,-2.1615,-2.1526,-2.1337,-2.0995,-2.0853,-2.0403,-1.9974,-1.9825,-1.973,-1.9565,-1.9755,-1.9995,-2.0413,-2.0622,-2.0802,-2.0797,-2.0884,-2.0983,-2.1189,-2.1475,-2.1676,-2.1695,-2.1731,-2.1731,-2.1731,-2.1731,-2.1731,-2.1731,-2.1731,-2.1731,-2.1731,-2.1731,-2.1731,-2.1731,-2.1731,-2.1731,-2.1731,-2.1731,-2.1731,-2.1731,-2.1731,-2.1731,-2.1731,-2.1731,-2.1731,-2.1731,-2.1731,-2.1731,-2.1731,-2.182,-2.1989,-2.2501,-2.3193,-2.3367,-2.3877,-2.4808,-2.5652,-2.608,-2.6659,-2.7244,-2.7753,-2.8191,-2.8431,-2.851,-2.851,-2.851,-2.851,-2.851,-2.851,-2.851,-2.851,-2.851,-2.7231,-2.7231,-2.7231,-2.7138,-2.7056,-2.7056,-2.7452,-2.8063,-2.8688,-2.9381,-3.0317,-3.1302,-3.1282,-3.0611,-3.0611,-2.9551,-2.729,-2.6894,-2.5546,-2.4114,-2.3096,-2.258,-2.2157,-2.182,-2.1731,-2.1731,-2.1731,-2.1731,-2.1731,-2.1731,-2.1731,-2.1731,-2.1731,-2.1731,-2.1731,-2.1731,-2.1731,-2.1731,-2.1731,-2.1731,-2.1731,-2.1731,-2.1731,-2.1731,-2.1651,-2.1544,-2.1338,-2.1302,-2.1078,-2.0606,-2.0447,-2.0243,-2.0099,-2.0078,-2.0206,-2.0339,-2.0374,-2.0631,-2.0918,-2.1175,-2.1293,-2.1436,-2.1544,-2.1731,-2.1731,-2.1731,-2.1731,-2.1731,-2.1731,-2.1731,-2.1731,-2.1731,-2.1731,-2.1731,-2.1731,-2.1731,-2.1731,-2.1731,-2.1731,-2.1731,-2.1731,-2.1731,-2.1731,-2.1731,-2.1731,-2.1731,-2.1731,-2.1731,-2.1731,-2.1731,-2.1731,-2.1731,-2.1731,-2.1731,-2.182,-2.2255,-2.2677,-2.3105,-2.3867,-2.4893,-2.5757,-2.6423,-2.7244,-2.7753,-2.8271,-2.8431,-2.8431,-2.8179,-2.8087,-2.8431,-2.851,-2.851,-2.851,-2.851,-2.851,-2.7231,-2.7231,-2.7231,-2.7231,-2.7219,-2.7626,-2.8167,-2.8779,-2.9406,-3.0304,-3.1206,-3.097,-3.0742,-3.0413,-2.9399,-2.8493,-2.6812,-2.5746,-2.4467,-2.3357,-2.2501,-2.2078,-2.1731,-2.1731,-2.1731,-2.1731,-2.1731,-2.1731,-2.1731,-2.1731,-2.1731,-2.1731,-2.1731,-2.1731,-2.1731,-2.1731,-2.1731,-2.1731,-2.1731,-2.1731,-2.1731,-2.1731,-2.1731,-2.1731,-2.1731,-2.1642,-2.1553,-2.1553,-2.1383,-2.1122,-2.0934,-2.0663,-2.0382,-2.0382,-2.0292,-2.0292,-2.0382,-2.0564,-2.0934,-2.1114,-2.1284,-2.1562,-2.1642,-2.1731,-2.1731,-2.1731,-2.1731,-2.1731,-2.1731,-2.1731,-2.1731,-2.1731,-2.1731,-2.1731,-2.1731,-2.1731,-2.1731,-2.1731,-2.1731,-2.1731,-2.1731,-2.1731,-2.1731,-2.1731,-2.1731,-2.1731,-2.1731,-2.1731,-2.1731,-2.1731,-2.1731,-2.1731,-2.1731,-2.1731,-2.1731,-2.19,-2.2069,-2.2589,-2.3096,-2.4221,-2.5411,-2.6764,-2.751,-2.8018,-2.8271,-2.8431,-2.8259,-2.7753,-2.7834,-2.8259,-2.851,-2.851,-2.851,-2.851,-2.851,-2.7231,-2.7231,-2.7231,-2.7231,-2.7231,-2.7708,-2.8235,-2.887,-2.9406,-3.0393,-3.1355,-3.0317,-2.9935,-2.9756,-2.9003,-2.7568,-2.64,-2.5242,-2.4135,-2.3105,-2.2246,-2.182,-2.1731,-2.1731,-2.1731,-2.1731,-2.1731,-2.1731,-2.1731,-2.1731,-2.1731,-2.1731,-2.1731,-2.1731,-2.1731,-2.1731,-2.1731,-2.1731,-2.1731,-2.1731,-2.1731,-2.1731,-2.1731,-2.1731,-2.1731,-2.1731,-2.1642,-2.1651,-2.1562,-2.1392,-2.1122,-2.0843,-2.0572,-2.0473,-2.0473,-2.0473,-2.0473,-2.0473,-2.0736,-2.1015,-2.1275,-2.1642,-2.1642,-2.1731,-2.1731,-2.1731,-2.1731,-2.1731,-2.1731,-2.1731,-2.1731,-2.1731,-2.1731,-2.1731,-2.1731,-2.1731,-2.1731,-2.1731,-2.1731,-2.1731,-2.1731,-2.1731,-2.1731,-2.1731,-2.1731,-2.1731,-2.1731,-2.1731,-2.1731,-2.1731,-2.1731,-2.1731,-2.1731,-2.1731,-2.1731,-2.182,-2.1989,-2.2677,-2.3183,-2.3953,-2.5147,-2.6494,-2.7522,-2.795,-2.8203,-2.8431,-2.8339,-2.8007,-2.8087,-2.8351,-2.8431,-2.851,-2.851,-2.851,-2.851,-2.7231,-2.7231,-2.7231,-2.7231,-2.7231,-2.7231,-2.7615,-2.8327,-2.8937,-2.9561,-3.0101,-2.9406,-2.8858,-2.8554,-2.8167,-2.7174,-2.5819,-2.4904,-2.3887,-2.2853,-2.2078,-2.1731,-2.1731,-2.1731,-2.1731,-2.1731,-2.1731,-2.1731,-2.1731,-2.1731,-2.1731,-2.1731,-2.1731,-2.1731,-2.1731,-2.1731,-2.1731,-2.1731,-2.1731,-2.1731,-2.1731,-2.1731,-2.1731,-2.1731,-2.1731,-2.1731,-2.1731,-2.1731,-2.1651,-2.1482,-2.1392,-2.1122,-2.0852,-2.0654,-2.0835,-2.1105,-2.0645,-2.0645,-2.0997,-2.1203,-2.1472,-2.1642,-2.1651,-2.1731,-2.1731,-2.1731,-2.1731,-2.1731,-2.1731,-2.1731,-2.1731,-2.1731,-2.1731,-2.1731,-2.1731,-2.1731,-2.1731,-2.1731,-2.1731,-2.1731,-2.1731,-2.1731,-2.1731,-2.1731,-2.1731,-2.1731,-2.1731,-2.1731,-2.1731,-2.1731,-2.1731,-2.1731,-2.1731,-2.1731,-2.1731,-2.1731,-2.1989,-2.2677,-2.327,-2.3953,-2.4798,-2.5986,-2.6928,-2.7708,-2.8203,-2.8431,-2.851,-2.8431,-2.8351,-2.8179,-2.8431,-2.851,-2.851,-2.851,-2.851,-2.7231,-2.7231,-2.7231,-2.7231,-2.7231,-2.7708,-2.8018,-2.8247,-2.8779,-2.9238,-2.925,-2.8779,-2.8395,-2.8087,-2.7615,-2.6693,-2.5168,-2.4744,-2.38,-2.2246,-2.182,-2.1731,-2.1731,-2.1731,-2.1731,-2.1731,-2.1731,-2.1731,-2.1731,-2.1731,-2.1731,-2.1731,-2.1642,-2.1731,-2.1731,-2.1731,-2.1731,-2.1731,-2.1731,-2.1731,-2.1731,-2.1731,-2.1731,-2.1731,-2.1731,-2.1731,-2.1731,-2.1731,-2.1651,-2.1562,-2.1482,-2.1311,-2.1122,-2.1024,-2.0925,-2.1096,-2.0826,-2.1015,-2.1284,-2.1482,-2.1562,-2.1562,-2.1651,-2.1642,-2.1731,-2.1731,-2.1731,-2.1731,-2.1731,-2.1731,-2.1731,-2.1731,-2.1731,-2.1731,-2.1731,-2.1731,-2.1731,-2.1731,-2.1731,-2.1731,-2.1731,-2.1731,-2.1731,-2.1731,-2.1731,-2.1731,-2.1731,-2.1731,-2.1731,-2.1731,-2.1731,-2.1731,-2.1731,-2.1731,-2.1731,-2.19,-2.2334,-2.3018,-2.3521,-2.3943,-2.4798,-2.5986,-2.6764,-2.7708,-2.8191,-2.851,-2.851,-2.8431,-2.8099,-2.8018,-2.8259,-2.851,-2.851,-2.851,-2.851,-2.7231,-2.7231,-2.7231,-2.7231,-2.7231,-2.7696,-2.7938,-2.8167,-2.8395,-2.8542,-2.8621,-2.8179,-2.7869,-2.7708,-2.7301,-2.6539,-2.4999,-2.4584,-2.3887,-2.2246,-2.182,-2.1731,-2.1731,-2.1731,-2.1731,-2.1731,-2.1731,-2.1731,-2.1731,-2.1731,-2.1731,-2.1642,-2.1642,-2.1651,-2.1651,-2.1731,-2.1731,-2.1731,-2.1731,-2.1731,-2.1731,-2.1731,-2.1731,-2.1731,-2.1731,-2.1731,-2.1731,-2.1731,-2.1731,-2.1651,-2.1571,-2.1482,-2.1392,-2.1203,-2.1105,-2.1186,-2.1284,-2.1284,-2.1284,-2.1482,-2.1482,-2.1392,-2.1562,-2.1651,-2.1731,-2.1731,-2.1731,-2.1731,-2.1731,-2.1731,-2.1731,-2.1731,-2.1731,-2.1731,-2.1731,-2.1731,-2.1731,-2.1731,-2.1731,-2.1731,-2.1731,-2.1731,-2.1731,-2.1731,-2.1731,-2.1731,-2.1731,-2.1731,-2.1731,-2.1731,-2.1731,-2.1731,-2.1731,-2.1731,-2.1989,-2.2334,-2.2843,-2.3444,-2.3953,-2.4457,-2.5484,-2.6764,-2.7278,-2.7708,-2.8191,-2.8431,-2.851,-2.8351,-2.8179,-2.8179,-2.8259,-2.8431,-2.851,-2.851,-2.851,-2.7231,-2.7231,-2.7231,-2.7231,-2.7231,-2.7231,-2.7626,-2.8111,-2.7557,-2.7626,-2.8099,-2.7452,-2.7208,-2.7231,-2.7149,-2.6445,-2.5579,-2.4744,-2.38,-2.2843,-2.1998,-2.182,-2.1731,-2.1731,-2.1731,-2.1731,-2.1731,-2.1731,-2.1731,-2.1731,-2.1731,-2.1642,-2.1562,-2.1562,-2.1642,-2.1731,-2.1731,-2.1731,-2.1731,-2.1731,-2.1731,-2.1731,-2.1731,-2.1731,-2.1731,-2.1731,-2.1731,-2.1731,-2.1731,-2.1642,-2.1651,-2.1642,-2.1642,-2.1463,-2.1553,-2.1553,-2.1472,-2.1284,-2.1284,-2.1472,-2.1482,-2.1482,-2.1571,-2.1651,-2.1731,-2.1731,-2.1731,-2.1731,-2.1731,-2.1731,-2.1731,-2.1731,-2.1731,-2.1731,-2.1731,-2.1731,-2.1731,-2.1731,-2.1731,-2.1731,-2.1731,-2.1731,-2.1731,-2.1731,-2.1731,-2.1731,-2.1731,-2.1731,-2.1731,-2.1731,-2.1731,-2.1731,-2.1731,-2.1731,-2.2078,-2.2501,-2.328,-2.3877,-2.4893,-2.5484,-2.6599,-2.7278,-2.7534,-2.7857,-2.8191,-2.8431,-2.851,-2.851,-2.8431,-2.8431,-2.8339,-2.8431,-2.851,-2.851,-2.851,-2.7231,-2.7231,-2.7231,-2.7231,-2.7231,-2.7231,-2.7313,-2.7464,-2.7231,-2.7394,-2.7464,-2.6599,-2.661,-2.7149,-2.6528,-2.5757,-2.5084,-2.4402,-2.3377,-2.2511,-2.1909,-2.1731,-2.1731,-2.1731,-2.1731,-2.1731,-2.1731,-2.1731,-2.1731,-2.1731,-2.1642,-2.1642,-2.1562,-2.1651,-2.1642,-2.1731,-2.1731,-2.1731,-2.1731,-2.1731,-2.1731,-2.1731,-2.1731,-2.1731,-2.1731,-2.1731,-2.1731,-2.1731,-2.1731,-2.1731,-2.1731,-2.1731,-2.1642,-2.1642,-2.1642,-2.1642,-2.1651,-2.1562,-2.1553,-2.1562,-2.1562,-2.1562,-2.1651,-2.1651,-2.1731,-2.1731,-2.1731,-2.1731,-2.1731,-2.1731,-2.1731,-2.1731,-2.1731,-2.1731,-2.1731,-2.1731,-2.1731,-2.1731,-2.1731,-2.1731,-2.1731,-2.1731,-2.1731,-2.1731,-2.1731,-2.1731,-2.1731,-2.1731,-2.1731,-2.1731,-2.1731,-2.1731,-2.1731,-2.1731,-2.2167,-2.2677,-2.3541,-2.4402,-2.5326,-2.6174,-2.6857,-2.7371,-2.7615,-2.7765,-2.7765,-2.8099,-2.851,-2.8339,-2.7926,-2.8339,-2.8419,-2.8431,-2.851,-2.8431,-2.8351,-2.7231,-2.7231,-2.7231,-2.7231,-2.7231,-2.7231,-2.7231,-2.7231,-2.7231,-2.7056,-2.661,-2.608,-2.6091,-2.6445,-2.6008,-2.5411,-2.4573,-2.4488,-2.3551,-2.2167,-2.1731,-2.1731,-2.1731,-2.1731,-2.1731,-2.1731,-2.1731,-2.1731,-2.1651,-2.1651,-2.1562,-2.1731,-2.1651,-2.1651,-2.1651,-2.1731,-2.1731,-2.1731,-2.1731,-2.1731,-2.1731,-2.1731,-2.1731,-2.1731,-2.1731,-2.1731,-2.1731,-2.1731,-2.1731,-2.1731,-2.1731,-2.1731,-2.1651,-2.1651,-2.1651,-2.1651,-2.1571,-2.1651,-2.1651,-2.1642,-2.1731,-2.1731,-2.1731,-2.1731,-2.1731,-2.1731,-2.1731,-2.1731,-2.1731,-2.1731,-2.1731,-2.1731,-2.1731,-2.1731,-2.1731,-2.1731,-2.1731,-2.1731,-2.1731,-2.1731,-2.1731,-2.1731,-2.1731,-2.1731,-2.1731,-2.1731,-2.1731,-2.1731,-2.1731,-2.1731,-2.1731,-2.1731,-2.1731,-2.1731,-2.2246,-2.2931,-2.38,-2.4829,-2.5852,-2.661,-2.7126,-2.7208,-2.7196,-2.7185,-2.7092,-2.7336,-2.7499,-2.7336,-2.7162,-2.7568,-2.7753,-2.7638,-2.7719,-2.8134,-2.8042,-2.7231,-2.7231,-2.7231,-2.7231,-2.7231,-2.7231,-2.7231,-2.7149,-2.7056,-2.6622,-2.5913,-2.5746,-2.5663,-2.5673,-2.5316,-2.4893,-2.4307,-2.4059,-2.328,-2.1731,-2.1731,-2.1731,-2.1731,-2.1731,-2.1731,-2.1731,-2.1731,-2.1731,-2.1651,-2.1562,-2.1562,-2.1731,-2.1562,-2.1571,-2.1651,-2.1731,-2.1731,-2.1731,-2.1731,-2.1731,-2.1731,-2.1731,-2.1731,-2.1731,-2.1731,-2.1731,-2.1731,-2.1731,-2.1731,-2.1731,-2.1731,-2.1731,-2.1651,-2.1562,-2.1562,-2.1562,-2.1472,-2.1562,-2.1651,-2.1731,-2.1731,-2.1731,-2.1731,-2.1731,-2.1731,-2.1731,-2.1731,-2.1731,-2.1731,-2.1731,-2.1731,-2.1731,-2.1731,-2.1731,-2.1731,-2.1731,-2.1731,-2.1731,-2.1731,-2.1731,-2.1731,-2.1731,-2.1731,-2.1731,-2.1731,-2.1731,-2.1731,-2.1731,-2.1731,-2.1731,-2.1731,-2.1731,-2.1731,-2.182,-2.2511,-2.3193,-2.4145,-2.5168,-2.6196,-2.6622,-2.6857,-2.6787,-2.6622,-2.6268,-2.5913,-2.608,-2.6152,-2.6246,-2.6389,-2.6416,-2.6625,-2.6573,-2.6854,-2.7406,-2.7719,-2.7231,-2.7231,-2.7231,-2.7231,-2.7231,-2.7231,-2.7231,-2.7138,-2.6434,-2.6008,-2.5746,-2.5168,-2.4829,-2.4734,-2.4211,-2.379,-2.3617,-2.3541,-2.2755,-2.1989,-2.1731,-2.1731,-2.1731,-2.1731,-2.1731,-2.1731,-2.1731,-2.1731,-2.1651,-2.1651,-2.1651,-2.1731,-2.1651,-2.1651,-2.1741,-2.1731,-2.1731,-2.1731,-2.1731,-2.1731,-2.1731,-2.1731,-2.1731,-2.1731,-2.1731,-2.1731,-2.1731,-2.1731,-2.1731,-2.1731,-2.1731,-2.1731,-2.1731,-2.1651,-2.1463,-2.1275,-2.1463,-2.1553,-2.1642,-2.1731,-2.1731,-2.1731,-2.1731,-2.1731,-2.1731,-2.1731,-2.1731,-2.1731,-2.1731,-2.1731,-2.1731,-2.1731,-2.1731,-2.1731,-2.1731,-2.1731,-2.1731,-2.1731,-2.1731,-2.1731,-2.1731,-2.1731,-2.1731,-2.1731,-2.1731,-2.1731,-2.1731,-2.1731,-2.1731,-2.1731,-2.1731,-2.1731,-2.1731,-2.1989,-2.2589,-2.3454,-2.4402,-2.5337,-2.6279,-2.6528,-2.6599,-2.6091,-2.5673,-2.4999,-2.4563,-2.4988,-2.5484,-2.583,-2.588,-2.5576,-2.567,-2.579,-2.6052,-2.661,-2.7021,-2.7231,-2.7231,-2.7231,-2.7231,-2.7231,-2.7231,-2.7231,-2.7056,-2.6174,-2.5579,-2.5073,-2.4307,-2.3887,-2.3887,-2.327,-2.3008,-2.3096,-2.3096,-2.2589,-2.1989,-2.1731,-2.1731,-2.1731,-2.1731,-2.1731,-2.1731,-2.1731,-2.1731,-2.1731,-2.1731,-2.1642,-2.1731,-2.1731,-2.1731,-2.1731,-2.1731,-2.1731,-2.1731,-2.1731,-2.1731,-2.1731,-2.1731,-2.1731,-2.1731,-2.1731,-2.1731,-2.1731,-2.1731,-2.1731,-2.1731,-2.1731,-2.1731,-2.1651,-2.1562,-2.1463,-2.1463,-2.1463,-2.1651,-2.1642,-2.1731,-2.1731,-2.1731,-2.1731,-2.1731,-2.1731,-2.1731,-2.1731,-2.1731,-2.1731,-2.1731,-2.1731,-2.1731,-2.1731,-2.1731,-2.1731,-2.1731,-2.1731,-2.1731,-2.1731,-2.1731,-2.1731,-2.1731,-2.1731,-2.1731,-2.1731,-2.1731,-2.1731,-2.1731,-2.1731,-2.1731,-2.1731,-2.1731,-2.1731,-2.1731,-2.2167,-2.329,-2.4573,-2.5516,-2.6279,-2.5935,-2.5673,-2.5158,-2.4648,-2.4317,-2.4145,-2.4402,-2.4819,-2.5242,-2.4819,-2.4372,-2.4628,-2.4999,-2.5411,-2.5746,-2.6257,-2.7313,-2.7313,-2.7301,-2.7313,-2.7231,-2.7231,-2.7138,-2.688,-2.6008,-2.5062,-2.4231,-2.3357,-2.3018,-2.2931,-2.2931,-2.2921,-2.2833,-2.2668,-2.2157,-2.19,-2.1731,-2.1731,-2.1731,-2.1731,-2.1731,-2.1731,-2.1731,-2.1731,-2.1731,-2.1731,-2.1731,-2.1731,-2.1731,-2.1731,-2.1731,-2.1731,-2.1731,-2.1731,-2.1731,-2.1731,-2.1731,-2.1731,-2.1731,-2.1731,-2.1731,-2.1731,-2.1731,-2.1731,-2.1731,-2.1731,-2.1731,-2.1731,-2.1651,-2.1571,-2.1651,-2.1553,-2.1562,-2.1651,-2.1642,-2.1731,-2.1731,-2.1731,-2.1731,-2.1731,-2.1731,-2.1731,-2.1731,-2.1731,-2.1731,-2.1731,-2.1731,-2.1731,-2.1731,-2.1731,-2.1731,-2.1731,-2.1731,-2.1731,-2.1731,-2.1731,-2.1731,-2.1731,-2.1731,-2.1731,-2.1731,-2.1731,-2.1731,-2.1731,-2.1731,-2.1731,-2.1731,-2.1731,-2.1731,-2.182,-2.2078,-2.3202,-2.4754,-2.5253,-2.5841,-2.5253,-2.4744,-2.4317,-2.4069,-2.4069,-2.4069,-2.4317,-2.4317,-2.4488,-2.3983,-2.3474,-2.3724,-2.4231,-2.4317,-2.4744,-2.5495,-2.8018,-2.8018,-2.8007,-2.7696,-2.7231,-2.7149,-2.6787,-2.6008,-2.5158,-2.4231,-2.3357,-2.2511,-2.1998,-2.1989,-2.1989,-2.1989,-2.2157,-2.2157,-2.1989,-2.1731,-2.1651,-2.1651,-2.1731,-2.1731,-2.1731,-2.1731,-2.1731,-2.1731,-2.1731,-2.1731,-2.1731,-2.1731,-2.1731,-2.1731,-2.1731,-2.1731,-2.1731,-2.1731,-2.1731,-2.1731,-2.1731,-2.1731,-2.1731,-2.1731,-2.1731,-2.1731,-2.1731,-2.1731,-2.1731,-2.1731,-2.1642,-2.1642,-2.1651,-2.166,-2.1651,-2.1642,-2.1651,-2.1651,-2.1642,-2.1731,-2.1731,-2.1731,-2.1731,-2.1731,-2.1731,-2.1731,-2.1731,-2.1731,-2.1731,-2.1731,-2.1731,-2.1731,-2.1731,-2.1731,-2.1731,-2.1731,-2.1731,-2.1731,-2.1731,-2.1731,-2.1731,-2.182,-2.2078,-2.1998,-2.182,-2.1731,-2.1731,-2.1731,-2.1731,-2.1731,-2.1731,-2.1731,-2.1731,-2.2501,-2.3018,-2.3541,-2.4659,-2.5158,-2.5326,-2.4648,-2.4069,-2.3484,-2.3309,-2.3907,-2.4155,-2.4402,-2.4327,-2.4241,-2.382,-2.3474,-2.3222,-2.3309,-2.3387,-2.3983,-2.4988]}]]